GFSSW_prec_cthk_000.txt.gz
RH
30 32 31 30 31 32 35 40 47 55 61 62 63 61 58 56 57 53 47 41 44 43 48 44 54 62 63 61 55 51 48 44 39 35 42 40 31 28 31 33 32 37 38 43 52
35 37 36 36 35 35 34 36 39 48 53 53 60 58 58 60 60 58 51 47 42 46 51 55 53 66 66 62 60 53 49 42 41 37 39 44 39 31 31 33 34 36 45 51 51
37 41 44 43 42 43 45 43 42 42 40 40 43 49 51 60 63 55 50 52 49 48 47 54 62 62 70 64 62 56 47 44 43 41 39 45 44 35 31 32 35 38 51 53 50
40 45 45 47 50 51 50 49 47 47 52 46 42 43 50 59 59 59 52 48 51 52 52 50 62 67 70 72 62 55 48 47 45 45 42 43 48 38 33 32 37 37 44 44 45
42 48 50 53 61 60 57 55 53 52 53 55 48 48 54 57 61 60 54 47 44 53 54 54 62 66 67 72 70 58 51 50 49 48 44 41 48 47 33 30 36 36 36 41 42
42 50 56 61 67 66 64 60 62 57 54 54 52 52 54 59 54 53 53 48 45 49 58 58 59 70 71 73 72 61 58 53 52 51 49 43 44 47 43 29 29 32 33 36 37
39 50 56 64 73 73 71 67 62 62 58 58 66 67 66 56 52 49 46 45 44 46 50 57 63 80 76 77 77 68 64 62 54 52 50 47 40 44 48 32 22 23 27 29 32
35 48 57 64 76 81 78 74 72 67 65 67 76 76 69 61 57 54 52 50 47 48 48 58 69 84 91 80 80 74 70 65 54 55 50 47 39 44 39 35 25 22 25 27 31
31 45 56 69 68 79 80 81 81 73 77 82 84 82 74 64 60 58 57 54 54 55 52 61 72 85 93 87 87 81 72 61 60 55 51 47 40 40 38 32 29 23 26 27 29
28 40 59 72 74 85 85 85 90 91 92 95 92 92 75 68 64 64 66 69 65 71 67 73 74 88 94 91 83 80 71 61 59 54 47 44 40 41 38 33 27 25 27 28 30
26 34 52 63 76 84 92 93 94 94 94 89 89 86 79 73 69 70 75 78 72 80 77 78 85 87 84 88 78 72 63 62 56 53 51 49 42 40 40 35 29 25 30 29 33
27 28 44 56 72 84 96 96 94 95 97 95 95 92 90 85 76 71 79 78 76 81 91 90 85 79 95 88 82 73 66 62 63 54 52 50 43 44 41 33 28 24 30 31 33
32 30 43 55 70 83 92 98 98 98 98 95 97 96 94 86 72 79 79 75 75 84 95 91 74 87 91 86 88 77 70 63 63 60 58 50 41 41 39 35 32 22 28 31 32
41 36 43 50 66 83 92 97 98 98 98 91 95 95 95 88 72 71 85 76 81 87 97 87 86 94 90 88 85 78 70 70 68 72 66 53 48 42 38 36 33 25 27 32 33
50 43 41 43 66 78 90 98 98 98 96 84 92 93 89 79 70 76 86 80 80 91 97 85 93 96 92 84 83 76 73 68 71 74 66 57 52 39 39 36 32 26 29 32 33
58 47 39 46 58 71 93 98 98 98 94 94 96 93 92 78 75 86 90 82 89 91 94 82 93 95 87 87 85 81 74 74 69 70 66 54 50 41 36 31 29 27 31 32 34
65 53 42 44 59 71 96 98 98 97 94 98 97 97 93 70 69 93 89 81 95 97 96 93 96 94 87 94 88 81 79 93 89 81 62 50 50 40 39 34 32 29 28 31 36
67 58 53 45 60 78 98 98 98 93 96 95 95 96 93 75 78 92 85 79 92 87 81 98 99 96 82 87 88 79 73 69 72 64 54 57 49 37 35 34 34 32 31 31 34
67 60 49 46 60 82 98 98 91 97 95 96 94 90 86 75 78 93 71 74 87 87 87 97 98 93 85 80 83 89 81 69 64 59 56 50 44 38 36 34 34 35 33 34 37
68 58 48 53 67 93 98 98 97 96 96 70 64 73 72 69 80 86 66 69 79 85 90 83 96 90 90 89 86 85 76 77 66 67 62 51 47 43 37 35 34 33 34 35 39
66 63 57 61 76 95 98 97 96 95 82 53 55 58 60 63 76 66 57 72 70 79 89 84 80 83 84 85 86 78 85 78 64 58 54 51 46 39 37 33 32 34 35 38 40
60 68 62 65 81 93 97 97 96 93 72 51 52 56 55 64 78 65 54 73 66 77 82 81 72 87 77 72 76 75 68 70 70 65 55 52 48 41 37 33 32 33 37 40 41
59 70 68 71 85 95 96 97 96 88 71 68 62 63 58 61 70 63 65 68 74 78 78 74 71 80 87 80 75 79 68 66 58 53 54 58 49 41 40 36 33 34 37 40 43
61 72 73 70 92 98 98 97 97 83 72 80 71 74 70 63 61 56 68 79 86 81 79 74 68 59 62 58 58 61 61 64 60 65 60 51 48 46 46 39 29 34 39 43 47
57 67 66 69 91 98 98 96 96 93 84 88 73 70 66 70 73 68 68 81 79 87 82 79 68 65 60 57 57 59 63 61 59 58 58 56 51 50 43 34 27 31 40 47 52
59 56 65 62 81 94 98 97 96 97 94 95 88 74 72 65 59 70 68 77 78 82 80 79 74 65 64 62 59 58 58 60 59 61 55 56 47 37 27 28 33 39 47 53 55
72 51 55 51 70 91 96 96 96 95 96 95 94 83 72 69 70 73 80 82 79 80 79 79 74 72 69 64 63 64 54 56 53 53 54 52 41 37 31 31 37 45 51 51 50

GFSSW_prec_cthk_003.txt.gz
RH
25 29 33 33 31 30 30 34 38 47 59 61 54 59 59 63 63 58 52 47 42 37 38 40 40 48 56 55 59 56 53 46 42 42 37 40 41 32 28 28 28 34 36 36 36
28 32 35 36 38 37 36 34 36 40 52 58 58 64 64 65 62 61 53 50 47 43 40 45 45 47 57 56 58 58 53 46 42 44 45 42 38 42 31 28 31 31 34 37 37
29 34 40 41 40 40 40 43 41 40 40 47 51 54 66 69 69 60 53 50 48 47 43 44 48 54 56 58 55 58 51 49 45 47 46 42 36 40 39 26 29 34 34 36 38
27 36 41 44 43 45 49 53 51 49 48 47 45 45 50 56 59 61 51 45 44 46 51 48 47 56 59 57 59 57 55 50 49 51 48 44 38 37 42 30 29 33 35 38 47
26 37 44 48 51 54 54 57 57 55 51 54 54 54 54 58 59 60 52 47 48 50 54 53 45 52 61 60 65 64 54 56 54 52 49 46 40 37 40 38 27 29 34 37 47
24 33 46 52 57 59 62 61 61 61 57 56 61 62 61 63 58 62 59 54 52 53 55 55 53 51 59 67 69 66 61 60 57 54 49 48 43 38 37 48 32 26 28 29 38
21 28 43 49 59 63 65 65 68 63 62 58 63 67 68 61 60 58 54 49 49 52 52 53 59 59 58 66 63 74 68 67 59 59 51 51 44 38 36 45 37 23 21 26 29
23 25 40 49 61 66 69 69 69 67 63 61 66 70 74 68 66 63 58 53 46 42 44 51 60 57 67 75 74 70 76 73 62 60 54 54 44 40 38 35 35 31 22 24 28
29 24 30 45 59 67 70 71 75 73 67 68 73 76 76 70 66 65 64 59 56 52 49 50 57 60 63 79 82 88 76 71 71 61 57 55 43 38 40 35 32 32 30 25 27
34 27 26 37 52 68 72 75 77 81 80 84 86 87 77 74 72 67 67 63 62 61 59 54 61 63 65 81 83 79 74 70 73 64 59 56 46 40 38 36 35 30 30 27 27
39 33 27 31 43 59 64 74 80 86 89 86 83 80 80 77 76 72 67 67 65 63 62 62 65 69 49 61 73 79 78 71 69 64 62 54 45 39 39 39 39 32 29 26 29
42 36 30 31 39 57 65 72 81 87 91 93 91 89 88 86 83 80 75 72 71 68 64 77 81 56 43 59 86 80 76 70 72 69 59 51 44 41 41 41 39 33 31 26 30
42 42 38 36 43 58 66 71 86 91 95 91 91 93 93 94 90 86 80 73 68 68 71 79 62 56 59 65 91 76 83 74 72 71 56 53 47 43 42 41 36 32 31 28 30
45 45 46 45 45 52 61 75 86 95 96 85 85 90 96 97 92 89 85 77 76 75 78 78 76 87 69 72 89 85 70 72 73 72 61 55 44 42 43 37 35 35 36 31 28
55 50 50 49 48 54 60 72 88 98 95 83 89 91 94 96 85 79 72 78 78 77 84 70 70 84 80 72 85 91 86 74 77 68 73 65 56 44 44 36 35 35 36 31 28
60 63 56 51 47 55 55 73 91 98 94 92 94 94 94 95 86 78 68 71 85 87 88 71 80 88 73 90 89 84 83 76 79 71 66 55 55 45 44 37 35 35 36 35 29
66 69 68 51 50 61 64 78 97 97 90 97 97 95 93 93 87 83 81 84 88 91 98 90 92 95 90 96 96 91 90 90 83 77 58 55 55 47 42 35 33 32 34 35 31
71 75 71 60 54 65 68 87 98 85 89 97 97 98 98 90 78 75 90 94 82 89 96 92 92 94 88 93 95 87 88 66 69 64 53 52 52 46 39 38 34 35 36 36 34
76 77 72 63 62 65 73 92 93 89 95 98 97 96 98 91 64 63 85 93 75 82 99 87 90 91 95 92 88 93 89 69 63 54 58 52 49 43 37 35 34 36 38 37 37
79 79 74 65 65 68 78 96 94 92 97 96 79 80 90 84 66 73 78 71 72 83 92 93 92 85 93 91 89 90 76 73 62 62 59 54 51 53 44 36 33 33 39 40 39
79 78 72 69 72 70 78 97 94 94 96 71 62 64 72 64 63 71 70 62 66 78 93 97 97 96 96 91 91 91 86 70 58 56 56 58 55 48 41 35 34 33 35 39 37
78 77 71 75 74 71 92 97 95 96 94 62 59 57 58 56 61 70 70 64 62 75 96 95 97 99 91 74 80 84 76 64 62 62 54 51 56 44 38 35 32 32 35 38 39
79 75 72 76 75 76 95 97 96 95 87 58 54 54 52 57 59 64 60 55 70 74 91 86 92 97 96 82 84 78 74 68 65 57 54 50 51 44 44 37 34 32 34 39 41
78 75 76 77 72 82 97 97 97 92 81 63 61 57 56 57 51 53 60 62 68 73 88 86 78 74 69 62 67 72 71 62 58 58 53 51 54 45 45 39 35 32 35 41 42
78 72 74 72 77 86 97 96 98 96 79 72 82 68 56 53 50 56 61 71 69 71 79 84 76 68 64 59 61 61 63 68 64 60 55 53 54 55 51 43 41 37 32 35 43
77 68 74 70 70 73 94 96 98 96 88 82 86 68 66 58 43 53 62 70 79 75 73 79 77 68 67 64 62 62 62 60 58 57 58 53 56 57 51 44 36 32 29 31 41
82 77 67 59 61 66 83 95 96 96 94 86 87 78 72 64 60 66 69 75 80 74 79 82 80 70 70 65 64 63 53 54 54 52 54 54 51 59 53 39 32 28 31 37 44

GFSSW_prec_cthk_006.txt.gz
RH
18 23 28 33 32 31 29 30 35 40 43 51 54 56 59 58 58 55 50 48 45 41 40 38 40 40 42 49 51 55 55 52 48 47 44 41 41 37 36 27 25 30 32 39 35
21 26 30 34 36 35 35 34 33 36 42 48 55 56 60 57 60 58 50 53 52 48 42 41 43 42 41 47 52 54 54 45 46 45 45 46 44 36 36 37 25 28 30 37 35
22 26 31 38 38 37 37 37 38 38 38 40 46 58 60 61 64 54 54 49 48 49 47 46 45 49 45 46 51 54 50 45 43 45 45 48 46 40 36 36 32 28 32 37 35
20 25 31 39 41 41 44 46 47 47 46 46 45 46 54 59 59 59 53 50 48 51 53 52 49 50 52 50 50 53 50 50 45 51 55 49 44 41 37 34 40 31 32 32 32
23 23 29 40 45 47 49 50 50 51 50 49 53 52 51 54 56 59 53 49 49 48 52 55 57 52 53 56 58 52 53 53 50 49 52 54 47 42 39 34 36 39 27 27 31
25 21 25 37 46 50 54 55 54 55 55 55 58 61 62 60 55 55 59 55 54 57 56 59 60 56 52 57 61 61 56 54 54 52 52 54 48 46 38 37 34 43 31 26 27
28 23 22 30 43 50 55 56 57 58 56 57 60 62 66 61 60 60 61 61 57 55 58 64 61 65 61 58 62 64 70 61 53 54 56 57 50 45 39 40 35 39 38 22 21
29 29 22 27 38 45 54 65 59 62 62 61 58 64 66 61 60 60 58 55 54 53 53 57 63 63 65 68 65 67 70 74 47 55 54 60 53 45 43 42 37 31 34 33 23
34 34 31 27 32 39 53 62 62 65 65 67 60 66 66 61 61 61 65 61 58 56 55 51 56 58 69 68 76 71 70 64 59 55 60 56 53 46 43 43 38 32 32 33 31
39 39 41 28 31 34 44 58 65 63 67 71 71 72 64 68 68 65 64 66 65 62 61 63 62 59 57 67 64 64 74 62 61 53 58 54 58 50 46 42 38 34 32 31 35
42 37 45 36 34 38 44 50 56 62 68 68 69 69 73 73 71 69 65 68 68 67 66 66 71 62 51 50 51 59 64 72 61 62 62 57 58 54 50 44 39 37 35 34 31
44 39 43 40 40 43 46 50 60 66 69 73 74 78 78 81 76 73 73 74 72 69 69 75 74 49 52 54 62 59 72 73 66 68 65 59 58 52 49 43 40 39 37 36 33
43 42 43 43 47 50 47 55 66 67 73 71 73 79 83 85 82 82 82 81 76 74 73 73 48 61 66 62 67 61 67 72 65 67 68 63 61 54 45 41 40 39 38 35 34
46 47 44 46 52 51 53 57 60 69 75 68 73 80 87 89 87 88 89 89 84 73 77 80 61 65 64 63 60 61 46 66 77 82 78 62 65 50 43 43 42 39 41 34 33
51 51 48 49 59 62 54 58 62 74 79 70 82 85 87 91 90 86 89 92 86 80 83 76 65 63 62 58 57 51 50 62 75 94 81 69 70 46 45 45 39 38 41 36 37
63 54 56 59 62 64 58 58 67 80 78 78 89 90 90 90 94 93 86 91 87 89 84 72 76 74 67 63 63 52 56 68 96 96 91 78 69 51 50 40 42 38 37 37 39
71 60 63 66 67 60 60 66 77 76 68 93 94 92 91 94 93 96 91 88 85 88 89 90 75 82 86 90 81 73 68 94 99 98 88 68 68 50 44 43 38 37 37 38 40
71 65 68 74 76 70 65 73 76 56 81 94 96 96 96 94 96 96 93 89 81 82 90 86 74 73 75 85 83 79 83 99 93 94 71 56 64 56 50 41 38 35 36 36 37
75 68 72 82 80 74 68 75 60 78 92 97 97 96 86 93 97 93 86 95 79 77 98 97 87 79 75 84 91 87 96 89 98 61 64 57 53 46 46 41 40 36 37 39 38
77 73 75 88 85 78 73 70 68 87 96 97 96 69 77 88 88 83 76 72 80 84 85 89 97 81 88 94 84 86 81 98 93 67 71 63 54 48 45 39 36 35 37 40 40
76 75 75 89 86 79 75 66 82 93 96 97 71 64 67 76 73 62 61 69 72 74 85 96 97 95 92 88 88 98 98 95 89 70 63 68 62 49 41 42 38 36 36 38 40
76 77 77 85 85 77 77 71 94 95 96 95 68 63 56 73 69 70 75 80 69 76 88 96 98 98 86 78 88 91 91 90 74 71 61 61 58 45 44 40 38 36 36 38 40
76 78 81 83 81 80 74 88 96 97 96 90 57 49 55 58 64 64 75 72 73 82 88 96 98 95 91 96 95 96 90 76 74 65 66 59 60 52 47 41 39 36 35 38 41
77 82 83 83 81 81 78 90 97 96 95 81 55 52 56 57 58 82 67 71 71 72 84 97 95 98 93 78 72 87 81 71 72 68 59 59 54 49 50 43 39 35 37 40 41
77 76 77 83 82 77 84 90 97 98 93 80 59 53 56 59 61 57 70 67 71 73 83 96 97 90 74 68 73 77 75 71 67 62 61 57 55 50 50 46 45 43 39 38 41
79 75 80 83 82 79 74 80 97 97 97 84 69 66 63 55 54 53 58 68 66 78 82 88 91 79 72 70 70 70 69 66 65 64 59 58 57 56 51 48 49 47 41 42 36
76 75 80 82 81 76 72 76 95 97 96 91 78 72 71 61 63 56 61 61 75 75 78 84 85 76 72 64 63 63 61 60 60 58 58 59 57 59 56 59 52 45 38 31 32

GFSSW_prec_cthk_009.txt.gz
RH
16 17 20 26 30 31 30 28 28 31 40 43 46 48 49 51 51 50 44 45 42 39 35 33 34 35 36 38 45 48 52 47 44 47 43 46 46 41 35 35 29 27 31 39 39
17 19 23 27 30 33 34 33 32 31 34 42 47 57 57 54 57 53 47 47 48 46 44 39 37 41 42 40 45 49 50 44 40 41 44 46 48 44 38 35 36 27 28 39 38
19 18 23 26 32 35 34 34 34 35 35 34 40 49 57 60 60 52 49 50 50 50 47 45 44 45 47 44 45 44 46 42 39 41 43 48 50 48 42 38 34 37 30 37 37
23 19 21 25 33 36 40 42 41 43 43 42 41 39 43 59 62 55 51 51 52 55 56 50 48 50 51 52 43 50 43 45 41 42 42 45 51 46 43 39 36 36 35 33 35
25 23 20 23 33 38 43 46 46 45 46 46 48 49 53 53 57 58 53 51 50 49 49 55 55 54 52 52 51 50 46 47 39 39 41 46 48 48 44 40 39 34 36 34 30
28 28 22 21 28 37 44 48 48 46 47 49 50 53 57 58 49 51 55 56 56 55 55 54 56 57 57 54 55 55 53 46 45 43 44 48 47 47 44 43 39 37 32 36 35
32 28 26 21 24 32 41 48 53 48 47 49 49 53 58 54 53 57 61 60 59 56 56 59 59 64 62 56 52 54 54 51 45 43 45 53 50 44 43 44 41 38 35 36 36
39 34 29 26 22 28 35 45 51 57 55 53 51 52 55 52 50 56 60 62 60 59 60 60 63 59 63 63 56 58 57 59 54 50 42 56 49 45 43 47 45 41 38 33 32
41 40 33 34 26 29 31 40 47 52 57 57 53 52 50 49 48 51 57 60 57 56 58 54 57 62 62 68 68 68 66 67 60 54 59 55 46 45 45 49 48 41 39 33 30
40 41 40 40 33 32 33 38 44 53 55 56 53 56 50 53 53 55 62 65 64 63 63 59 55 56 61 72 72 67 70 61 64 53 63 61 50 45 45 49 48 42 38 36 31
52 51 40 41 40 35 38 40 44 47 50 50 51 48 50 54 60 64 65 72 73 71 70 63 65 65 62 59 64 62 61 62 54 58 66 56 54 46 45 52 49 45 41 37 34
52 54 51 40 41 39 45 46 42 46 52 55 54 56 56 62 67 70 74 75 75 76 76 72 64 66 60 58 59 59 66 60 59 65 73 64 59 49 49 49 50 46 43 39 36
49 55 55 48 40 45 48 51 50 53 57 54 48 53 59 67 75 80 81 80 80 83 80 72 65 65 68 67 67 64 66 60 59 61 72 77 71 55 49 50 52 48 46 40 38
58 59 56 48 45 46 52 51 55 58 59 53 56 61 67 78 80 85 84 85 88 86 87 77 73 68 74 71 68 68 54 57 60 68 77 78 79 56 47 47 52 49 44 41 40
62 62 57 48 54 50 53 56 59 58 63 56 62 63 75 83 82 82 87 92 90 87 91 80 74 75 74 58 75 61 60 62 65 68 81 81 89 53 55 52 49 48 43 39 39
69 65 63 53 63 61 60 59 63 63 65 63 60 72 84 89 90 88 90 94 97 97 94 86 83 80 68 65 68 65 69 69 71 76 94 79 90 65 52 46 41 47 44 39 39
78 71 68 64 71 64 63 60 69 66 53 65 69 84 89 91 89 85 93 96 98 99 97 92 85 81 80 77 68 77 80 83 92 90 74 76 95 79 54 48 44 42 42 40 40
92 83 76 72 74 65 63 69 69 54 58 60 79 88 96 87 79 83 93 98 96 95 93 93 80 76 69 70 69 67 75 78 87 66 54 71 95 69 55 46 48 45 43 42 42
98 91 71 78 81 69 70 70 61 62 58 77 94 97 91 76 80 88 92 97 84 83 80 84 78 68 65 65 76 68 76 50 88 71 74 81 88 72 61 54 47 42 42 40 39
99 79 80 86 83 78 73 64 67 61 68 93 97 93 73 73 82 88 83 79 78 72 75 83 91 85 88 84 82 74 54 75 90 84 80 74 73 67 56 48 44 42 41 41 41
95 78 91 87 84 81 71 74 74 64 81 96 96 89 70 74 77 75 64 62 66 73 86 92 96 87 96 82 76 93 87 66 72 90 97 97 72 59 50 45 43 41 37 38 39
96 76 90 91 83 73 76 78 74 76 92 95 95 85 68 72 74 67 57 55 76 80 88 94 98 97 88 87 77 87 93 63 70 81 97 70 59 53 50 44 42 40 39 39 39
98 87 90 88 79 75 77 82 74 89 96 96 94 74 60 64 76 62 56 62 69 88 96 97 98 97 97 98 94 85 79 78 64 86 94 68 61 53 53 45 40 39 41 42 41
90 98 92 86 73 75 82 84 81 95 96 96 90 72 61 61 63 67 63 67 79 83 93 97 98 99 95 80 74 81 82 87 97 97 68 60 55 52 48 44 42 41 41 39 41
94 96 78 78 75 78 83 83 86 97 96 96 86 70 60 56 63 66 66 68 81 82 93 96 97 96 89 86 79 75 88 94 98 84 63 62 61 54 49 46 41 41 42 42 42
85 90 83 79 77 89 86 82 88 96 97 95 92 67 64 61 57 58 65 69 72 87 88 93 98 98 89 91 89 88 91 90 81 70 65 62 56 52 49 47 49 49 47 44 44
85 75 76 76 78 90 88 76 64 92 95 94 90 83 72 59 60 56 64 67 70 77 83 92 96 93 87 83 88 86 78 74 71 67 63 66 59 55 54 52 52 52 51 48 37

GFSSW_prec_cthk_012.txt.gz
RH
20 18 19 21 25 29 30 31 29 27 32 36 38 43 47 47 48 46 44 45 41 37 35 30 31 35 35 34 40 43 49 47 39 37 37 45 46 44 41 38 37 32 30 33 38
25 20 21 23 27 30 32 31 32 30 29 39 43 45 50 49 50 43 45 50 48 45 43 40 34 33 36 37 40 46 49 42 33 31 32 44 49 47 42 41 38 37 32 33 35
30 25 20 23 27 31 32 32 31 32 32 30 37 43 51 56 58 50 50 47 50 48 49 45 42 41 41 39 41 44 46 41 35 33 32 36 45 49 45 42 41 38 38 35 34
34 28 23 21 25 30 33 37 37 39 39 36 34 34 44 49 52 50 52 52 52 58 57 52 47 45 47 46 43 45 40 44 40 37 37 38 40 45 45 42 44 40 38 41 37
37 30 26 21 23 29 33 39 40 42 42 41 40 41 40 45 49 53 53 51 51 56 56 53 53 52 46 45 45 48 43 41 42 40 41 40 40 43 42 46 47 43 39 37 41
38 36 31 25 22 27 32 38 43 44 42 42 42 44 48 50 45 49 54 58 57 56 56 53 50 51 53 49 48 46 47 47 45 41 42 42 39 44 40 43 47 45 40 38 35
38 40 38 29 23 25 29 35 44 48 44 41 42 44 48 44 45 44 49 55 58 60 57 57 55 61 61 57 52 52 52 51 47 46 48 48 42 39 39 41 42 45 42 36 36
39 39 42 33 28 25 28 33 38 50 48 48 46 46 44 41 43 46 48 51 53 58 60 64 65 63 64 64 63 61 57 59 47 50 49 53 40 37 40 40 40 45 43 38 38
48 48 43 40 35 28 33 32 35 40 47 49 49 49 43 39 39 41 48 50 52 55 57 65 67 64 65 68 69 69 67 60 56 50 56 55 39 38 41 41 40 42 45 43 40
48 52 51 44 40 34 37 36 38 40 47 50 48 46 39 39 42 43 48 52 55 56 56 62 66 66 66 70 67 65 63 58 56 59 58 54 46 48 43 41 41 43 44 44 41
47 50 55 54 49 40 40 41 42 42 44 42 42 40 39 43 43 45 48 54 59 62 66 66 69 64 60 61 65 65 64 60 61 63 60 60 55 55 52 44 40 42 41 44 40
54 54 56 56 56 50 41 43 42 41 42 42 44 46 49 53 52 51 52 58 62 68 72 76 73 65 64 60 61 61 66 64 61 62 63 62 60 58 49 45 46 44 45 46 42
64 58 58 60 57 53 45 46 46 47 48 46 44 50 52 55 59 59 61 66 71 74 78 80 68 63 67 68 70 64 64 62 61 53 55 63 53 55 49 48 47 45 46 47 46
75 60 65 62 58 53 51 53 53 52 54 46 49 53 56 60 63 65 69 73 80 80 86 84 76 71 71 74 73 71 65 64 63 67 68 64 65 55 52 48 47 44 47 46 47
89 75 69 62 55 49 52 57 58 58 50 47 55 59 61 61 64 68 76 82 87 86 89 84 78 81 77 73 77 74 71 69 69 72 77 60 78 51 53 50 44 38 43 43 50
99 96 72 67 53 52 57 63 67 66 55 55 58 62 65 68 71 77 84 89 90 90 85 84 85 85 77 76 74 81 83 82 81 81 85 53 68 49 50 44 43 43 43 46 51
99 96 78 69 55 59 68 72 69 70 49 61 62 66 63 71 79 86 85 81 83 87 89 97 93 89 87 88 83 82 87 94 97 92 73 57 67 48 43 44 40 44 43 46 52
98 95 92 71 64 69 75 71 74 53 55 60 65 65 71 78 88 70 72 76 81 91 98 96 95 92 80 80 84 84 81 87 92 90 66 65 70 51 38 43 47 46 47 52 51
95 92 98 86 74 70 73 75 63 54 58 66 66 73 85 89 70 68 76 76 77 84 93 96 92 78 73 75 81 83 93 64 85 82 87 67 60 44 42 48 48 46 46 44 48
93 95 86 88 80 77 79 73 65 62 72 69 69 80 89 78 67 76 77 64 71 76 81 73 77 65 69 76 76 74 69 90 87 93 78 69 69 49 41 51 51 49 50 49 50
99 94 97 93 85 82 80 75 70 74 73 70 78 93 87 67 65 67 60 55 59 64 73 81 87 87 88 83 81 86 88 81 67 70 88 70 62 35 44 53 55 57 54 50 50
99 99 96 96 93 80 86 75 76 79 75 74 87 95 78 61 67 69 61 55 56 65 86 84 97 96 88 85 90 81 71 71 76 63 64 94 71 43 35 45 60 64 55 52 50
98 98 99 93 91 83 84 74 78 82 78 88 95 94 71 62 68 67 64 56 65 79 88 96 97 97 93 94 88 95 75 69 73 63 68 98 76 60 61 63 59 55 47 45 45
94 99 97 89 98 92 80 73 79 84 83 92 96 91 73 67 62 66 67 65 74 81 91 97 97 96 90 98 86 84 79 73 80 73 71 79 84 73 65 58 55 51 48 46 46
96 96 77 85 87 88 79 73 82 86 91 96 97 86 77 65 61 68 70 75 81 87 96 98 98 98 96 91 97 96 84 90 92 75 72 65 78 69 65 53 49 47 46 46 47
97 97 88 79 84 89 77 77 82 87 93 97 98 87 78 66 55 59 64 72 82 91 96 97 97 98 93 89 91 84 82 81 87 92 89 89 92 71 57 50 47 49 49 49 49
96 95 90 91 89 83 81 83 85 81 86 95 95 90 80 66 60 61 66 73 78 84 95 97 99 99 98 90 96 97 88 89 96 96 95 97 80 58 53 52 53 54 53 48 44

GFSSW_prec_cthk_015.txt.gz
RH
35 28 21 21 22 26 29 30 31 30 31 35 38 39 46 44 42 43 39 38 37 36 33 30 31 33 35 32 36 40 48 43 36 34 28 36 40 44 42 39 38 38 37 34 34
39 33 27 21 24 28 31 31 33 33 31 36 42 44 48 51 49 49 42 43 42 41 40 40 37 31 34 37 37 44 47 40 34 33 30 35 40 46 46 45 42 41 40 36 32
40 36 32 26 27 28 32 32 34 34 34 31 42 43 45 49 50 46 51 46 45 44 41 42 43 42 37 36 40 44 43 39 37 36 35 35 38 42 45 46 45 44 43 40 37
40 39 36 32 27 29 32 34 38 40 41 37 33 37 44 47 50 45 46 47 49 51 51 49 48 47 47 45 40 44 39 42 42 41 42 39 37 40 42 41 47 47 46 43 42
39 40 40 35 27 30 32 35 40 43 44 44 42 40 39 46 47 45 45 47 48 52 56 61 58 56 53 49 45 49 43 42 42 42 44 44 40 41 40 41 44 48 47 45 43
33 45 40 39 34 27 33 34 40 44 46 47 45 45 45 44 37 43 47 48 49 53 57 59 55 54 56 53 51 47 47 45 45 43 43 44 41 40 35 39 38 42 48 47 45
39 44 44 42 40 31 32 34 39 43 47 47 45 44 46 41 39 39 46 48 49 51 51 53 54 58 63 59 55 53 51 46 46 44 45 44 39 37 34 35 36 38 44 48 47
45 46 43 47 43 35 29 34 38 44 48 50 48 48 45 40 38 40 40 46 48 51 51 50 57 58 63 66 65 64 61 58 43 43 47 49 37 39 34 32 33 35 38 44 47
57 51 49 50 45 39 34 36 37 40 46 49 50 48 46 45 40 39 40 42 45 49 51 55 57 60 59 66 69 66 67 65 58 51 51 52 42 39 37 39 32 31 34 37 43
71 57 60 55 56 46 36 45 43 40 44 50 50 48 41 38 38 38 38 44 46 49 52 53 58 61 64 67 65 68 76 67 63 56 57 55 48 49 46 45 40 35 32 34 37
80 72 65 64 55 56 47 49 46 45 46 46 45 43 41 42 41 41 40 44 47 49 53 52 60 63 62 67 68 71 72 73 65 61 60 55 52 48 46 44 42 36 36 34 37
76 82 77 62 70 60 56 52 45 44 46 46 47 46 44 44 44 46 46 49 52 56 57 60 60 56 59 64 67 68 72 68 64 61 60 55 48 47 46 42 42 39 35 33 36
59 85 84 78 66 67 59 55 53 51 48 42 44 48 49 50 51 50 51 52 55 60 61 61 54 57 62 65 70 71 74 70 66 58 55 56 42 36 35 38 38 36 35 32 34
60 82 92 86 79 68 62 60 57 59 61 48 49 49 48 53 52 50 54 57 62 66 70 68 62 67 69 70 75 74 73 72 71 72 72 54 46 35 35 33 32 35 36 35 35
89 88 98 86 71 73 58 63 63 65 63 49 55 55 56 57 55 57 61 64 66 70 74 70 71 73 75 72 76 76 75 76 77 80 76 64 74 46 37 34 36 40 38 36 37
97 99 99 99 81 71 68 64 69 67 62 61 60 60 61 60 60 61 66 70 74 80 80 77 76 77 74 74 79 83 86 87 88 86 81 64 69 38 33 36 34 37 40 37 38
89 98 98 96 86 70 64 69 74 69 52 60 58 62 62 64 64 69 72 76 81 86 80 78 75 73 75 76 80 87 95 98 98 98 82 66 67 43 34 35 31 32 37 39 36
81 96 98 98 94 75 64 72 70 52 58 58 61 68 67 63 65 72 77 76 69 75 79 79 76 77 77 77 85 89 88 94 94 91 81 64 63 42 34 28 24 33 36 41 39
81 99 98 99 97 88 68 75 62 51 57 63 67 72 67 66 71 80 70 60 57 64 76 82 81 73 80 85 89 98 97 73 87 83 97 81 58 47 36 35 32 34 39 39 41
78 97 98 99 94 91 75 66 59 56 61 65 70 65 67 71 82 70 55 51 60 59 69 72 80 67 72 73 77 80 80 97 98 96 92 67 72 57 44 36 30 33 39 43 43
96 98 98 98 95 94 73 67 61 63 69 73 71 70 73 83 76 55 54 48 51 55 64 75 79 75 77 71 66 76 76 82 88 88 83 73 51 49 46 42 42 44 44 45 48
91 98 98 99 98 89 73 65 65 75 79 78 73 72 80 88 72 60 56 53 51 60 74 78 88 90 80 79 83 84 76 80 94 80 69 76 57 44 52 43 43 52 54 54 57
94 96 99 97 91 85 77 70 78 81 84 79 76 78 93 88 71 58 57 52 54 60 75 87 96 96 95 94 96 98 94 86 71 84 76 67 36 44 63 63 65 69 64 68 62
95 98 98 98 94 85 73 79 86 82 83 82 84 89 96 87 70 57 61 58 61 74 83 93 97 97 93 96 97 96 89 78 73 75 61 59 53 56 67 71 72 78 70 70 61
92 98 92 91 92 90 87 83 85 79 87 88 87 96 97 79 74 63 64 73 81 84 90 97 97 98 97 97 98 98 84 70 62 49 62 51 71 67 79 69 70 75 71 59 54
98 98 92 91 88 90 93 90 79 80 90 91 94 95 96 79 65 57 62 73 81 90 94 97 97 98 94 93 94 90 87 77 63 58 63 68 72 72 69 73 66 62 63 59 54
97 94 91 93 83 91 89 90 82 85 87 88 95 98 95 82 68 61 65 74 84 86 97 98 98 98 98 98 94 93 84 81 78 78 80 84 69 70 69 62 58 57 57 54 53

GFSSW_prec_cthk_018.txt.gz
RH
42 38 34 31 21 22 24 28 30 32 31 32 36 36 36 45 43 43 38 33 32 29 29 29 31 32 32 32 34 41 48 45 38 36 29 31 36 39 41 43 42 40 40 39 39
47 42 38 34 28 23 26 29 32 34 34 33 39 43 44 49 51 47 44 40 38 37 37 38 34 30 32 36 38 43 49 40 35 32 31 32 36 40 42 46 46 44 42 41 40
44 46 42 38 35 25 26 30 32 34 35 35 38 47 48 52 52 47 46 47 50 44 43 44 42 40 38 36 38 44 43 38 36 36 36 35 35 39 40 42 44 49 47 45 44
38 50 41 41 41 31 27 31 32 37 41 42 38 42 48 51 51 46 45 48 51 56 56 51 47 43 44 43 41 42 37 38 38 37 38 38 38 40 39 37 42 45 49 47 45
51 41 50 46 42 37 30 31 34 38 43 46 46 44 44 50 49 46 45 47 49 56 62 59 56 55 51 49 47 49 43 40 37 37 36 38 39 40 38 38 39 42 46 49 47
63 56 51 50 46 41 33 32 34 39 42 47 49 50 48 49 43 46 48 47 51 56 59 59 61 61 59 57 54 50 47 45 43 39 38 39 36 39 30 36 37 37 41 46 49
75 66 55 58 46 44 40 33 35 38 42 46 50 50 50 46 45 44 49 48 50 55 61 62 61 55 55 56 53 53 53 50 45 39 40 40 37 35 30 30 32 33 36 40 43
82 73 64 60 58 49 44 36 37 41 44 47 50 53 48 43 42 44 46 48 48 49 50 50 52 54 55 54 57 59 59 60 49 44 41 41 35 32 34 33 29 30 31 33 35
62 82 75 62 70 57 49 39 39 43 49 49 50 53 51 47 46 44 44 43 47 47 48 49 50 51 52 55 57 55 60 61 60 54 52 51 46 38 37 35 34 33 31 31 30
46 74 84 78 73 69 59 46 50 47 45 50 48 50 45 42 40 41 44 44 43 44 48 50 52 55 56 58 60 56 61 59 59 58 57 54 53 45 42 40 37 35 31 32 31
39 53 60 78 79 78 67 60 57 55 47 46 46 43 39 41 40 39 39 43 45 47 51 50 54 57 56 56 56 60 63 66 62 59 61 57 50 44 41 39 38 34 33 32 30
29 41 76 86 88 83 71 60 58 48 46 45 45 44 43 44 44 44 42 43 49 52 51 53 53 50 51 57 59 60 62 63 59 58 56 51 44 43 39 36 35 35 33 32 31
29 36 81 88 95 88 76 63 58 55 51 42 43 46 46 48 49 47 48 49 53 57 58 55 48 47 53 57 62 63 66 66 63 58 55 55 37 33 29 27 27 27 29 29 30
39 27 65 97 99 92 82 80 62 58 61 50 49 45 46 52 50 48 49 51 57 57 60 60 52 56 59 63 66 68 63 67 69 74 71 58 51 34 32 30 26 24 25 27 28
43 26 65 98 99 95 81 84 66 60 72 53 58 57 56 51 50 52 54 58 59 62 63 58 60 61 67 64 72 71 71 76 78 82 81 70 78 43 37 35 31 28 27 29 28
43 40 57 96 99 98 93 82 69 68 69 61 60 62 64 59 58 60 61 62 64 63 62 59 64 69 69 71 76 81 84 87 90 90 87 66 77 39 36 31 29 28 25 26 31
52 78 62 77 98 98 96 87 77 75 55 61 59 60 62 64 63 62 65 69 68 72 73 73 72 73 73 74 77 82 91 91 94 93 76 66 73 44 36 34 33 31 28 25 30
65 76 91 86 99 98 93 84 77 58 60 58 58 60 61 60 64 68 68 68 73 76 75 73 66 62 64 64 71 81 85 95 95 90 81 68 67 49 38 35 34 30 27 26 31
68 87 97 91 99 97 93 89 66 55 56 58 62 62 65 65 65 65 67 68 60 61 65 65 59 56 60 65 74 84 88 73 93 91 97 74 56 40 40 36 37 32 28 27 31
74 83 91 96 99 97 89 81 58 55 59 59 60 57 65 65 67 70 67 52 49 49 57 59 68 57 61 66 63 74 85 96 97 97 93 72 58 51 44 51 48 41 37 28 32
74 84 90 90 98 98 89 79 57 62 59 60 61 64 62 67 69 70 68 48 45 49 59 66 73 72 73 74 73 83 79 81 84 94 92 80 51 38 47 54 50 44 38 35 36
82 86 92 98 98 97 89 79 65 65 65 63 62 65 69 71 74 80 75 49 47 53 60 64 80 86 78 77 80 83 83 83 86 74 74 73 49 45 53 50 56 57 49 39 43
89 89 94 97 96 88 85 84 68 69 68 68 74 73 72 75 82 86 68 47 52 57 63 68 87 94 89 88 89 97 91 89 86 89 76 72 50 37 43 57 71 69 63 58 55
91 93 99 98 96 89 87 75 72 71 78 79 82 78 79 83 90 83 68 55 57 66 79 85 94 95 95 91 97 98 97 98 98 95 71 61 52 50 52 65 77 77 78 70 68
97 95 94 91 91 89 87 78 76 84 81 84 87 79 87 96 94 86 68 57 68 80 90 94 95 97 96 97 98 98 95 93 88 76 74 52 53 50 56 69 82 82 86 79 75
98 99 95 91 92 91 89 80 85 87 84 84 84 85 94 97 88 71 66 60 69 84 93 94 94 98 96 94 98 94 86 78 74 71 65 63 54 59 66 75 81 87 80 75 74
97 98 95 94 94 93 87 88 87 82 76 76 85 94 97 96 89 73 65 64 78 81 90 97 98 97 89 96 98 98 86 80 77 73 68 78 67 71 80 87 88 83 76 71 69

GFSSW_prec_cthk_021.txt.gz
RH
50 44 49 42 38 32 24 25 28 30 31 32 31 35 35 35 44 44 39 31 29 29 29 31 30 31 30 31 34 37 43 41 34 33 29 30 33 35 35 38 41 41 40 40 41
50 41 56 49 45 37 29 26 29 32 33 34 34 40 41 44 48 46 44 42 38 36 34 33 30 30 32 35 36 40 44 37 32 31 32 31 32 34 36 36 40 41 41 42 41
51 49 44 57 49 40 37 26 29 32 33 35 34 41 46 49 51 46 48 45 45 49 42 41 40 38 33 33 38 42 39 35 34 34 34 34 33 34 35 36 35 40 40 42 42
66 59 52 48 54 47 41 30 29 32 37 38 37 38 49 51 53 48 47 47 51 61 57 49 44 42 42 40 39 41 36 37 36 35 36 35 35 35 34 29 33 38 40 42 44
64 59 68 53 65 54 45 37 29 35 39 42 43 43 46 53 51 50 49 50 51 54 61 60 53 46 45 44 44 46 40 38 36 35 33 34 32 32 31 29 33 37 39 39 42
55 46 58 68 57 66 50 42 33 37 40 43 45 48 50 52 48 48 50 50 52 55 63 62 63 58 56 55 54 50 49 46 43 40 37 34 30 35 24 25 27 30 35 36 38
26 48 67 72 65 66 56 46 37 39 42 43 45 48 52 49 46 45 49 53 54 55 57 64 62 61 61 61 58 56 54 48 45 43 41 38 36 35 26 28 26 26 28 31 34
22 35 64 75 76 70 71 54 44 45 50 44 44 47 50 48 47 48 50 53 55 59 58 62 64 63 61 56 56 57 56 52 47 48 44 41 34 30 29 30 30 28 26 27 28
26 24 62 75 79 80 73 67 51 47 51 51 47 46 49 51 50 46 48 52 53 54 53 53 54 54 53 55 55 54 55 56 48 45 49 50 48 39 36 34 32 30 30 29 29
32 25 37 72 81 85 83 75 63 49 55 59 50 47 43 46 47 48 49 52 54 55 55 52 51 50 50 52 54 53 57 53 50 46 48 48 46 41 39 37 34 33 32 30 30
41 36 23 53 88 89 86 78 71 61 54 47 48 46 41 42 42 44 45 50 50 48 51 51 53 52 49 50 49 52 55 56 54 50 50 45 40 38 35 35 33 31 28 28 28
57 46 29 27 79 98 94 79 66 52 53 46 51 50 46 44 44 46 43 47 48 50 51 52 53 48 49 49 52 54 57 54 52 50 50 45 35 33 31 29 29 28 28 27 26
55 54 40 24 81 98 92 89 72 63 55 46 45 49 49 47 46 46 46 47 48 51 51 52 47 46 52 55 56 56 60 58 56 55 52 50 36 26 24 25 26 27 27 27 25
66 59 42 29 57 98 97 97 80 70 62 52 48 46 50 51 49 46 47 47 52 52 51 51 50 52 56 57 58 62 58 60 62 66 61 53 46 28 26 25 27 26 26 26 26
83 68 48 34 45 96 97 97 91 76 61 54 59 57 53 52 45 51 51 52 55 53 54 53 55 59 60 57 61 61 59 63 68 74 71 63 72 34 34 31 29 31 29 27 25
93 73 50 39 66 96 98 97 91 84 70 62 61 62 60 59 56 56 56 58 58 59 58 57 58 59 60 61 65 68 72 75 80 82 81 62 72 37 34 33 29 30 31 30 26
95 93 59 46 84 98 98 98 95 83 61 63 60 65 63 62 61 62 66 66 64 68 67 64 62 63 59 60 61 67 78 83 84 87 72 62 73 39 35 35 35 31 31 31 29
89 93 68 54 86 97 99 98 93 70 64 60 58 63 64 62 63 65 65 67 64 65 71 70 57 53 54 51 54 61 63 68 75 75 66 70 70 43 35 34 31 31 32 32 30
93 82 66 71 95 98 98 97 86 67 59 60 64 64 64 62 62 61 63 62 60 70 72 62 55 51 54 59 65 77 76 67 80 70 84 59 47 39 33 34 40 43 40 40 34
90 88 74 82 96 98 98 94 80 69 60 57 64 63 65 64 67 66 63 58 62 59 53 56 61 50 55 65 69 79 77 84 90 87 79 61 61 46 39 44 50 51 44 42 39
78 90 88 90 90 98 98 91 82 76 64 58 58 62 59 63 65 67 65 56 57 54 51 56 58 55 62 68 73 91 92 96 96 94 88 74 50 38 39 41 45 49 49 46 43
92 90 87 91 98 98 97 87 82 77 68 61 61 60 64 65 70 67 70 67 60 56 55 53 64 68 64 66 75 82 85 89 97 83 91 93 57 47 49 50 57 48 50 56 52
91 96 91 86 97 98 94 87 83 80 67 61 62 60 63 68 73 71 73 70 67 54 56 61 78 84 75 82 85 94 90 92 96 95 93 95 58 52 54 49 49 55 61 69 59
96 98 97 97 96 94 88 90 90 77 67 63 68 66 72 74 71 75 80 74 65 56 60 76 86 86 80 81 94 98 94 97 98 96 81 79 67 61 58 48 55 61 66 76 67
97 95 98 97 95 89 86 85 89 74 69 71 79 79 79 81 81 84 85 78 66 63 76 84 88 93 89 88 93 98 92 89 85 77 83 64 61 52 54 54 60 63 78 79 75
97 98 93 93 93 87 87 80 74 76 77 85 85 80 81 83 87 88 75 72 68 68 82 88 90 95 91 92 97 96 94 83 73 72 70 67 57 59 58 62 71 79 85 86 81
98 96 95 92 91 84 86 83 75 84 86 82 81 82 84 86 88 86 76 68 69 78 84 90 96 96 87 88 97 97 93 82 70 70 69 76 61 66 68 78 88 97 91 84 84

GFSSW_prec_cthk_024.txt.gz
RH
59 50 63 53 52 46 39 32 26 27 28 30 30 31 35 32 35 42 38 38 29 29 30 29 31 32 29 30 32 33 33 31 27 26 25 27 27 29 29 31 34 35 37 37 39
51 56 55 57 64 53 46 37 28 27 30 32 32 35 40 40 43 44 44 44 37 32 32 31 32 33 34 34 35 34 34 28 28 28 28 29 29 30 30 31 32 36 36 37 39
49 44 49 55 55 68 51 43 35 27 31 33 34 37 42 47 50 45 48 46 44 43 37 33 33 33 35 37 36 38 35 31 33 31 31 31 30 31 30 30 31 35 37 35 37
32 39 41 54 55 62 58 49 41 29 31 35 37 36 45 49 52 45 44 45 48 55 50 42 42 41 38 34 36 37 33 35 33 35 35 33 32 31 30 26 30 33 35 35 35
18 29 55 63 61 59 68 53 47 33 34 37 41 40 47 51 52 49 48 48 48 63 60 54 49 46 43 41 42 39 33 35 35 34 32 33 31 32 30 25 27 29 33 34 35
22 26 42 62 59 62 67 69 54 41 36 40 42 47 49 50 50 52 53 51 55 59 64 61 61 56 48 46 45 42 40 38 37 35 36 34 29 32 22 23 24 25 26 31 34
25 26 22 34 59 55 66 77 61 51 37 42 44 47 53 50 46 49 52 55 57 64 63 64 64 65 62 57 55 51 48 43 41 40 39 40 34 32 24 28 25 23 22 26 31
33 31 23 26 49 74 75 80 71 57 43 44 44 46 50 47 48 50 54 60 62 63 69 66 64 68 63 59 56 52 49 46 42 42 41 42 31 30 29 28 28 27 26 25 25
33 35 28 23 38 74 83 80 83 63 54 51 48 48 48 50 50 50 58 62 62 64 65 65 67 63 64 62 56 52 44 46 44 41 41 43 39 37 37 34 32 29 29 29 26
39 44 39 33 27 70 88 89 88 75 65 61 55 49 46 49 52 53 57 62 63 61 61 60 56 54 52 53 46 43 47 42 40 39 40 39 38 36 35 36 34 33 31 30 28
57 54 48 37 27 68 98 99 87 82 65 61 50 47 45 46 50 56 59 63 66 64 62 60 57 48 43 44 44 45 46 44 41 42 41 34 32 31 30 29 30 31 31 29 27
78 69 54 42 34 53 98 97 79 73 72 58 52 52 49 48 50 50 53 54 56 58 59 55 52 43 44 44 45 47 48 46 41 40 42 36 26 28 26 24 25 24 24 26 27
81 82 69 47 39 57 96 98 96 86 73 63 52 53 54 50 49 49 49 50 50 51 50 46 44 42 45 47 49 47 49 48 48 47 45 42 27 21 20 20 21 22 23 23 25
88 94 91 52 40 57 87 97 98 91 89 70 58 50 53 53 50 49 49 50 51 49 49 49 47 48 48 49 49 49 45 48 51 54 54 45 39 25 24 23 21 22 23 23 24
92 94 93 66 46 47 67 95 99 97 95 67 64 58 53 50 49 53 52 52 51 49 49 49 49 51 54 49 51 52 50 52 55 57 60 51 67 27 28 27 24 24 24 25 24
93 94 90 77 55 48 76 98 99 98 86 72 65 62 57 53 52 56 56 54 54 52 51 48 50 53 53 54 57 60 60 60 60 66 70 50 65 29 28 27 27 26 27 26 26
80 89 96 80 50 55 98 98 98 95 76 75 62 65 61 60 57 54 56 58 55 62 60 58 55 56 58 60 56 61 65 61 69 72 49 39 52 32 24 27 29 29 30 28 27
92 83 91 69 57 74 98 99 97 83 76 68 64 64 65 60 60 59 62 63 59 60 58 59 57 55 58 53 51 55 58 58 62 52 45 51 43 28 23 26 25 33 31 32 33
89 93 90 66 57 92 96 98 90 74 72 66 68 65 69 64 61 64 63 61 60 61 64 63 57 46 47 47 50 59 66 60 75 65 77 56 38 30 28 30 32 34 40 41 38
94 94 82 59 85 88 97 98 79 75 73 67 67 59 62 64 64 61 60 55 57 56 56 65 60 46 48 52 54 60 63 83 94 87 79 54 53 46 39 41 41 44 46 52 46
98 88 71 87 92 98 97 96 88 81 72 66 66 64 59 60 59 61 58 53 52 55 61 59 54 49 55 55 53 72 83 94 88 89 79 67 51 50 46 44 48 41 42 46 48
97 76 80 97 93 98 92 91 87 81 73 64 61 64 59 58 59 60 58 56 54 57 63 58 57 53 56 58 64 67 77 85 96 90 93 92 61 58 61 62 59 48 50 49 55
98 93 92 98 98 97 98 95 88 84 77 68 60 62 58 61 64 60 62 60 60 61 61 60 62 65 68 73 75 84 80 83 89 87 88 93 61 60 63 61 59 56 43 43 50
96 98 90 91 93 91 91 95 94 85 76 72 65 64 65 62 61 66 67 66 66 68 65 58 61 74 71 72 82 97 91 91 91 87 77 70 63 66 71 71 66 59 47 51 54
96 93 88 93 91 87 89 90 86 83 74 66 62 62 64 67 70 71 71 70 76 70 65 66 80 78 82 83 89 92 92 93 88 74 81 49 63 62 64 64 59 52 51 53 59
89 84 87 91 85 81 87 85 83 77 65 62 64 72 72 76 73 77 77 78 69 68 72 79 81 87 91 84 87 94 95 92 83 73 70 67 64 61 64 61 55 60 61 64 86
85 80 89 87 90 85 82 75 73 70 66 73 79 77 78 77 80 80 84 72 64 70 77 80 88 95 91 84 87 95 94 90 85 83 72 75 61 73 75 76 80 83 86 90 79

GFSSW_prec_cthk_027.txt.gz
RH
38 40 51 46 60 61 54 50 40 30 24 26 28 30 33 36 36 28 27 33 34 29 28 32 30 30 29 27 32 35 38 31 28 24 24 29 27 26 28 30 32 33 34 38 39
30 42 39 52 47 64 64 55 48 38 27 27 29 32 35 42 42 40 37 37 37 30 29 32 33 33 31 30 33 36 32 30 25 26 27 30 29 28 29 27 29 32 33 33 36
16 19 36 47 43 50 67 75 54 45 33 28 31 33 39 45 51 46 42 42 42 38 33 36 37 36 34 31 34 36 32 28 28 32 32 32 32 31 31 30 29 31 34 34 34
19 18 24 33 46 42 51 71 73 50 37 32 32 35 41 48 58 51 47 46 44 48 47 40 37 36 37 37 33 35 32 31 36 37 34 31 31 32 29 30 31 32 36 36 34
24 25 25 17 33 42 53 58 72 65 48 35 36 38 45 51 55 51 49 47 47 59 58 50 42 42 39 34 33 38 35 34 34 36 36 34 32 32 32 29 27 30 31 33 34
26 26 26 24 23 58 63 61 68 70 54 42 40 42 48 53 55 55 52 53 51 56 63 61 53 49 46 45 42 42 39 35 37 33 32 32 27 31 26 23 25 25 27 27 30
27 27 27 26 21 43 66 65 65 70 65 44 44 47 53 52 51 53 55 56 58 56 68 70 65 59 53 48 46 44 43 40 34 34 36 36 32 28 24 24 23 22 21 22 24
31 30 32 31 24 33 52 62 66 76 72 51 46 52 52 50 53 50 53 60 60 66 67 74 69 70 68 60 51 47 45 43 36 37 38 40 33 26 27 28 27 24 23 22 20
38 34 35 41 36 28 38 61 61 80 75 64 52 52 52 46 50 55 55 64 63 65 77 81 75 72 68 65 58 53 49 46 44 43 42 43 38 34 34 33 30 28 27 26 24
51 44 49 52 48 36 31 57 86 98 81 80 62 55 49 49 54 54 59 69 65 68 71 75 74 71 69 68 59 51 50 48 45 41 41 39 35 33 32 33 35 33 32 30 27
65 65 73 66 55 41 34 62 99 95 90 74 58 53 52 50 54 57 63 72 70 69 67 68 67 65 58 56 52 47 44 44 41 41 36 33 30 29 28 26 25 25 27 29 28
80 85 83 75 54 43 41 76 99 99 96 82 65 60 51 53 57 62 65 67 68 69 67 66 62 57 52 48 45 43 42 40 35 34 33 31 26 25 21 19 20 20 21 22 25
80 87 91 88 69 45 48 88 98 99 97 89 76 61 56 57 56 59 62 68 70 68 67 64 57 51 48 45 46 42 41 39 39 36 35 33 24 18 17 17 17 18 20 21 21
74 93 96 97 80 44 58 78 98 98 98 85 80 65 57 57 56 54 55 62 59 57 56 53 49 45 43 45 44 43 42 45 47 48 45 40 35 21 19 18 18 18 18 18 20
77 88 94 86 87 56 47 71 84 99 97 86 83 70 58 56 56 55 55 58 54 51 51 51 47 48 49 45 45 47 47 47 48 52 53 43 55 22 22 21 21 22 21 21 22
79 73 79 85 81 62 72 78 98 99 97 92 84 70 61 55 55 58 57 55 53 51 50 50 50 48 48 47 49 52 51 54 54 55 57 37 38 19 19 18 20 26 29 28 25
69 68 72 85 82 59 86 91 98 97 86 89 77 72 64 55 56 57 60 58 53 62 60 53 50 49 49 53 55 56 61 56 62 66 48 33 42 23 21 23 21 24 28 31 29
73 79 81 85 85 63 94 98 97 91 81 75 74 71 69 59 56 56 58 59 53 51 52 57 58 50 56 55 56 55 53 47 50 47 39 41 38 31 29 28 30 28 27 24 23
85 93 98 92 77 87 98 97 98 79 77 74 77 75 78 63 59 57 54 53 50 50 59 55 58 51 56 51 48 54 59 47 55 48 56 43 39 35 37 37 36 41 37 37 38
87 97 95 89 71 82 95 99 86 79 74 71 75 67 67 66 62 61 57 52 54 54 54 60 62 52 52 50 48 49 51 64 74 74 67 47 45 46 48 50 50 46 52 52 56
98 96 95 76 61 91 98 98 88 84 80 73 65 64 59 61 60 60 59 55 56 55 58 56 54 57 53 47 43 55 65 71 70 85 76 67 43 49 46 46 49 56 64 61 58
88 82 79 82 96 97 96 97 87 87 82 72 64 64 57 58 63 60 59 55 54 53 57 55 55 59 49 40 49 60 71 76 90 78 86 88 54 52 47 52 64 61 67 63 55
90 98 98 91 94 96 97 95 90 87 76 71 68 67 60 59 63 58 57 56 52 53 56 60 65 62 54 57 64 69 74 77 86 88 90 95 55 53 56 54 60 64 65 68 59
79 93 94 90 93 88 94 96 92 85 79 69 66 66 64 62 61 60 60 58 55 58 62 64 62 54 57 64 74 90 85 87 97 95 82 71 61 47 63 66 69 69 68 64 61
67 83 86 87 85 83 88 92 89 82 77 73 69 65 67 64 61 63 62 62 63 64 69 68 68 66 72 74 83 88 89 89 98 96 94 64 67 57 71 73 72 68 66 67 65
73 83 89 84 80 80 83 88 84 80 73 69 67 65 69 68 68 69 64 66 68 75 72 65 76 83 85 80 80 86 85 91 95 91 88 92 78 76 70 74 70 67 62 64 61
74 80 87 82 80 77 78 80 78 70 67 64 64 66 71 72 71 71 72 73 74 69 67 79 87 89 86 82 83 87 96 96 95 93 88 84 79 82 84 86 87 81 78 67 60

GFSSW_prec_cthk_030.txt.gz
RH
18 20 27 38 36 42 55 70 59 52 41 30 26 29 31 31 32 34 30 23 26 31 28 31 30 29 30 31 30 31 37 35 30 29 23 22 28 34 30 28 30 31 31 38 48
20 19 23 26 38 38 42 54 72 58 50 37 27 30 32 38 39 41 31 33 35 33 32 32 31 32 32 31 32 37 39 33 27 27 28 27 29 32 30 27 28 30 32 33 39
26 21 20 19 19 35 46 46 54 73 60 46 30 30 33 42 46 37 39 37 38 37 32 33 35 36 35 33 35 33 34 26 22 28 30 31 32 31 32 31 26 27 31 32 34
30 28 28 29 21 27 44 42 48 61 79 53 35 32 35 47 51 50 45 43 44 47 41 37 38 40 38 38 36 36 34 30 25 30 34 33 32 33 33 31 30 30 32 37 33
32 32 30 29 29 24 24 36 46 59 74 73 40 38 40 48 51 50 49 49 55 60 53 46 38 37 38 34 38 39 37 33 31 30 34 34 34 34 33 33 27 27 29 32 36
34 35 31 29 30 28 25 33 42 57 74 68 55 41 44 49 53 50 51 51 51 56 59 58 48 41 41 39 42 40 39 37 34 30 30 32 30 31 28 23 25 26 27 27 30
43 38 36 30 31 36 27 34 52 61 73 76 61 51 49 48 51 49 54 51 57 60 68 68 62 52 49 48 50 48 47 41 37 31 31 30 31 28 24 22 22 22 22 22 24
50 52 50 37 33 41 39 29 64 72 75 74 65 52 56 49 49 49 52 53 58 58 66 78 70 61 57 53 52 47 48 48 32 31 30 35 35 28 28 27 26 24 22 21 21
63 63 59 49 50 51 48 34 58 76 73 83 74 66 49 47 48 51 51 57 61 70 68 84 82 73 68 60 59 54 56 49 44 37 36 39 38 32 34 30 31 28 26 24 22
71 70 66 65 59 68 55 38 41 84 77 87 85 73 52 44 46 48 55 62 62 70 90 87 81 73 68 66 64 60 60 56 51 48 42 41 38 34 33 33 32 33 30 27 27
71 76 73 78 76 68 57 43 38 86 81 83 73 62 47 44 44 49 57 64 65 68 74 88 82 78 69 64 62 62 58 53 50 46 43 40 35 32 28 27 24 25 26 26 26
78 92 79 95 91 83 60 48 49 64 86 86 89 73 60 48 50 55 59 63 66 73 72 74 75 69 67 64 61 56 54 52 46 41 39 35 29 26 22 18 19 20 20 20 21
83 83 83 94 98 91 62 42 48 89 89 95 96 76 62 53 51 54 62 65 71 76 75 71 67 63 60 58 56 52 50 48 44 39 36 34 26 21 19 18 17 17 18 18 18
82 78 87 88 91 96 67 44 70 98 99 98 95 83 66 59 56 58 65 69 72 77 78 75 69 62 57 59 51 50 45 45 43 43 47 39 46 22 17 16 16 16 16 17 18
74 78 75 78 81 88 72 51 78 98 98 97 91 88 68 62 57 63 67 65 69 72 73 68 62 61 56 46 45 45 43 43 45 48 47 42 52 25 18 18 17 18 17 19 20
71 69 67 66 77 82 83 66 77 96 97 97 94 88 70 68 60 58 62 60 62 65 62 60 53 48 47 46 46 47 46 46 48 53 61 43 40 24 18 18 18 18 21 21 24
66 65 64 73 83 83 93 83 85 97 97 94 88 83 67 67 61 59 60 59 58 69 68 56 52 48 47 49 48 51 52 66 71 69 58 30 41 24 19 18 22 25 26 28 31
85 79 77 82 92 75 86 88 97 97 98 88 88 82 71 67 61 61 62 61 55 53 60 60 55 49 49 49 54 56 58 65 62 63 50 38 40 26 20 25 30 32 32 31 32
82 87 98 93 96 69 94 81 87 89 85 87 89 89 81 72 59 60 59 57 53 51 57 59 57 50 52 52 54 60 62 48 58 44 55 37 24 24 31 31 35 35 33 30 31
88 85 97 89 72 78 96 97 98 84 80 83 84 75 78 73 60 58 58 53 53 50 50 56 59 53 56 53 52 52 49 64 65 70 59 40 38 40 42 41 39 38 40 39 42
85 88 94 80 81 95 97 99 92 84 79 77 70 71 67 69 59 58 54 50 49 49 50 52 56 64 61 58 52 54 56 57 61 69 78 64 49 45 47 54 54 48 44 48 52
75 87 74 78 86 91 98 98 91 86 79 69 67 63 61 63 62 55 55 55 53 54 59 61 60 68 59 46 45 51 56 59 75 74 79 78 61 48 56 59 60 59 56 57 62
86 83 84 77 91 97 98 95 93 85 78 70 71 62 60 65 67 63 60 58 58 58 58 59 63 68 64 58 56 57 57 66 77 81 79 88 63 54 57 64 68 67 66 63 66
83 77 88 91 87 96 97 96 92 82 79 69 68 67 61 66 64 64 64 61 55 57 57 57 61 67 71 70 64 72 75 77 85 92 83 76 62 65 68 80 84 86 77 77 68
76 80 82 87 84 87 92 94 86 80 78 72 71 72 64 65 64 62 60 62 57 57 60 63 74 71 60 53 64 73 79 84 94 94 94 81 81 76 86 91 88 87 87 79 74
71 77 77 76 77 82 91 96 84 78 72 70 66 68 65 60 62 60 59 60 62 63 65 68 79 71 66 70 80 83 82 83 88 93 93 93 87 86 89 91 94 94 94 90 78
65 75 80 72 72 74 77 74 74 70 71 68 67 63 70 72 67 66 67 68 69 69 68 71 72 80 82 80 82 90 83 89 91 90 92 93 90 92 91 85 89 94 90 78 66

GFSSW_prec_cthk_033.txt.gz
RH
24 26 24 23 27 31 36 40 46 73 68 53 39 25 29 29 28 31 30 23 23 27 30 30 28 27 28 28 28 28 39 38 31 28 23 21 26 29 34 31 30 30 30 39 41
25 29 29 28 27 29 36 34 37 45 78 65 55 31 27 30 33 32 28 30 26 27 31 34 30 30 31 28 30 33 39 35 28 26 24 25 28 31 31 29 28 32 32 33 38
31 27 31 31 31 32 26 28 39 43 55 77 58 45 31 30 37 30 30 34 40 33 32 34 35 35 33 30 32 33 38 32 29 28 30 31 27 32 32 30 25 29 31 33 33
37 34 35 34 31 32 32 29 37 49 49 63 74 47 37 36 43 44 43 39 40 39 38 34 39 40 38 36 30 34 33 32 28 26 33 33 30 30 32 31 29 28 33 32 33
42 42 44 41 36 32 32 30 31 51 52 58 66 61 39 43 38 46 50 49 53 51 46 38 41 40 41 34 34 37 33 34 32 27 33 32 30 30 30 32 28 25 28 32 33
52 49 47 45 42 32 29 30 29 47 51 61 70 64 48 44 37 45 50 52 60 67 63 53 42 39 38 36 38 37 38 37 35 31 33 33 30 29 27 29 28 26 27 29 32
59 58 56 50 48 37 31 35 35 32 41 59 74 69 61 38 48 47 47 49 52 57 64 62 61 46 41 42 42 42 42 39 33 32 32 30 30 29 25 22 25 26 24 25 28
66 72 72 67 61 52 48 47 43 34 44 63 84 67 57 48 47 47 50 53 53 57 64 69 69 62 53 49 44 44 45 48 35 32 30 32 31 25 23 25 25 22 21 18 18
76 77 81 78 70 73 69 53 44 33 47 69 82 80 70 50 50 48 49 53 55 59 66 77 81 73 63 57 52 50 54 48 43 37 38 37 37 31 29 30 27 26 25 22 19
75 77 75 73 74 72 61 65 41 35 59 93 88 88 64 51 46 52 53 57 60 66 69 80 85 84 76 72 68 55 55 52 50 44 44 43 42 35 30 31 28 27 25 25 24
75 74 81 79 89 89 80 61 40 47 67 94 80 75 56 55 47 52 60 59 65 79 75 77 83 92 94 70 63 58 63 53 48 44 41 39 35 31 28 28 26 26 26 23 23
70 80 84 88 94 95 95 80 47 75 96 97 82 76 68 62 50 54 65 62 65 69 77 83 84 79 77 75 69 65 62 56 51 47 44 40 33 29 26 20 20 18 19 18 19
58 76 79 87 85 90 98 76 51 79 98 93 85 78 76 63 52 55 61 66 69 71 68 71 71 82 81 71 66 63 63 59 53 46 41 36 29 23 20 19 19 19 18 17 17
59 77 80 79 78 81 92 67 44 82 98 99 87 86 80 66 59 63 66 64 68 74 72 68 64 66 68 70 66 65 58 53 48 47 48 38 49 28 18 18 17 17 17 16 16
65 70 68 68 70 77 86 53 58 81 96 95 98 84 78 66 57 69 69 64 65 67 69 71 68 68 67 64 65 64 54 49 46 47 46 41 46 30 22 18 17 17 17 16 16
66 65 64 64 70 80 87 70 73 88 94 99 95 83 84 69 62 66 69 63 63 66 68 68 66 68 70 65 60 53 49 46 46 49 58 41 43 32 22 18 18 17 16 17 19
83 88 74 69 75 78 88 64 77 94 97 98 87 84 80 73 66 68 68 62 63 74 74 70 69 61 58 57 53 51 52 62 62 61 55 37 48 31 20 19 18 18 21 24 26
81 87 85 79 83 83 72 77 87 95 99 91 85 87 85 72 70 72 66 65 60 58 69 68 64 56 51 52 55 55 51 59 61 68 58 39 43 28 20 19 23 26 29 30 31
81 88 93 92 77 83 87 86 95 99 97 92 92 87 86 72 68 72 63 58 55 52 56 62 60 54 52 51 51 58 61 55 61 53 62 41 28 20 21 28 33 37 37 38 37
83 85 87 76 81 89 96 96 97 98 91 85 89 81 83 71 71 64 58 53 51 49 50 55 62 58 57 55 55 55 50 62 62 64 62 45 37 33 35 41 42 45 47 48 47
77 72 75 91 95 96 97 99 96 95 89 84 81 75 68 69 69 62 59 53 48 49 53 54 53 59 59 59 59 59 55 52 55 61 68 68 51 43 49 51 51 52 55 57 59
58 74 85 92 96 98 99 99 97 92 79 74 70 74 71 69 70 57 55 52 50 50 53 53 58 70 63 54 51 51 54 56 66 56 68 77 61 52 51 55 55 57 61 68 74
64 72 81 91 98 97 96 94 92 83 75 71 65 66 64 70 64 54 55 52 52 55 55 57 63 69 65 58 53 57 58 60 62 72 79 89 65 55 56 63 69 76 82 87 90
65 70 78 85 87 94 95 94 88 80 75 71 64 64 64 69 64 64 61 57 58 60 58 59 65 62 69 65 62 63 59 63 78 91 78 74 67 62 68 74 83 85 85 88 92
68 71 74 82 88 90 88 86 82 79 71 70 70 67 68 71 68 67 66 63 61 62 60 61 63 68 63 59 58 56 66 78 87 85 93 69 78 73 80 80 79 80 84 91 96
58 69 72 77 78 78 77 77 74 71 71 70 70 69 62 63 63 59 62 61 59 60 61 64 71 75 68 60 61 80 82 82 88 87 86 84 86 84 86 82 75 77 78 78 88
59 65 67 65 70 72 71 69 67 66 66 64 63 68 67 67 65 63 59 60 61 63 65 67 73 74 69 65 82 89 86 87 87 87 89 92 88 85 88 84 79 76 74 73 69

GFSSW_prec_cthk_036.txt.gz
RH
35 34 33 33 30 26 24 30 34 42 54 81 71 55 32 29 29 28 27 21 21 27 28 29 28 30 32 32 32 32 39 39 31 27 21 18 22 27 28 28 26 26 26 23 28
37 37 37 35 33 32 30 28 36 46 45 64 76 69 45 29 30 28 24 26 26 28 29 32 30 31 32 31 32 34 39 35 28 25 25 21 24 29 29 29 29 30 27 29 29
42 45 45 43 43 37 35 32 32 42 44 48 65 78 62 41 32 26 27 28 30 32 31 33 35 35 34 31 33 34 36 29 27 26 27 25 25 29 33 31 29 31 30 30 31
54 54 48 51 52 44 39 34 31 33 45 46 62 65 76 49 44 35 33 33 34 33 30 33 39 39 36 36 31 34 32 30 27 24 26 28 27 28 32 31 30 29 30 34 35
49 57 63 61 51 52 46 40 34 29 31 51 61 74 65 61 42 47 44 41 46 43 38 35 38 39 38 35 33 36 33 31 28 27 29 30 31 29 28 29 30 28 29 30 30
57 64 70 70 68 59 55 43 36 37 30 54 65 77 59 68 43 48 49 52 50 53 45 41 40 38 37 35 36 35 31 31 31 30 31 30 29 29 26 29 30 27 29 30 31
61 71 75 72 80 73 63 49 42 46 33 52 68 81 65 64 52 49 53 60 58 62 60 50 50 46 39 39 38 39 40 39 35 29 31 30 26 27 25 25 29 27 28 29 29
65 69 77 77 79 79 73 73 51 49 39 42 68 88 72 66 64 54 54 54 62 70 74 67 67 56 45 45 44 44 44 45 35 31 30 32 29 23 22 22 22 22 25 24 25
68 70 72 79 83 74 74 73 66 55 40 40 61 74 68 74 62 59 58 55 57 61 74 74 73 67 57 52 50 48 52 48 40 34 33 35 35 24 24 24 24 22 20 19 19
69 70 70 79 83 85 79 77 67 52 40 37 68 91 83 66 62 59 59 62 61 64 72 84 82 79 71 64 62 53 50 46 45 40 40 40 41 32 30 28 27 26 23 21 19
64 59 74 82 93 95 92 80 64 52 39 42 73 88 86 76 65 66 58 63 68 73 70 80 90 87 72 69 64 60 58 55 49 42 39 37 36 32 27 27 28 25 23 23 22
64 56 69 80 84 85 90 95 74 58 47 60 76 89 78 79 73 60 70 66 75 84 78 78 80 86 94 84 82 70 63 55 49 47 45 40 35 31 28 25 25 24 22 22 21
62 64 72 78 73 73 78 87 71 47 55 71 79 87 85 78 60 57 70 67 70 80 79 77 74 84 86 92 86 73 63 57 55 52 47 43 31 27 22 18 18 17 16 17 16
65 65 64 66 66 73 78 85 54 49 97 96 98 96 90 75 61 60 70 72 71 77 82 91 76 80 83 84 73 69 60 57 57 54 54 41 49 29 21 18 16 17 17 17 16
66 67 68 72 66 75 88 66 51 88 97 99 99 95 86 68 63 72 74 71 77 70 68 69 70 71 77 76 71 66 60 57 53 52 50 43 48 30 23 20 16 16 16 15 15
83 85 84 72 70 84 72 59 80 96 97 98 91 88 81 74 65 75 73 67 76 79 73 69 68 66 63 62 63 62 60 60 54 52 57 40 43 34 23 19 17 17 16 15 15
81 75 70 77 89 80 64 77 83 95 94 99 90 77 78 74 70 76 71 69 75 78 81 71 71 66 65 68 64 61 60 60 59 62 52 39 48 37 25 21 18 19 19 19 20
77 72 78 83 88 76 73 81 90 92 95 94 85 82 83 72 72 74 70 73 68 66 74 77 82 70 65 61 61 59 51 54 52 62 56 44 47 29 23 21 24 25 25 26 28
69 72 78 91 84 88 89 90 95 97 99 92 89 87 87 76 74 74 75 67 63 59 64 73 70 61 56 54 49 55 58 50 58 57 63 45 34 22 20 27 31 34 36 37 36
58 69 80 89 92 91 92 97 93 92 87 84 86 82 86 73 72 70 68 62 60 59 55 54 66 57 53 51 50 52 53 64 65 64 56 44 40 31 34 40 41 44 46 47 46
63 71 80 91 95 90 91 93 94 89 81 78 83 75 77 72 66 67 67 56 55 53 51 49 51 59 55 54 56 58 58 55 56 58 62 64 44 44 48 49 50 52 53 54 54
57 66 81 96 90 94 96 93 90 87 80 75 73 74 72 70 67 65 58 57 49 49 50 47 54 64 61 54 52 55 59 57 62 52 67 71 62 52 55 55 57 62 69 71 74
57 60 66 76 84 92 92 88 83 80 75 72 71 68 64 65 66 59 52 49 51 50 51 48 54 63 59 57 56 58 54 54 57 63 77 86 68 58 61 66 72 71 70 68 68
53 57 58 67 71 79 84 84 78 71 64 60 63 63 64 64 61 58 52 53 51 54 53 51 58 57 64 60 59 60 59 59 63 84 81 80 63 64 68 75 76 73 73 71 70
53 60 66 71 71 73 74 75 71 70 67 61 65 62 66 72 68 61 54 55 57 59 57 57 64 66 63 62 63 64 58 62 79 78 85 70 76 71 76 79 82 76 72 71 66
52 60 64 66 68 64 66 70 70 70 67 69 67 67 67 74 68 63 60 61 60 61 62 62 70 69 67 61 65 63 65 78 80 79 80 81 81 79 83 87 90 80 73 73 65
55 59 63 59 62 65 64 62 62 62 64 66 70 69 69 68 68 63 60 59 59 61 63 64 71 73 70 63 69 82 84 85 84 84 85 91 84 83 86 90 88 89 77 72 68

GFSSW_prec_cthk_039.txt.gz
RH
46 48 46 46 40 37 35 33 31 25 36 47 60 75 71 57 33 34 28 23 23 26 22 32 35 37 40 38 38 41 48 48 36 30 24 22 22 23 25 26 26 25 24 23 23
45 44 47 48 49 48 48 40 35 32 30 41 60 68 77 72 46 32 25 24 24 34 28 28 31 35 39 36 36 37 44 40 32 27 25 23 23 24 24 27 25 25 25 27 28
40 39 42 49 51 53 54 48 40 35 34 41 55 76 72 78 62 31 26 26 26 34 36 33 32 35 38 35 36 37 38 31 29 27 27 25 25 25 25 27 26 26 32 33 36
40 41 46 53 60 63 57 55 52 39 32 41 55 63 84 68 66 47 29 27 33 39 45 40 39 37 39 37 34 35 33 30 28 27 27 27 25 25 24 25 28 28 35 39 39
46 52 55 59 62 71 74 67 60 47 36 30 56 67 80 73 58 62 46 31 42 45 41 44 41 38 38 36 34 35 34 31 28 27 27 26 26 25 22 22 28 29 31 35 36
51 56 66 66 76 82 83 76 67 53 44 32 54 63 91 83 70 63 64 44 44 53 46 44 42 38 36 35 36 34 33 32 32 30 27 27 25 26 22 21 26 28 30 31 31
58 66 70 67 78 86 89 82 71 55 47 50 49 63 71 93 68 57 65 60 53 60 46 41 41 45 40 37 37 35 37 34 30 28 30 28 25 25 23 23 22 24 26 30 30
65 75 74 67 77 87 88 84 88 81 59 53 54 59 78 90 69 59 68 73 76 69 62 53 51 50 46 41 39 41 42 44 33 30 31 30 28 24 24 20 20 21 23 25 27
71 76 65 68 82 86 86 80 81 79 62 56 56 62 69 85 65 64 75 80 88 91 85 74 69 63 52 50 50 47 51 45 37 33 33 35 35 26 24 21 21 18 17 19 21
75 66 59 78 89 96 95 95 79 73 61 53 51 73 77 77 70 71 67 78 82 90 97 89 85 79 68 59 57 53 46 42 41 35 36 38 40 29 27 27 27 25 22 18 17
73 56 60 69 86 86 92 92 86 74 63 43 47 79 73 90 81 75 69 71 75 78 85 92 90 83 71 62 57 52 51 48 42 39 37 34 35 31 26 28 27 26 24 22 19
67 64 61 72 82 79 77 84 92 82 59 44 66 76 75 79 95 77 74 71 79 80 80 86 88 87 81 73 69 66 62 59 50 44 42 38 35 29 25 24 26 26 25 23 22
79 65 69 68 71 66 74 81 86 76 62 47 63 84 86 87 86 70 71 76 80 88 81 76 84 92 85 86 80 74 68 62 55 49 46 43 34 27 23 22 20 19 17 18 17
90 93 79 66 73 77 77 88 74 65 59 63 86 90 97 93 87 69 81 81 86 94 92 78 73 81 91 95 91 82 71 61 56 55 57 48 53 32 23 19 18 16 16 18 17
78 74 83 87 83 77 87 74 56 69 62 80 92 97 93 77 80 71 83 85 80 86 84 86 73 81 85 91 87 81 73 65 61 59 53 47 51 31 22 20 17 17 17 18 17
67 73 66 67 73 79 59 50 76 85 92 87 89 91 81 82 72 73 84 85 80 75 85 91 86 80 74 80 76 74 69 64 63 58 60 44 44 32 22 21 20 19 18 18 17
71 73 72 70 62 57 57 78 95 96 87 90 90 82 86 79 75 81 82 82 89 83 81 82 81 73 70 71 70 68 66 64 55 64 51 45 48 31 25 23 21 20 20 21 21
76 82 69 52 55 58 80 87 95 94 97 97 94 93 89 79 79 82 83 77 81 81 78 76 78 69 68 69 71 65 63 62 46 58 55 46 50 31 25 23 24 27 29 28 28
71 75 80 73 75 80 88 96 98 97 98 93 88 90 89 79 74 85 78 72 68 67 76 78 78 72 68 67 62 67 67 57 57 54 60 45 36 23 24 27 31 33 32 33 34
68 75 71 75 73 72 85 93 93 88 88 80 82 79 79 82 77 81 74 76 68 65 63 65 78 71 68 66 62 58 54 58 57 47 50 39 41 32 31 37 40 42 43 44 46
61 70 72 69 69 68 74 84 87 80 77 69 70 71 76 71 67 71 68 61 61 61 58 56 62 69 61 58 60 56 57 56 56 57 56 59 39 36 44 49 51 52 55 59 60
57 62 68 62 66 66 71 74 73 73 70 65 66 72 72 66 63 58 62 56 56 56 57 54 59 68 59 57 55 56 56 57 57 53 65 63 55 51 55 57 62 64 66 63 57
48 53 60 69 74 70 72 70 73 64 67 67 67 66 68 68 64 63 65 53 52 54 55 51 56 65 60 57 55 56 57 58 57 58 64 69 68 59 60 61 65 71 72 59 55
45 53 52 57 64 70 72 69 66 65 65 64 65 66 63 62 59 61 54 52 51 51 52 50 55 53 58 54 56 62 58 55 58 67 67 78 70 64 65 65 70 76 78 65 59
48 57 61 64 63 63 65 65 63 64 61 60 63 61 63 68 64 64 55 53 53 55 55 54 58 63 60 59 62 60 58 59 58 64 81 71 73 69 71 74 77 80 80 73 63
46 58 61 62 59 59 61 63 63 63 60 60 62 64 68 73 70 64 54 54 53 55 56 57 69 68 65 60 62 65 58 59 69 80 80 79 81 77 77 80 83 82 82 78 67
48 54 60 61 61 60 58 57 60 59 60 63 66 71 76 77 72 62 57 59 58 59 62 64 70 69 71 65 66 63 60 70 80 80 80 86 80 78 80 83 82 81 82 79 67

GFSSW_prec_cthk_042.txt.gz
RH
42 42 42 42 43 49 51 45 48 45 30 35 47 54 75 79 73 53 34 28 28 31 32 35 45 51 52 49 45 45 48 46 37 35 31 28 25 24 24 25 27 29 26 25 26
40 40 41 38 43 43 50 49 52 48 47 32 39 54 54 76 76 63 38 29 27 35 36 40 41 45 50 47 47 49 51 45 37 34 33 29 26 25 23 24 25 28 29 26 27
40 37 42 51 51 49 58 62 57 48 51 41 32 53 58 61 69 60 59 32 29 36 44 38 44 44 44 42 42 44 45 42 39 37 34 30 28 26 25 21 20 24 28 31 30
43 50 45 51 57 60 67 70 67 67 56 51 35 45 62 89 79 62 63 44 30 38 48 42 46 48 45 42 39 39 37 36 32 33 33 31 29 27 24 20 21 24 29 34 37
47 55 57 67 68 72 77 78 78 79 70 55 41 42 62 75 72 68 71 53 37 41 45 48 45 43 43 41 39 38 36 33 32 32 31 30 28 26 21 19 21 24 28 37 39
52 65 73 71 76 74 77 85 90 89 78 58 47 55 66 82 92 76 72 65 40 40 46 53 49 45 41 37 37 35 35 33 31 31 29 28 26 26 21 18 18 20 27 31 38
65 76 80 76 71 74 80 86 86 83 75 60 61 65 69 66 86 96 64 67 49 44 50 52 51 47 44 40 37 38 37 34 30 31 31 29 26 25 20 20 19 18 20 27 30
74 81 78 66 76 81 83 85 84 89 93 67 72 64 67 72 82 92 64 79 59 56 57 54 53 52 48 44 41 42 41 43 33 29 28 28 29 25 23 22 19 18 18 19 25
78 84 60 66 79 89 92 88 78 81 92 86 75 64 69 61 86 90 70 82 73 81 74 67 54 54 52 50 50 48 50 45 38 33 31 31 33 26 25 24 22 19 17 17 17
76 71 52 63 69 88 91 92 83 83 83 76 68 65 65 58 92 89 74 88 86 96 91 87 75 66 58 54 56 52 47 42 40 33 34 35 38 27 24 23 23 22 20 19 17
75 75 63 60 70 80 78 75 83 88 82 69 56 64 56 62 90 81 81 91 92 99 93 90 88 71 61 55 50 49 48 45 40 37 36 34 34 28 24 24 24 23 21 20 18
87 90 92 63 64 72 68 72 83 90 78 62 60 80 69 74 94 84 79 90 90 97 97 97 89 82 78 70 64 59 56 52 46 42 40 37 34 29 24 22 22 22 21 21 21
77 75 86 94 62 68 74 77 85 81 73 57 72 83 77 83 94 80 70 80 83 89 91 97 97 89 89 80 73 70 64 59 55 50 47 43 35 27 22 20 19 19 18 18 18
73 78 70 90 86 76 76 84 78 73 64 56 93 84 81 90 93 82 77 79 81 84 86 82 85 91 89 92 83 76 65 64 60 55 58 47 53 32 26 22 19 19 17 16 20
63 66 64 70 74 75 80 64 66 61 56 69 81 75 89 89 93 92 83 89 83 88 89 87 83 91 96 93 90 84 75 71 63 62 57 50 54 30 24 23 22 21 21 20 19
59 52 56 52 51 52 57 67 73 73 80 90 91 85 80 83 89 76 90 88 86 93 93 88 77 78 90 92 91 86 84 78 75 67 66 49 46 28 24 26 24 23 23 22 21
58 54 59 72 83 72 78 85 78 85 93 98 98 93 92 91 84 77 94 91 90 93 97 93 90 78 74 80 88 83 86 84 63 63 56 51 48 29 28 26 25 25 23 22 23
59 58 61 72 87 76 82 80 73 77 89 98 93 90 94 87 83 82 96 91 83 86 94 96 97 83 78 77 81 78 73 72 51 56 54 51 51 31 27 25 25 24 25 27 28
54 62 61 66 77 78 71 66 75 78 80 86 80 85 87 84 77 90 88 90 82 69 73 81 87 80 71 70 65 68 71 62 67 64 63 45 35 25 26 26 28 30 31 33 36
49 56 60 62 69 73 70 84 91 87 83 76 78 81 85 80 81 84 85 78 79 77 72 73 84 76 73 69 66 63 65 68 67 55 45 35 39 28 28 32 35 38 43 45 47
53 53 60 61 63 64 69 76 78 80 77 75 77 73 75 72 71 80 73 74 65 66 67 71 70 79 70 69 71 69 68 61 57 57 52 49 31 32 33 40 45 52 56 58 60
54 61 60 59 64 65 66 69 68 69 64 59 62 67 70 68 68 69 69 63 66 64 64 62 65 72 70 62 60 58 59 54 56 55 63 62 45 40 44 47 51 59 62 65 64
46 55 60 59 67 69 69 64 63 63 60 56 59 60 63 61 61 60 63 62 61 57 60 57 59 68 64 59 57 58 57 57 57 58 63 61 47 47 51 54 61 62 63 67 65
44 54 57 60 66 67 68 67 64 60 60 57 57 59 61 63 59 59 60 60 52 54 55 53 56 55 57 53 55 62 59 59 60 66 59 58 59 58 61 63 63 65 68 69 65
41 54 59 65 63 66 65 63 62 65 61 60 62 61 61 64 63 61 60 58 54 55 56 55 59 60 56 54 59 61 60 62 59 55 59 61 70 68 67 69 69 68 69 65 65
42 50 59 60 59 60 61 63 63 61 59 61 64 65 64 65 61 63 55 52 52 54 54 56 66 62 60 59 62 65 61 62 60 59 73 75 77 71 71 70 67 67 68 68 63
45 47 57 59 58 57 59 58 58 58 60 57 60 66 72 72 69 66 54 52 54 58 60 61 66 66 67 64 67 65 60 56 60 69 76 84 76 70 68 66 66 68 71 70 70

GFSSW_prec_cthk_045.txt.gz
RH
48 44 41 43 42 41 40 43 50 58 52 48 34 42 57 64 74 82 57 44 31 36 35 37 53 61 57 52 47 42 44 43 37 35 31 30 30 29 25 23 25 29 29 28 29
43 41 43 45 46 47 51 51 50 53 62 53 49 34 57 58 64 61 69 58 37 38 44 38 55 62 64 57 52 50 47 39 32 32 31 30 31 31 28 25 24 29 32 29 26
45 49 45 55 53 57 59 64 66 65 61 58 52 48 47 67 69 67 75 74 47 34 43 45 52 56 61 59 54 51 47 43 37 34 33 34 34 33 29 25 24 26 29 32 30
46 48 56 56 60 69 72 70 75 73 73 73 59 50 41 62 66 62 74 77 60 38 46 52 51 60 57 53 52 52 47 46 44 43 40 39 37 35 30 24 24 24 25 28 32
51 60 68 69 77 81 79 76 80 79 80 77 71 52 43 61 59 59 65 72 66 46 49 51 51 58 59 51 47 48 46 43 41 41 40 38 37 36 29 26 23 22 21 24 29
60 73 81 85 78 66 70 73 76 77 80 83 79 63 48 70 72 84 79 68 62 51 49 54 50 52 58 56 47 43 41 39 37 36 35 34 33 33 28 24 21 20 19 22 27
64 75 87 80 61 70 73 78 81 86 86 81 83 72 57 63 78 93 89 74 61 61 54 59 50 50 46 53 48 45 41 38 34 34 34 32 31 30 24 22 20 18 18 19 23
78 86 85 53 61 72 85 81 75 81 90 91 78 89 59 60 67 78 77 66 64 68 60 62 61 55 48 49 47 44 43 43 33 31 31 32 31 25 24 23 21 18 17 17 16
88 95 78 59 61 67 86 86 81 80 88 95 87 87 61 65 78 89 92 77 66 78 68 76 70 64 55 53 56 51 49 45 37 35 32 30 32 26 24 24 22 21 19 18 17
83 96 95 78 59 63 75 70 69 76 79 85 93 82 64 75 74 91 89 95 71 83 88 91 84 71 60 54 55 56 55 45 36 32 34 36 36 29 25 24 24 22 20 18 18
74 80 80 98 71 61 72 68 67 83 80 80 80 73 73 71 74 94 86 92 80 89 94 92 82 66 57 53 50 46 45 46 38 34 35 36 35 28 27 25 24 22 21 20 20
69 79 71 86 90 61 67 74 78 89 81 79 76 78 80 74 91 90 85 98 97 97 96 95 80 66 59 56 49 50 49 48 44 39 36 36 34 27 25 24 24 22 21 20 20
66 65 55 76 90 71 70 79 81 84 84 76 72 88 77 82 91 85 96 96 97 95 97 95 85 82 71 67 61 59 54 51 48 45 42 39 33 27 25 24 22 20 18 18 18
65 58 51 62 69 74 75 74 75 74 69 79 88 80 76 87 97 87 96 90 96 98 97 98 94 89 87 79 73 74 61 59 55 53 53 46 46 31 28 24 23 23 22 21 20
61 71 48 62 68 67 66 67 71 70 90 85 89 80 75 89 90 82 84 92 91 91 91 97 95 97 96 95 85 77 68 66 63 60 57 51 48 31 26 25 25 25 24 24 24
54 64 55 71 64 67 64 71 84 91 97 95 82 94 82 89 89 77 78 81 89 85 89 91 89 91 93 94 94 83 74 75 72 65 64 50 47 28 27 28 28 27 27 28 28
51 53 46 60 59 59 62 63 69 79 92 87 93 79 86 94 89 80 88 89 91 95 98 96 90 85 95 97 92 89 91 85 69 71 62 55 51 33 30 29 30 30 30 29 28
46 52 52 55 61 61 61 59 69 83 86 89 92 83 93 88 93 92 97 90 87 87 93 96 97 86 78 84 91 85 87 84 66 60 54 53 50 32 29 29 30 30 30 29 30
47 49 53 57 60 56 58 67 77 82 87 84 80 82 87 84 74 88 97 91 84 82 89 91 91 81 78 75 75 85 87 76 77 71 61 43 36 29 29 30 30 31 30 31 34
49 51 55 59 60 63 63 64 69 77 71 74 81 80 82 84 75 86 95 88 80 75 75 79 87 84 83 79 77 74 74 74 70 61 50 35 33 25 28 31 33 35 38 41 44
49 55 56 59 56 62 69 76 73 66 65 66 73 75 72 73 72 75 77 82 76 74 64 67 73 85 79 73 72 71 70 67 63 59 44 34 25 27 30 34 35 39 44 47 50
40 57 58 59 63 68 71 73 73 73 68 61 62 63 67 64 67 71 71 75 69 68 68 68 76 83 80 75 70 71 72 62 62 56 58 56 36 31 32 39 42 47 52 54 56
39 48 56 56 69 70 66 65 68 65 60 54 58 59 59 60 63 64 64 62 65 63 62 62 68 75 71 69 67 65 62 57 53 53 60 53 32 40 42 47 53 57 60 62 58
37 46 54 58 66 67 69 65 65 62 58 55 58 58 61 61 57 60 63 63 67 61 61 59 61 55 58 54 57 63 60 57 57 63 55 50 40 40 49 60 64 65 64 62 62
37 45 53 61 63 66 66 65 67 66 62 61 60 58 60 65 64 60 59 65 62 57 55 55 63 61 55 53 57 59 58 58 58 56 55 41 48 57 66 68 66 65 67 65 62
40 44 51 58 61 63 62 64 63 62 65 64 67 67 65 64 59 62 61 66 58 55 56 57 66 61 58 55 58 61 58 60 59 57 53 53 66 70 70 68 65 66 66 64 63
37 44 47 55 59 60 61 61 60 61 61 60 66 68 69 69 65 64 58 55 52 53 57 57 61 62 60 58 63 64 58 56 56 53 54 72 73 72 70 68 65 64 63 64 62

GFSSW_prec_cthk_048.txt.gz
RH
46 45 43 40 47 46 48 49 45 45 51 68 58 48 35 54 61 68 60 65 55 40 37 35 56 69 63 53 43 44 47 48 45 39 34 32 31 29 28 26 24 24 28 30 29
41 43 42 48 51 55 57 53 52 55 50 53 66 59 47 46 55 68 59 70 66 49 45 39 51 68 69 61 51 42 40 37 38 38 34 32 31 31 29 28 26 24 27 30 29
43 49 54 59 68 68 65 67 69 66 64 65 65 62 60 48 61 55 65 73 73 52 49 44 54 63 72 67 60 49 41 38 39 34 32 31 32 32 31 31 28 26 25 32 31
46 51 59 67 74 79 79 76 79 80 83 84 77 69 62 56 64 61 50 70 84 55 52 49 56 64 68 62 61 57 49 46 43 37 35 34 34 33 32 33 31 27 25 27 34
56 62 63 69 80 69 61 69 71 75 83 84 85 89 74 56 54 64 63 64 84 68 53 48 52 63 61 67 58 57 57 52 50 46 43 41 39 37 35 35 32 28 25 25 28
65 75 80 84 75 56 65 69 78 77 84 84 85 88 81 57 48 74 79 82 79 77 55 55 52 61 64 65 61 52 55 54 53 50 46 44 43 40 36 36 33 29 25 23 23
80 85 91 89 57 56 66 80 75 80 82 84 79 84 77 54 52 64 61 70 75 77 66 60 55 61 61 65 63 58 51 49 50 45 43 41 38 36 34 32 30 28 25 22 19
79 87 94 95 63 54 61 77 81 77 82 86 84 81 75 56 63 63 70 75 77 69 72 70 62 61 62 62 58 61 48 45 36 42 42 38 30 30 29 27 26 25 23 20 17
75 72 81 87 78 55 60 67 68 69 81 93 91 88 77 55 60 92 95 87 81 56 76 82 73 61 65 57 61 59 45 38 37 34 35 35 28 28 26 25 25 25 23 20 17
60 60 69 79 93 64 61 63 61 62 77 88 95 90 84 61 71 95 90 90 77 66 93 95 86 71 68 58 47 48 50 46 36 36 36 33 30 28 26 26 24 23 21 20 19
51 58 55 65 94 72 65 66 71 77 84 81 91 95 86 82 74 81 97 89 69 86 89 93 96 76 65 56 50 48 47 40 32 36 34 33 34 28 27 24 22 21 20 19 19
50 54 54 65 77 73 67 69 77 83 78 77 87 82 93 86 83 81 85 89 88 77 88 95 92 78 71 65 53 47 44 42 42 36 35 36 32 28 27 26 25 23 21 21 20
46 53 60 60 64 69 74 77 79 76 77 79 80 86 99 90 90 95 96 95 88 88 93 91 86 81 75 66 56 52 46 45 43 43 42 37 30 28 26 25 25 23 21 20 20
43 50 47 58 58 61 70 74 74 79 85 90 95 98 88 90 96 92 97 97 92 96 97 96 90 79 73 63 57 55 56 52 48 46 45 42 34 30 26 28 26 25 25 24 24
47 46 50 43 54 54 60 77 82 89 96 91 93 82 87 94 95 94 96 99 98 96 97 97 95 87 77 64 61 63 58 57 54 52 50 44 41 30 27 27 28 27 28 27 26
45 45 46 49 51 65 73 73 73 76 92 91 88 94 88 95 95 96 97 96 95 93 95 98 98 98 93 85 75 67 64 62 60 59 63 48 42 28 28 27 29 29 30 30 28
48 45 50 53 53 52 61 64 65 76 88 89 93 88 92 88 86 87 93 87 86 92 93 96 98 96 96 98 93 82 78 84 83 79 60 48 43 29 29 28 30 32 32 32 31
48 51 55 55 54 53 58 55 62 80 88 87 83 82 88 87 85 78 78 81 76 77 91 96 97 94 96 94 92 97 96 76 68 55 47 51 43 31 31 29 31 34 34 33 33
52 51 53 53 55 57 61 59 68 73 77 71 67 76 81 77 75 88 90 79 79 76 84 95 97 85 83 82 84 92 97 76 68 62 57 41 35 32 31 33 34 35 37 37 38
45 48 52 53 53 53 57 67 72 74 70 65 69 71 68 75 74 77 89 85 78 78 78 81 92 81 79 76 76 79 79 84 83 77 64 41 34 27 33 32 32 34 36 39 41
37 52 50 50 56 56 63 64 64 63 63 65 69 68 70 70 63 70 81 83 75 74 73 75 76 85 80 76 74 74 72 73 67 60 44 29 24 24 27 31 34 32 37 43 46
33 49 51 52 56 61 72 65 64 64 62 62 62 61 61 63 63 64 75 78 76 72 69 68 75 84 82 75 70 65 60 54 54 60 56 48 30 29 29 34 33 37 46 51 52
32 42 50 53 61 60 61 67 65 58 54 53 55 55 56 58 59 62 65 72 73 71 70 66 71 82 78 75 71 66 65 63 57 59 59 42 28 33 34 36 40 50 55 56 56
32 38 45 51 58 60 59 61 60 58 54 54 56 57 57 57 55 59 61 67 66 67 62 58 63 64 56 56 60 68 59 57 58 60 44 38 33 38 36 42 57 59 58 60 60
34 42 44 56 57 57 61 63 62 60 58 54 55 57 60 62 60 56 60 64 66 65 60 60 69 62 52 53 55 55 54 53 55 50 54 41 38 33 42 59 63 63 66 63 60
44 42 47 50 54 56 58 62 62 63 62 61 60 62 59 60 57 59 55 58 62 64 56 56 67 63 58 54 52 56 52 52 53 52 50 46 41 44 62 68 68 66 63 60 59
55 47 45 50 51 54 56 56 57 57 60 61 61 64 65 66 64 61 57 57 58 55 53 54 61 60 57 53 53 51 46 48 49 50 50 50 51 60 70 69 66 64 61 60 58

GFSSW_prec_cthk_051.txt.gz
RH
41 39 43 47 47 48 52 50 50 51 53 50 55 71 60 45 44 58 64 57 64 54 42 36 48 60 71 50 49 62 66 59 57 54 49 53 42 34 30 30 27 26 31 36 34
40 44 48 55 57 63 67 64 63 61 56 59 59 64 73 57 43 46 62 65 66 62 56 44 40 51 72 64 54 50 54 47 49 54 52 51 38 35 30 28 26 26 27 30 32
47 52 55 58 62 71 73 74 69 70 69 63 68 68 69 67 54 33 44 55 70 65 56 58 48 51 61 70 60 50 43 43 52 50 50 44 37 36 33 31 28 28 29 29 31
50 53 63 68 75 77 76 63 53 57 65 71 72 72 78 71 54 37 61 58 67 68 57 60 59 57 63 66 64 57 49 49 48 43 44 43 37 36 34 35 34 31 29 26 30
53 66 77 85 93 84 64 52 61 73 70 71 79 86 86 80 52 67 60 68 63 68 63 60 61 56 61 61 67 66 58 53 50 43 40 42 37 36 35 35 33 33 29 26 24
58 67 80 88 96 77 59 58 65 71 82 70 78 89 95 87 62 64 79 66 74 76 62 60 58 58 60 66 64 70 68 63 56 52 47 47 44 40 36 38 34 33 30 26 24
57 65 68 78 92 68 63 59 72 71 75 74 79 89 94 88 72 65 86 70 74 79 71 61 64 69 63 67 69 74 69 66 61 57 52 50 49 44 40 38 35 32 30 27 25
56 52 55 74 89 70 60 58 62 73 81 79 81 88 88 81 68 91 80 77 70 74 80 68 68 70 72 66 67 67 73 68 58 57 53 49 42 40 39 37 35 32 30 28 26
54 45 51 54 77 84 57 61 57 56 62 82 86 88 85 74 61 81 80 89 85 89 85 72 69 72 70 69 70 69 64 62 55 48 52 48 40 39 37 33 30 29 28 26 25
56 47 48 54 73 89 58 59 57 61 69 81 92 90 82 73 68 70 66 79 96 89 75 84 90 82 75 67 56 50 54 50 50 45 42 43 41 39 35 32 28 26 25 25 24
54 47 51 54 74 76 61 62 70 81 83 83 81 88 84 79 78 60 59 77 83 81 69 85 94 86 61 54 50 47 52 49 53 47 41 37 37 34 34 29 26 24 24 23 21
51 50 53 48 56 62 69 68 70 72 73 76 81 81 80 95 97 98 94 89 75 68 74 94 94 82 72 65 56 53 54 53 60 53 41 33 35 34 30 25 24 25 24 23 22
45 51 52 54 63 64 65 65 62 64 79 85 81 80 89 94 96 94 96 89 74 70 74 83 86 85 80 68 61 56 52 51 53 55 43 38 35 29 27 25 24 23 21 20 20
45 48 51 56 63 80 72 65 66 79 93 93 96 90 86 96 95 94 95 89 76 83 86 89 93 91 81 74 60 63 50 55 56 52 42 40 28 37 30 27 26 26 24 24 24
50 47 50 50 57 60 69 72 81 89 91 92 95 96 98 92 88 94 96 89 89 86 90 98 94 90 84 79 64 69 55 57 59 52 56 46 38 38 31 30 27 27 29 28 27
49 51 51 52 56 53 59 58 73 89 94 99 98 95 96 97 97 96 98 96 93 89 94 96 96 94 86 81 75 71 58 56 58 62 62 46 39 38 32 30 31 28 29 28 28
47 51 53 48 56 55 55 62 73 82 92 93 95 92 97 95 97 97 97 95 95 98 98 98 98 97 94 85 78 69 69 74 76 81 65 52 48 38 33 30 32 33 32 31 31
47 48 49 51 55 50 54 59 64 78 84 92 96 87 91 85 92 90 88 90 90 85 94 99 98 98 94 90 82 76 70 69 64 61 59 54 44 32 31 29 32 32 32 32 33
42 45 49 50 52 54 52 56 68 74 72 69 67 72 75 74 78 81 84 82 79 80 87 90 98 96 96 95 94 93 89 65 56 49 47 40 36 36 33 31 32 34 35 35 37
35 46 49 50 49 52 57 57 63 66 63 58 66 67 67 67 71 73 82 76 79 75 76 83 94 88 86 86 86 90 85 91 77 73 56 45 36 31 32 33 35 38 37 39 40
33 50 49 49 54 50 57 62 60 60 59 61 62 63 65 66 68 70 76 78 74 75 75 77 78 86 83 80 77 81 82 79 78 68 60 43 34 34 34 33 34 35 38 41 44
34 52 48 50 55 58 59 53 52 55 55 57 59 60 63 66 65 66 75 75 70 69 70 72 77 82 79 74 71 66 69 70 73 73 65 57 45 33 34 34 35 33 39 44 48
35 41 47 49 62 55 56 52 57 54 52 53 52 52 54 57 58 57 64 71 71 69 69 65 72 81 77 72 69 68 63 61 60 64 69 54 40 32 33 34 34 38 47 50 52
37 42 46 52 54 56 51 57 57 53 49 49 51 51 50 50 49 54 57 65 69 68 67 63 62 68 69 66 63 71 61 60 65 67 54 45 39 34 35 35 42 46 53 55 57
59 44 47 53 54 53 55 53 53 52 49 48 50 51 54 54 51 51 55 59 61 65 65 64 72 68 60 56 58 60 59 58 63 59 61 48 37 38 37 39 42 57 61 61 60
71 60 44 46 51 52 53 57 55 57 55 52 51 50 52 55 55 57 53 53 58 63 64 60 68 66 64 57 54 58 51 51 52 52 47 43 41 37 36 41 57 64 67 66 63
61 70 60 48 49 52 57 57 56 54 58 57 57 59 59 60 60 59 56 55 54 59 62 62 64 68 63 56 54 53 41 41 43 44 43 48 42 42 43 51 66 71 69 63 61

GFSSW_prec_cthk_054.txt.gz
RH
36 40 43 46 46 49 54 58 64 63 56 53 49 51 57 71 62 49 47 59 55 51 41 41 35 51 69 76 71 85 91 95 82 63 65 61 58 49 38 32 33 31 38 53 45
39 41 43 45 54 59 61 68 73 68 61 61 57 55 59 73 64 53 48 55 53 57 45 41 43 44 66 73 74 68 79 80 78 62 61 67 66 54 40 31 30 29 31 38 38
40 39 46 60 74 81 81 80 78 69 51 50 55 61 70 75 70 49 42 56 62 62 57 47 52 54 60 68 75 67 62 56 62 70 57 59 67 58 42 35 29 28 29 33 32
41 51 56 66 76 90 93 85 73 56 48 55 56 64 75 86 78 59 41 57 79 80 66 61 51 58 58 60 64 69 49 51 58 67 56 53 62 51 41 36 34 31 33 30 30
48 55 59 67 67 86 96 75 55 49 60 68 67 69 80 91 67 65 53 45 70 76 66 64 48 60 59 49 60 72 62 48 53 58 54 49 53 50 42 38 37 35 31 28 28
51 54 56 58 61 88 80 64 57 60 63 76 74 83 85 87 76 70 72 65 60 71 71 59 49 57 62 58 56 62 71 63 56 52 49 44 46 48 39 41 37 35 32 29 27
51 48 46 60 61 86 66 62 60 61 64 68 72 82 85 81 89 72 67 83 76 83 83 61 55 62 72 75 58 62 76 72 61 53 56 53 47 43 44 41 37 34 32 30 28
51 49 46 57 66 82 64 62 56 54 65 79 73 82 87 84 88 76 71 88 95 83 74 68 63 68 71 76 66 65 75 77 67 62 58 57 51 46 47 43 37 35 33 31 28
49 48 43 53 62 84 62 60 51 54 54 76 80 84 86 87 79 71 96 83 93 95 90 73 63 64 78 82 77 66 70 72 70 66 66 60 52 48 44 48 40 36 34 31 28
48 49 47 60 74 75 53 53 57 71 68 77 91 86 83 83 72 69 94 87 75 94 94 80 69 70 79 86 84 60 57 60 65 63 65 63 53 49 45 44 42 35 32 31 28
46 50 52 56 66 61 65 70 79 88 83 91 88 88 78 75 83 71 81 87 91 84 85 81 75 64 62 64 68 67 57 56 59 64 63 60 53 49 45 42 39 35 30 28 26
49 46 51 54 61 58 65 62 63 73 79 67 76 76 70 79 97 97 96 94 97 84 81 78 69 67 73 72 68 59 58 51 59 59 58 61 49 42 40 38 37 34 30 27 26
48 46 47 51 57 68 59 63 68 73 79 77 79 80 73 68 69 78 91 96 89 87 76 71 70 74 77 77 71 61 56 52 56 57 60 59 49 39 36 34 33 32 28 26 24
50 49 46 49 57 56 58 66 78 74 86 84 92 93 95 95 76 61 86 97 81 76 77 73 75 81 88 81 70 67 55 57 58 60 63 57 46 36 33 30 29 28 25 24 23
48 48 49 49 56 55 57 65 76 84 90 88 94 85 92 98 96 93 85 75 75 79 71 74 80 87 92 81 71 70 56 59 60 63 69 63 61 39 40 35 30 27 28 27 27
42 45 48 56 59 53 55 66 79 87 97 98 98 98 97 95 96 96 84 78 76 75 77 80 85 92 96 92 80 74 68 60 61 64 80 61 59 47 38 32 31 30 29 30 29
33 44 46 51 58 60 59 65 78 86 91 98 98 97 92 91 88 91 92 85 78 88 91 96 97 96 95 94 86 79 74 83 83 80 74 57 57 45 36 34 34 34 33 33 31
32 41 45 49 52 55 59 64 70 87 93 92 92 88 94 93 95 98 98 96 88 82 88 95 98 98 94 88 87 82 74 77 71 77 62 58 66 44 36 34 34 36 37 36 36
30 39 44 49 49 57 56 58 65 77 79 80 79 80 83 85 79 91 92 91 91 87 96 97 94 96 97 93 87 90 88 66 73 55 65 53 46 47 42 40 38 37 36 36 37
27 42 44 46 50 55 59 58 61 62 64 64 65 67 66 69 66 72 80 79 82 83 84 86 96 96 96 96 91 86 80 86 86 81 67 51 43 41 41 39 36 39 39 38 37
29 44 46 44 49 57 54 59 55 56 52 58 57 58 60 64 67 71 75 74 75 76 78 84 84 97 94 96 95 95 94 86 80 73 77 60 45 37 37 35 37 40 38 39 41
38 45 45 46 55 59 59 50 53 53 54 54 57 59 59 62 63 68 77 74 71 76 78 80 84 93 89 82 82 85 83 83 98 89 74 70 55 38 37 40 40 37 38 41 43
57 36 42 45 68 56 56 52 53 53 52 54 56 52 56 59 60 62 71 72 69 70 71 70 81 86 84 79 78 78 75 76 76 80 85 83 65 47 45 45 41 39 42 44 47
51 66 41 47 52 60 54 57 57 53 52 49 53 52 52 51 52 55 58 64 66 69 68 66 68 78 81 77 74 76 71 68 70 80 66 64 54 48 43 40 40 42 43 49 52
42 68 59 50 53 55 58 58 59 58 53 49 49 52 54 55 52 53 55 57 60 65 65 66 76 71 64 63 67 64 62 63 64 61 66 54 49 45 42 39 40 44 44 56 56
40 48 72 52 45 51 58 64 59 58 55 53 51 49 50 53 56 57 53 51 53 56 58 63 73 67 62 58 61 64 56 55 59 59 56 57 55 49 45 40 41 44 55 60 59
37 46 58 73 53 51 63 65 65 61 63 57 55 55 56 60 57 56 56 55 53 54 57 63 68 65 67 59 60 62 50 47 46 46 50 54 44 43 43 41 42 46 64 64 62

GFSSW_prec_cthk_057.txt.gz
RH
39 39 38 41 45 53 59 60 61 66 69 63 54 50 49 49 64 77 66 58 59 47 48 37 39 44 65 76 76 93 92 89 91 85 71 76 69 53 45 39 34 43 42 47 54
40 37 43 50 58 64 74 83 83 79 78 74 56 53 56 56 65 60 63 60 60 64 43 39 32 47 61 70 82 88 93 74 72 80 83 83 75 58 51 43 39 38 38 44 50
39 43 49 54 58 61 79 98 96 90 85 76 50 46 53 73 75 49 59 60 62 77 62 41 33 50 59 72 81 79 86 72 80 80 89 84 77 69 57 51 42 37 33 34 42
45 48 54 50 52 59 75 98 97 85 77 55 48 47 52 79 82 62 58 58 57 72 80 54 40 51 64 63 72 71 66 70 74 79 84 81 75 70 59 52 42 36 33 33 37
45 48 52 48 58 63 86 90 79 69 55 51 60 67 75 75 71 77 58 55 57 66 76 71 47 48 59 60 63 67 66 69 66 70 75 76 70 66 65 56 44 41 38 34 34
46 47 45 46 57 69 80 65 69 63 58 60 67 72 78 70 80 83 68 54 66 77 80 75 49 48 57 64 57 56 68 73 71 64 66 70 66 62 64 56 47 43 40 32 32
46 45 42 52 51 62 65 63 61 58 58 62 66 71 80 74 84 83 74 62 82 97 90 75 61 50 52 62 54 57 73 80 75 63 55 56 63 51 59 58 51 43 38 33 30
45 44 44 52 52 62 60 63 52 51 54 76 72 75 80 73 83 85 88 62 70 86 91 80 64 62 59 64 63 65 66 85 72 68 55 49 52 49 48 49 46 41 38 34 33
44 41 42 51 53 52 43 46 53 61 58 73 81 83 85 82 78 86 88 67 81 85 90 83 70 62 66 69 78 74 70 72 69 65 58 49 48 48 44 41 44 43 38 34 32
47 39 41 45 51 46 47 55 65 73 67 89 95 89 89 91 83 76 88 89 77 84 97 91 83 78 70 70 72 68 63 58 60 61 63 60 55 54 53 46 42 45 41 36 33
51 40 38 46 51 51 46 53 62 75 78 77 86 90 93 85 86 73 87 98 90 97 93 88 78 67 60 61 62 68 68 63 56 57 63 62 61 58 52 49 44 43 44 38 34
47 45 36 43 49 56 54 55 64 78 79 80 78 81 78 88 90 83 94 97 96 97 96 92 76 63 62 61 67 67 70 64 56 60 58 64 65 62 52 47 44 41 39 40 36
42 45 41 42 43 48 55 63 75 82 83 78 71 73 73 80 98 94 93 93 91 97 90 80 70 67 64 66 67 64 65 65 62 56 58 59 64 60 52 42 40 40 38 36 36
36 44 47 46 49 53 54 60 69 82 90 77 78 78 80 83 88 96 98 86 95 91 83 82 68 63 65 68 68 64 60 64 62 61 62 55 60 55 55 43 39 36 35 35 34
31 42 46 48 48 53 58 64 72 81 89 89 95 91 82 89 82 82 96 91 96 92 78 80 74 71 73 73 76 72 67 67 64 65 64 58 63 50 51 45 39 35 33 32 34
29 38 43 47 51 56 63 63 75 83 96 97 98 94 88 88 95 95 98 96 92 86 80 78 80 82 77 80 81 76 75 76 73 70 80 59 60 51 51 42 37 37 34 32 31
28 36 42 45 49 52 57 63 70 82 92 99 98 89 92 95 95 90 82 80 73 83 81 81 82 88 93 88 86 84 81 94 93 87 74 52 63 50 45 43 38 35 33 32 31
28 34 42 45 46 49 52 60 69 76 88 89 93 92 93 94 93 94 80 80 78 74 76 80 84 86 90 96 91 83 80 81 80 78 66 51 62 50 42 42 37 34 34 34 33
23 38 40 44 45 48 49 54 65 70 75 82 82 80 82 86 93 92 90 83 73 70 77 88 97 93 98 95 93 92 91 74 75 63 69 56 47 45 48 45 40 37 37 37 37
33 40 42 41 48 49 49 53 56 61 61 62 65 63 68 72 83 88 87 84 82 78 73 84 88 91 94 95 93 91 85 88 91 86 70 62 51 46 44 47 47 46 44 41 41
43 42 46 44 51 51 52 55 53 52 54 58 62 59 60 65 69 75 77 74 77 73 73 77 82 92 94 94 94 92 94 85 79 85 85 64 53 42 44 44 43 46 46 43 43
29 56 43 44 60 57 57 53 51 51 52 54 58 59 60 62 61 70 76 74 72 73 79 81 86 96 93 87 91 88 86 84 89 87 77 73 57 41 41 43 43 43 43 43 43
34 40 61 46 62 63 53 52 51 51 50 52 54 56 58 60 62 65 72 70 70 75 79 79 85 95 94 89 86 94 88 86 83 82 84 81 67 52 48 46 44 45 43 45 47
37 42 47 62 51 60 62 57 57 55 54 51 51 52 54 53 54 59 67 67 67 69 70 70 76 82 83 78 81 86 84 84 89 93 80 82 69 61 60 57 48 46 49 46 50
40 44 47 63 60 56 61 63 61 61 59 52 50 53 57 55 51 52 55 59 62 63 66 70 75 72 72 75 75 70 73 77 76 72 75 65 62 53 52 48 47 42 46 46 54
43 45 41 49 67 54 58 67 63 59 59 58 56 54 54 56 54 57 52 52 54 56 61 66 74 72 64 63 66 69 63 59 62 63 59 59 59 49 46 46 47 44 44 45 59
39 47 50 54 62 77 62 61 69 65 61 55 58 59 57 58 57 56 57 56 56 53 56 61 67 69 70 60 60 60 54 57 54 52 51 59 49 51 50 47 48 45 45 47 63

GFSSW_prec_cthk_060.txt.gz
RH
40 38 40 45 46 55 57 66 73 78 76 74 72 65 56 46 50 63 69 67 64 49 46 41 42 49 68 83 84 90 90 83 77 73 72 67 66 55 46 42 40 39 39 43 47
45 42 45 49 52 51 48 65 88 96 94 87 85 76 60 57 53 53 52 75 76 68 60 45 39 48 61 77 87 91 87 72 65 68 76 75 73 65 53 47 49 42 45 48 52
44 43 48 52 51 48 59 67 85 97 96 90 88 76 55 60 63 44 50 68 72 81 74 52 41 49 61 65 84 91 74 73 70 78 83 82 77 70 61 51 50 46 45 51 54
47 44 47 43 43 53 64 83 96 93 91 88 76 60 52 52 58 55 63 64 70 82 88 59 45 47 63 60 68 82 79 77 77 83 88 90 84 72 66 55 49 44 38 40 45
49 43 39 45 49 54 65 70 67 70 71 62 55 52 55 56 50 78 66 59 64 76 97 71 43 41 50 55 62 74 73 79 84 87 85 92 91 83 72 62 56 52 45 40 40
47 41 37 45 46 52 56 63 63 63 60 55 58 59 65 68 59 84 72 63 62 75 99 81 45 43 46 50 62 66 75 83 83 85 87 90 87 91 78 63 64 57 52 44 40
46 38 38 46 47 44 46 50 51 50 54 55 61 64 65 70 68 83 81 69 59 73 94 89 60 53 44 52 58 63 82 85 80 77 78 80 83 85 78 72 63 58 48 42 38
46 38 37 48 47 43 41 44 47 54 55 65 72 70 77 72 78 87 92 73 61 80 85 90 72 68 52 53 63 67 75 85 70 71 73 72 73 72 74 74 67 59 51 43 37
48 38 36 43 46 48 47 45 49 53 60 79 80 81 82 79 84 89 93 75 67 77 90 96 78 79 61 58 66 73 72 70 69 68 69 66 65 61 67 66 62 60 60 50 40
48 44 34 41 45 45 52 55 54 62 72 86 87 91 89 89 84 86 79 75 84 90 98 98 86 78 69 62 60 59 62 58 58 62 66 66 60 50 55 55 50 51 51 45 42
44 45 35 40 49 52 52 61 57 62 68 77 90 89 91 86 86 88 76 84 98 98 98 93 88 72 61 59 51 55 62 62 54 56 64 67 65 55 47 47 42 40 40 43 39
34 42 41 45 52 56 57 59 69 66 69 76 81 85 88 84 90 86 84 93 98 98 92 97 83 69 66 60 60 61 65 66 59 56 60 67 64 61 53 45 47 45 42 42 44
26 39 44 48 54 57 60 68 69 68 69 78 80 79 87 85 90 74 66 78 79 90 92 91 82 74 70 66 65 59 62 64 62 59 58 58 61 57 52 52 48 47 45 42 40
23 37 39 47 51 57 62 65 76 76 78 85 85 83 93 93 96 94 97 90 81 94 92 90 80 77 76 73 70 68 57 60 65 69 65 56 64 48 52 52 50 48 44 41 41
23 34 40 44 50 53 61 63 76 86 86 89 87 75 91 93 95 98 98 97 92 95 85 92 79 73 70 69 70 68 61 61 63 70 68 62 64 46 48 49 47 48 43 40 39
22 32 40 42 47 49 57 62 70 82 93 94 89 78 76 86 90 96 98 95 93 92 87 83 79 76 77 75 75 71 67 69 73 75 80 64 61 50 44 45 48 49 41 38 39
20 32 39 42 45 46 51 58 67 82 88 93 89 85 82 74 85 96 87 92 91 90 90 88 83 75 78 78 77 76 75 91 92 91 80 65 69 43 38 41 44 50 45 42 41
30 30 37 42 43 44 49 50 67 77 91 90 94 96 89 88 82 90 86 91 85 76 85 83 87 82 74 74 78 80 79 83 86 87 75 66 64 43 37 37 43 47 48 42 42
27 35 36 39 45 44 42 50 55 67 74 78 73 86 95 86 82 78 71 73 72 71 73 75 80 80 82 84 84 84 89 75 76 72 78 63 48 36 36 37 42 47 48 41 37
25 40 38 41 48 47 43 50 53 57 62 61 61 60 79 90 84 82 78 69 71 66 63 66 78 82 81 90 95 90 86 87 88 84 75 64 55 43 38 41 44 51 49 44 39
29 36 48 42 50 47 50 50 49 48 52 55 56 58 62 78 83 85 80 74 66 71 73 77 81 89 91 91 93 95 90 84 83 84 84 74 57 43 42 45 47 49 53 51 45
28 38 42 53 55 52 51 52 46 47 49 53 54 55 58 58 67 75 77 74 75 75 77 75 81 87 84 83 86 87 87 85 90 85 80 79 62 45 44 50 52 52 52 52 51
33 35 41 50 55 57 54 50 49 48 48 51 52 53 53 56 61 68 71 73 71 73 75 73 80 91 93 86 86 89 88 85 84 84 83 82 67 53 47 47 51 53 55 51 52
33 41 40 49 59 58 62 56 52 51 49 49 50 51 53 51 53 61 67 67 72 75 75 75 78 81 82 76 80 84 86 85 86 90 78 77 67 63 62 60 59 57 51 51 54
33 44 44 49 58 65 67 60 57 59 56 52 52 53 54 52 49 53 59 63 65 65 69 72 77 77 77 76 77 78 80 84 86 80 85 71 73 64 65 61 60 55 53 54 54
32 40 42 45 52 60 64 72 62 65 61 61 57 58 56 55 51 51 51 55 58 60 64 69 76 74 68 68 71 75 69 74 74 76 75 71 67 59 56 55 54 53 52 48 51
31 40 46 55 56 57 66 80 69 69 64 62 61 62 61 58 55 55 56 52 51 53 58 63 71 70 68 67 66 64 55 58 59 59 56 62 47 56 51 48 48 50 52 46 46

GFSSW_prec_cthk_063.txt.gz
RH
46 42 41 45 44 44 48 53 52 62 81 87 82 79 71 60 50 46 55 66 73 58 50 50 48 50 68 82 84 92 89 76 73 69 62 62 60 54 45 40 41 39 39 36 36
41 45 42 41 40 39 42 47 65 74 92 99 96 91 87 70 57 42 47 59 82 73 64 60 42 53 64 75 85 96 91 71 64 69 70 69 70 62 51 44 46 45 42 43 40
48 43 41 36 44 44 44 49 65 93 97 97 98 95 85 71 60 42 42 57 75 88 75 65 52 52 60 70 80 92 75 69 72 77 79 75 80 70 60 49 48 56 45 46 46
47 40 35 40 40 43 44 51 53 75 87 95 94 89 80 62 57 64 45 61 66 86 84 74 63 49 57 63 79 91 82 83 84 83 81 79 81 82 68 57 50 52 58 51 52
46 40 35 41 42 40 37 43 49 53 58 61 62 63 64 61 47 67 64 70 83 84 87 91 62 44 53 57 64 76 84 88 91 86 87 84 83 89 75 63 54 50 58 52 53
48 40 38 45 45 39 41 39 43 44 56 55 56 58 55 55 51 53 83 71 78 70 85 93 63 40 50 59 63 70 78 88 90 89 88 87 86 87 76 67 58 53 54 49 44
44 40 37 44 46 43 45 41 41 47 52 51 57 57 57 53 57 52 91 71 76 66 87 99 70 47 48 58 62 67 72 85 90 89 84 88 94 88 77 70 65 66 62 57 52
45 42 39 41 45 50 48 47 47 57 62 75 68 63 60 62 61 55 85 74 66 61 84 97 83 54 52 55 62 71 76 84 85 83 83 91 89 86 86 77 70 69 62 56 51
41 46 42 43 46 53 59 50 48 55 68 81 79 76 75 78 74 81 91 80 74 68 84 98 89 66 57 54 61 73 78 76 80 79 78 84 78 83 83 83 74 68 64 59 51
36 41 47 44 53 53 64 55 55 60 65 82 89 82 83 89 88 93 94 85 85 84 98 98 86 75 67 58 58 53 55 60 65 68 71 75 70 74 77 79 82 72 66 62 55
29 40 47 44 51 59 68 72 63 73 77 82 84 87 90 92 89 90 85 82 78 91 96 98 83 74 62 53 45 48 51 56 54 58 68 71 75 75 73 71 71 68 61 60 59
21 32 43 44 47 57 66 73 76 83 87 79 85 85 83 91 92 92 78 75 77 82 95 98 84 80 71 62 54 50 57 64 62 58 67 74 77 77 74 64 58 54 56 53 50
17 28 40 45 48 52 63 69 77 84 94 81 74 75 82 88 92 88 80 86 89 92 97 93 81 80 74 68 61 55 57 63 62 61 64 65 70 73 67 60 55 46 45 41 42
14 29 37 45 46 53 58 61 68 80 86 95 91 83 86 88 88 86 88 91 98 90 96 94 90 82 76 72 63 63 59 63 65 67 70 62 69 54 59 56 52 46 41 41 42
16 28 38 41 44 49 57 51 60 78 85 82 85 85 85 78 79 89 91 97 98 97 94 92 84 79 74 63 62 63 58 59 61 64 64 63 67 47 50 52 43 41 43 44 42
27 26 37 40 42 47 62 62 63 70 89 89 80 75 77 84 90 96 97 94 96 95 94 93 87 81 74 71 65 64 66 65 67 69 76 63 65 51 45 42 40 42 43 45 45
19 36 34 40 42 44 52 58 62 74 86 94 84 83 89 83 91 96 92 81 87 96 96 94 91 85 81 76 72 71 72 86 86 84 75 62 62 42 41 41 38 39 43 45 50
21 29 39 40 46 43 47 48 59 64 75 87 87 84 86 90 95 90 88 86 82 85 88 90 89 80 76 73 72 73 73 79 81 81 71 65 58 44 39 39 39 39 42 44 49
23 29 39 41 46 46 45 48 51 58 62 69 79 80 80 80 84 82 85 89 83 77 78 76 78 76 75 73 74 76 84 71 74 70 75 63 49 39 40 37 35 39 42 47 52
25 31 36 47 47 48 46 48 51 52 55 57 60 69 79 74 73 78 77 78 75 70 65 66 76 73 74 70 76 78 84 85 82 78 75 62 59 46 39 37 35 38 41 47 52
29 35 37 42 51 50 51 50 47 48 53 53 53 56 72 77 74 72 73 70 68 71 64 64 65 78 81 82 81 88 88 86 80 76 73 72 57 49 45 41 38 42 43 48 52
28 40 38 45 49 51 52 51 47 47 47 54 56 51 58 63 73 73 70 64 60 61 61 64 69 81 89 83 81 88 89 85 84 78 78 75 61 51 50 44 46 46 51 51 53
30 36 39 40 49 54 53 53 50 49 49 52 55 56 55 57 65 73 73 69 63 63 67 68 79 90 90 87 85 90 86 82 81 81 81 83 68 55 53 53 54 55 55 58 56
29 37 40 44 45 50 56 59 55 51 49 51 56 57 57 58 60 69 72 74 76 74 76 76 78 80 82 76 78 85 82 84 85 90 79 74 70 66 58 62 61 62 62 57 58
27 34 37 46 50 47 56 62 61 59 56 52 55 57 59 60 58 63 68 73 76 80 84 83 85 83 82 79 77 78 79 83 84 78 83 70 71 69 67 65 64 61 63 67 58
26 30 32 37 46 51 52 62 65 64 62 62 56 61 60 56 55 56 56 65 69 72 73 75 79 77 70 73 75 77 71 79 81 80 79 79 72 70 69 69 65 65 64 59 56
29 32 39 42 44 50 56 57 63 68 62 69 70 65 63 63 59 59 56 54 57 61 66 69 74 74 73 72 67 66 60 62 65 67 69 75 58 57 57 57 56 58 57 58 53

GFSSW_prec_cthk_066.txt.gz
RH
37 40 39 36 34 35 39 39 38 42 61 65 74 95 81 71 59 46 38 45 70 74 62 62 52 52 59 67 74 79 95 83 74 69 58 58 55 55 47 42 44 44 40 37 36
41 41 35 32 37 38 39 38 39 53 88 90 92 96 96 91 75 52 43 42 58 87 79 69 55 52 56 65 77 84 90 83 67 70 66 68 62 61 54 47 47 44 47 44 40
42 40 32 36 39 41 37 30 32 44 68 90 93 95 96 92 78 57 48 41 57 76 91 72 73 56 53 63 76 84 77 81 77 76 77 76 71 68 62 55 52 46 47 55 52
39 43 33 39 42 39 39 33 33 34 46 64 86 96 96 85 70 66 54 45 62 66 95 85 81 58 54 60 69 80 78 88 84 83 77 78 76 70 68 61 54 48 47 55 60
40 44 36 43 45 41 45 35 35 38 39 48 56 66 74 76 66 58 65 60 71 92 81 92 85 60 55 59 60 64 73 87 89 88 81 77 80 77 69 64 57 52 50 55 61
37 44 39 47 45 48 47 41 39 43 46 45 46 59 60 63 58 49 67 75 73 87 79 95 90 64 53 56 60 59 67 78 89 92 86 83 82 80 69 66 61 55 54 57 61
34 41 43 45 47 50 48 47 47 53 54 62 57 52 60 55 52 52 56 80 83 81 75 94 90 73 53 56 59 65 69 90 94 94 91 87 88 78 78 73 64 61 59 62 60
30 42 46 46 51 53 54 52 57 55 59 71 74 60 57 59 54 51 52 83 72 79 77 95 96 80 64 56 61 70 71 88 91 94 96 93 87 79 82 80 72 66 62 60 59
26 40 45 46 49 55 57 55 66 64 70 81 83 76 71 68 61 57 55 84 75 80 82 95 98 80 67 57 67 73 74 74 86 86 86 91 82 76 82 85 79 74 69 65 59
25 31 43 46 47 57 58 62 71 73 74 83 87 86 84 85 76 74 72 85 86 88 83 94 98 85 79 59 58 60 67 61 67 65 76 80 74 76 80 86 82 78 71 65 59
22 22 39 46 46 51 57 70 75 78 76 90 91 93 89 93 83 85 97 91 94 88 89 98 98 78 70 53 44 52 60 62 57 61 71 76 79 76 78 82 84 76 70 68 63
16 19 37 46 48 49 55 68 76 84 82 79 86 83 90 95 97 94 92 88 98 79 87 98 94 81 73 54 52 49 55 61 58 61 70 76 78 75 72 75 85 78 75 69 66
22 20 36 44 48 54 54 66 73 78 94 87 77 75 83 89 88 90 85 96 89 92 98 95 86 82 74 60 55 51 53 54 56 58 65 67 74 70 67 70 77 78 75 68 62
24 20 37 41 46 58 60 63 71 76 85 98 93 93 84 80 88 84 79 83 92 98 98 97 84 78 79 65 55 56 49 48 57 62 71 64 75 63 64 65 71 68 67 56 53
19 29 36 42 44 52 63 61 63 76 79 89 87 86 84 82 78 78 76 70 89 94 96 98 83 84 83 71 64 58 53 53 59 65 64 63 68 48 49 54 54 54 57 57 48
21 25 34 40 46 49 56 60 64 70 74 83 84 74 77 80 84 82 78 76 82 87 96 96 93 87 84 74 68 62 58 63 71 73 79 69 69 51 46 39 41 52 54 51 49
22 25 35 38 47 46 50 54 61 69 77 75 81 80 87 91 84 90 87 88 95 98 99 96 97 91 81 75 70 65 66 78 81 81 78 61 64 44 44 42 38 39 44 46 44
21 25 30 40 45 48 46 49 60 63 74 77 78 79 89 88 88 91 89 97 91 89 90 96 96 85 77 73 70 70 63 69 71 77 68 61 60 44 38 41 41 39 42 43 41
22 26 31 36 46 47 46 48 53 59 62 70 75 75 80 82 83 84 76 85 84 79 85 90 91 87 82 77 73 77 73 60 63 64 69 58 48 39 38 38 40 40 40 41 40
25 30 34 35 46 46 46 48 52 55 59 61 65 67 72 73 81 78 76 78 79 78 77 78 86 84 82 78 79 74 68 74 76 73 70 57 54 48 42 38 36 40 40 45 45
29 34 37 38 44 45 47 50 50 51 53 56 60 65 69 69 76 75 74 78 78 77 69 66 67 78 73 74 76 78 81 78 78 75 72 69 55 45 45 41 37 37 38 39 45
29 38 40 45 45 46 48 49 48 47 49 54 58 65 68 74 71 69 70 68 68 66 68 69 72 79 74 71 71 72 77 77 86 80 80 76 60 45 48 50 44 43 41 43 46
30 35 41 44 46 48 46 47 51 51 48 51 56 58 62 65 73 74 70 64 63 63 66 64 74 78 79 78 76 79 75 73 80 81 81 84 63 55 54 53 54 53 51 52 53
29 36 40 43 48 49 50 53 52 54 50 50 55 60 60 63 69 76 77 73 69 65 62 59 63 62 69 66 74 82 78 83 86 88 82 69 67 65 65 62 60 60 60 60 56
27 34 38 43 48 48 53 57 59 61 56 52 54 59 63 64 67 71 76 77 81 79 75 70 74 75 73 73 78 79 80 79 86 86 83 72 71 70 69 68 63 62 63 62 62
25 29 31 36 45 49 55 62 67 66 67 65 59 63 63 64 63 65 66 73 78 83 86 87 88 83 76 76 80 82 81 85 84 82 82 80 78 74 73 71 68 64 62 62 63
25 28 32 38 39 48 51 54 66 66 73 72 72 67 64 66 63 61 61 60 69 74 78 79 81 79 77 75 72 71 65 68 74 74 76 81 66 68 65 65 67 66 62 70 67

GFSSW_prec_cthk_069.txt.gz
RH
31 37 33 27 30 34 34 33 30 30 40 52 78 70 75 98 84 65 45 35 50 81 75 56 59 55 53 60 79 83 87 85 85 73 73 62 56 48 47 45 46 47 48 50 52
32 37 34 29 35 37 33 31 28 32 33 41 77 89 90 96 97 69 57 43 43 66 83 72 60 56 51 58 68 79 83 76 77 80 78 70 61 55 52 51 51 46 47 46 50
31 36 36 31 40 37 36 32 32 35 34 38 66 94 97 99 96 81 62 47 44 56 75 86 72 56 62 57 66 70 67 67 76 81 81 76 70 62 57 56 55 51 47 52 51
31 34 35 32 42 39 39 38 39 36 38 40 53 80 98 95 86 82 73 51 47 59 75 89 84 66 63 60 63 64 66 71 75 85 79 79 72 69 64 61 56 52 48 54 53
27 33 36 34 43 41 42 42 41 42 40 47 44 63 72 87 79 72 69 55 51 64 75 87 92 79 59 59 61 61 74 73 82 81 83 82 79 72 70 66 61 57 52 54 55
25 31 37 37 41 46 44 46 49 49 48 55 56 62 58 63 68 62 58 57 54 65 80 88 93 84 73 58 61 60 68 77 81 86 89 86 82 76 73 68 63 61 58 57 59
27 28 38 39 42 50 49 52 58 52 54 64 70 61 49 55 59 64 53 58 63 79 81 80 96 86 78 61 63 62 66 75 86 85 90 88 83 73 72 70 65 63 62 59 59
30 27 37 43 44 53 56 58 59 57 59 76 76 64 58 60 60 54 49 57 69 95 85 84 96 91 79 65 60 75 69 76 80 83 88 92 77 75 75 73 70 65 62 59 57
33 25 29 44 45 50 59 61 63 64 66 76 79 73 69 66 60 54 48 58 76 90 87 79 96 97 81 67 67 75 71 66 74 80 82 87 85 76 77 79 75 69 63 58 56
39 23 25 44 44 47 58 64 67 68 70 69 78 76 80 72 66 64 52 62 81 90 90 94 98 97 84 70 64 65 64 65 63 74 79 90 88 86 82 80 78 73 70 63 56
35 19 22 40 44 46 54 65 69 74 65 73 80 82 95 92 72 65 56 73 91 98 94 84 97 90 80 67 56 55 62 61 60 67 80 84 82 85 83 80 79 78 72 70 64
25 23 24 38 42 46 51 59 68 78 77 72 70 76 84 95 84 85 75 86 92 96 85 96 98 91 83 71 61 56 62 61 60 64 71 77 78 75 74 74 72 72 76 72 68
24 21 24 38 39 45 47 54 65 71 80 92 93 92 82 91 86 96 86 88 90 87 75 92 94 87 81 76 67 61 56 60 60 64 64 67 72 71 67 68 68 67 73 74 67
24 20 32 35 39 44 50 52 60 69 78 86 91 89 86 81 88 87 92 95 98 86 80 87 91 85 83 77 69 61 51 51 55 58 66 60 63 52 53 60 63 59 67 70 67
25 23 29 36 41 44 49 54 60 67 78 78 86 86 81 83 80 90 88 94 84 87 95 93 90 88 85 78 65 54 50 50 52 55 54 55 60 43 45 47 51 54 62 72 72
24 26 31 40 44 45 48 55 61 64 79 80 85 95 96 80 73 81 86 85 88 92 97 94 92 89 89 75 60 55 55 57 59 58 65 55 59 50 44 41 44 52 58 66 74
24 28 33 39 44 47 46 50 60 65 68 77 88 89 90 85 70 74 76 89 95 97 99 95 92 91 89 79 70 60 63 73 73 73 67 55 60 49 47 44 43 43 43 53 60
25 30 36 38 45 47 49 50 59 62 69 73 78 88 90 81 72 70 75 90 84 85 98 99 95 90 85 78 77 66 61 65 71 72 64 60 62 49 44 45 47 44 40 42 45
27 33 39 40 45 47 50 48 53 58 63 68 71 75 80 81 84 75 80 86 78 83 86 90 97 92 89 86 73 68 68 59 64 62 60 53 49 40 37 37 36 37 36 36 41
30 36 40 42 44 48 49 49 51 55 58 63 67 67 74 75 82 75 83 84 87 85 81 81 91 87 86 79 76 70 63 68 67 65 62 52 49 44 40 39 35 32 32 36 36
32 39 42 43 46 48 50 52 55 55 56 56 62 69 69 76 76 71 74 82 81 82 80 78 78 89 81 79 79 75 75 72 67 67 65 59 48 44 46 45 43 39 36 37 38
29 38 40 43 46 49 51 52 53 55 56 55 61 68 74 74 80 78 76 78 78 74 75 76 78 83 83 78 79 77 74 69 74 72 72 67 56 49 48 50 48 47 44 42 42
29 33 40 42 44 48 48 51 52 54 56 56 60 62 68 73 72 74 76 75 77 77 74 69 76 80 82 74 73 76 72 69 69 71 74 72 59 47 51 55 55 52 51 48 51
28 34 38 41 42 46 51 53 54 55 55 57 60 63 62 69 76 80 77 73 72 73 73 71 74 70 71 64 68 75 74 74 73 75 66 57 56 56 56 59 61 58 57 58 55
26 31 32 38 42 45 50 54 59 62 60 57 56 64 66 67 71 76 80 81 76 76 75 71 72 72 70 68 70 72 78 80 83 76 75 62 59 62 65 65 66 64 62 61 62
24 28 28 32 39 43 47 56 61 63 66 65 61 61 64 67 65 71 71 74 80 79 76 76 79 72 69 71 74 78 77 79 78 78 76 76 70 69 67 67 67 67 66 62 63
24 26 29 34 35 41 44 47 59 63 66 66 71 69 64 70 70 67 64 62 69 79 85 88 89 84 81 77 69 67 66 69 72 73 73 77 65 64 63 61 62 67 66 63 62

GFSSW_prec_cthk_072.txt.gz
RH
28 34 37 34 29 30 32 35 31 28 28 28 31 41 75 69 90 95 75 53 42 81 66 48 65 67 70 82 77 88 76 70 62 71 71 67 59 50 43 40 43 53 56 61 70
27 30 34 32 29 31 35 36 35 28 30 31 35 42 91 88 87 98 85 61 39 62 88 62 58 73 67 78 78 88 68 54 52 68 71 72 67 59 49 45 43 44 52 54 61
26 28 33 33 31 35 36 38 39 33 31 34 38 43 90 98 98 97 91 66 45 54 82 85 70 69 72 70 77 82 60 60 66 70 77 80 73 66 56 53 48 45 47 55 58
31 25 30 36 34 37 38 43 42 39 34 37 44 46 74 97 98 97 93 78 51 58 73 83 85 75 65 61 68 73 89 85 76 70 75 77 77 72 70 60 54 51 49 53 57
34 26 30 36 35 40 43 43 47 44 41 43 52 51 61 81 90 92 85 79 57 55 67 78 91 83 65 56 63 68 69 75 77 72 77 79 81 80 76 68 60 56 54 55 60
38 27 26 37 38 41 50 46 52 50 43 46 57 57 52 58 81 70 72 74 63 60 68 74 83 85 68 59 63 63 65 68 72 70 76 75 76 79 76 72 66 61 58 57 58
35 31 24 34 40 45 51 49 51 45 46 50 52 52 50 51 58 71 60 63 62 65 76 77 87 89 75 59 59 65 66 67 74 69 76 79 85 78 77 76 74 69 64 61 58
32 38 25 29 41 43 50 51 52 48 50 54 59 55 49 49 56 57 56 52 56 69 75 79 86 90 84 71 55 71 66 73 74 77 84 86 71 72 78 79 75 74 69 66 61
33 37 23 27 40 41 49 53 55 51 55 57 64 70 60 53 57 55 52 52 56 72 82 91 89 94 87 79 63 74 64 67 77 75 86 80 74 83 84 80 75 76 71 68 65
33 33 25 31 40 40 46 52 58 57 58 62 68 75 74 63 62 60 53 47 63 80 85 86 91 97 90 85 66 57 59 64 64 68 76 77 80 79 75 77 74 75 75 71 66
31 27 28 33 40 39 45 53 61 65 69 73 82 84 90 77 63 64 51 49 85 90 99 91 93 97 77 75 67 58 63 73 62 65 69 75 74 73 76 82 77 72 70 70 68
27 26 23 35 39 39 44 52 59 64 75 80 85 87 93 85 70 64 52 61 90 97 88 87 96 96 83 80 72 69 59 69 67 63 65 68 72 71 73 72 75 74 70 68 68
26 26 25 36 37 39 44 51 57 65 71 84 91 85 93 97 90 81 70 89 90 98 89 85 94 95 88 78 70 64 56 61 57 63 64 64 65 65 65 65 71 70 71 69 64
26 26 28 31 40 43 44 49 55 64 74 88 84 85 88 93 95 88 90 84 85 97 94 90 90 90 87 75 71 69 56 56 56 59 56 53 43 49 57 60 59 60 62 65 72
27 26 29 32 40 45 44 50 56 62 75 80 86 73 80 88 89 91 92 87 84 78 76 87 91 88 86 77 71 64 56 54 54 51 52 52 52 40 46 47 47 55 61 63 67
26 27 30 33 42 44 47 50 57 66 79 79 90 73 79 80 85 85 95 95 83 84 88 88 89 89 86 80 73 64 57 53 51 53 58 47 48 44 41 39 38 42 50 59 63
25 28 33 35 38 45 48 47 64 68 71 79 88 75 72 76 78 84 88 84 83 88 91 91 89 89 84 78 73 66 59 72 69 70 55 50 49 37 35 39 37 38 41 46 57
26 30 34 38 39 45 46 48 63 61 70 73 82 82 73 68 75 87 87 93 91 92 90 93 95 92 88 78 69 70 60 56 56 56 49 49 50 38 34 37 39 39 38 39 44
27 32 37 40 41 44 47 51 53 63 63 66 76 77 80 77 76 82 85 90 80 84 89 85 94 94 95 86 75 71 66 51 53 52 49 44 44 37 34 37 36 36 39 40 39
28 34 39 42 43 47 48 49 50 54 59 63 67 72 72 76 73 74 88 81 76 82 82 79 91 89 89 83 77 69 61 62 60 62 51 42 39 36 36 36 35 34 33 34 37
31 36 40 42 44 46 49 51 51 55 56 57 60 65 72 74 72 72 79 79 77 83 81 79 80 92 85 83 83 71 66 63 58 56 52 46 38 36 38 40 40 39 38 36 33
31 36 40 42 45 47 49 48 50 53 56 55 59 66 69 78 73 76 81 82 84 81 77 75 79 89 82 83 80 76 68 63 64 65 59 54 43 40 42 44 44 43 43 41 39
31 34 39 42 46 45 44 47 48 51 52 55 57 60 66 71 75 76 77 80 85 77 73 73 76 87 88 78 76 77 67 64 63 64 71 61 53 43 43 46 47 48 46 46 46
30 35 37 42 42 42 45 47 48 51 52 54 58 58 62 70 70 75 78 79 83 81 78 75 75 70 67 62 61 72 66 67 70 75 58 55 50 44 45 48 50 49 48 48 49
27 28 32 38 41 41 45 49 50 52 54 53 58 59 61 65 72 80 78 74 77 77 74 75 82 75 65 64 66 66 61 61 70 63 66 58 56 55 49 52 53 54 53 54 55
26 26 27 32 36 41 43 49 52 54 57 58 57 61 62 65 69 73 74 78 80 78 73 73 80 72 70 69 69 69 62 61 65 68 67 65 62 57 59 57 57 58 59 58 57
24 24 26 33 33 38 39 45 50 54 59 61 63 63 65 69 69 70 68 67 70 75 82 83 78 73 75 69 65 60 56 59 63 64 65 68 62 58 57 54 53 57 58 59 61

GFSSW_prec_cthk_075.txt.gz
RH
30 24 34 30 31 30 31 34 37 33 31 29 28 29 33 36 59 61 63 84 70 52 76 60 60 69 75 91 71 86 85 74 66 76 63 51 49 55 43 41 46 58 71 73 72
34 26 28 34 33 31 30 36 40 36 34 30 31 34 39 55 86 83 76 92 85 53 87 77 55 72 73 85 83 88 91 65 54 56 61 54 56 55 54 44 44 51 59 69 73
35 32 24 34 36 33 32 37 41 40 34 36 35 41 43 64 93 91 86 98 86 52 73 87 63 66 76 81 82 89 76 71 73 71 64 61 54 56 59 60 51 45 52 61 73
29 38 25 30 38 36 38 39 41 44 38 38 37 43 45 61 97 98 94 99 89 55 69 91 79 68 73 71 83 81 85 81 73 71 79 58 62 62 67 72 54 48 49 58 64
30 35 32 23 38 39 40 45 42 47 41 39 41 45 52 66 86 91 94 95 83 60 63 82 83 67 64 67 75 87 84 78 91 85 62 60 63 67 72 70 60 53 51 57 62
30 32 38 24 33 41 43 48 44 42 42 42 47 47 51 59 70 81 89 88 83 64 69 79 89 75 62 67 68 65 81 80 85 66 65 63 62 70 76 78 68 60 56 59 60
32 32 36 27 31 42 45 49 46 43 48 49 53 52 51 53 61 74 81 83 81 72 76 77 92 91 79 62 69 69 68 79 73 81 89 79 72 65 65 75 75 67 61 62 57
31 32 32 28 33 44 45 49 50 51 52 58 61 65 58 47 58 74 67 74 74 77 80 79 90 94 88 78 74 74 71 82 70 86 85 72 58 62 66 74 78 76 66 64 62
31 31 30 29 34 43 41 49 52 56 61 66 70 72 70 53 63 69 66 63 69 78 73 76 90 97 92 76 80 73 68 69 72 77 79 67 56 70 75 77 79 77 73 67 63
28 29 27 24 37 43 39 45 54 60 68 76 79 83 80 61 61 65 66 53 62 72 78 82 87 94 92 89 75 67 60 63 66 76 69 72 72 78 77 73 76 75 77 72 68
28 27 24 23 37 41 39 49 61 69 75 82 80 82 85 63 60 68 60 54 62 72 80 93 84 81 74 81 65 58 53 69 65 73 74 78 81 82 79 78 77 80 77 74 71
28 27 23 24 33 38 38 50 58 63 75 83 86 83 89 71 61 67 55 59 66 78 80 91 83 81 86 81 82 66 60 71 72 72 73 75 68 73 68 65 70 72 73 71 73
27 27 23 27 31 39 44 47 54 61 72 84 77 83 85 88 65 62 53 57 66 86 86 93 75 87 95 92 86 64 59 72 72 67 68 66 62 58 58 67 61 64 65 68 68
27 26 24 29 34 42 45 43 53 60 76 77 73 69 84 96 81 63 65 79 84 81 80 86 85 91 94 80 72 77 65 68 68 75 63 56 44 46 49 55 55 60 62 68 71
26 24 25 31 36 44 45 44 54 61 78 70 72 67 77 91 89 95 92 85 89 97 81 78 83 97 89 79 74 72 71 69 68 68 61 60 57 46 46 45 55 59 57 64 70
26 24 28 33 36 40 44 45 55 70 76 74 69 72 71 77 80 86 92 96 91 84 81 81 84 92 90 79 77 74 67 67 66 64 67 54 49 37 38 38 41 52 50 55 62
25 26 31 34 40 41 44 48 64 69 68 72 69 68 63 66 75 87 93 87 85 86 85 88 88 92 93 81 74 70 67 76 70 74 64 51 48 41 43 38 37 39 46 45 49
25 28 32 36 37 38 43 49 64 56 66 71 65 71 72 72 81 85 84 82 79 76 79 92 96 90 86 78 75 75 67 61 57 56 46 51 49 40 33 31 32 35 36 38 42
27 32 36 37 39 39 45 56 54 57 58 67 74 68 72 74 80 83 87 88 81 76 81 82 91 87 85 85 79 81 77 66 62 57 53 52 41 35 30 34 32 30 31 35 35
31 36 38 39 39 41 45 49 49 51 53 58 74 70 70 73 78 82 90 82 83 87 81 80 95 92 86 84 77 77 76 66 63 65 48 44 38 41 32 33 33 33 33 33 35
36 40 40 40 41 43 47 50 49 52 51 56 58 63 67 66 70 75 83 77 75 82 81 78 79 93 90 83 81 72 70 68 64 56 56 45 43 37 35 36 36 36 35 34 33
38 41 41 40 44 43 46 45 47 50 51 53 56 65 66 70 63 68 79 74 71 80 81 79 81 90 85 81 79 77 69 62 63 61 53 55 48 40 37 37 41 41 40 39 38
39 40 41 42 45 44 40 44 48 49 50 53 54 57 64 71 71 68 73 77 77 78 79 76 83 94 88 82 78 77 72 69 64 70 74 60 49 44 40 40 42 44 42 42 41
36 41 41 43 40 40 40 43 46 47 49 52 53 51 61 64 69 69 74 80 84 82 79 75 76 80 80 76 68 75 65 67 71 76 60 57 49 47 44 44 44 46 46 45 44
30 31 35 39 37 37 38 44 48 47 48 51 55 54 57 63 67 71 72 76 81 83 81 78 87 82 71 69 70 71 69 67 73 64 71 55 56 51 52 49 48 48 47 44 44
31 27 28 31 32 37 39 43 47 51 50 50 51 55 57 60 64 75 74 73 75 77 77 76 83 77 72 68 68 70 62 61 60 59 61 58 56 57 52 51 51 46 44 47 50
26 24 25 31 30 35 37 44 46 48 52 53 54 55 60 65 68 67 70 69 74 78 78 81 78 79 76 66 63 61 52 53 56 55 56 57 57 56 55 54 51 51 49 48 51

GFSSW_prec_cthk_078.txt.gz
RH
28 31 29 29 32 31 28 30 34 34 33 32 29 30 30 32 37 41 47 45 60 72 57 64 68 58 79 76 81 81 85 73 63 67 71 59 51 49 48 48 51 64 68 72 75
28 29 33 24 32 36 31 30 37 36 37 32 32 34 35 36 45 65 82 74 62 80 69 57 77 64 79 79 88 87 93 68 58 66 74 64 58 50 51 49 51 54 67 80 75
28 29 32 31 24 36 36 32 35 38 42 35 35 39 39 40 58 95 95 90 76 82 76 61 94 66 79 81 89 95 89 70 80 75 75 73 64 52 55 61 50 44 57 73 81
27 30 32 35 25 29 39 35 42 41 49 38 39 45 43 47 74 94 98 82 80 90 85 66 81 74 74 81 84 95 73 78 88 86 76 73 66 60 59 53 52 46 46 64 79
25 30 31 35 29 25 40 37 44 41 44 42 45 50 44 53 62 81 96 96 94 95 88 71 81 72 69 68 81 92 87 77 81 92 82 86 72 64 58 55 52 49 48 56 69
26 30 31 33 28 27 38 39 46 44 45 48 53 55 51 53 54 79 92 97 96 84 91 73 81 78 65 68 77 83 85 85 80 78 82 87 76 60 55 54 49 53 54 53 61
27 28 31 32 27 31 39 40 46 47 51 56 61 59 63 48 46 76 84 91 97 80 87 78 80 90 79 71 68 72 80 82 90 86 82 87 90 66 56 53 56 59 58 57 58
28 28 31 31 26 33 40 37 45 50 55 63 63 63 75 50 44 74 81 84 84 86 80 89 82 84 84 78 68 78 80 86 90 85 79 85 80 75 67 57 59 63 68 61 63
28 28 28 26 23 32 38 35 44 52 58 68 67 72 79 61 47 72 72 88 79 81 90 89 96 88 89 85 73 82 86 78 86 86 78 79 92 80 68 57 59 62 70 66 62
28 28 26 24 22 32 34 35 45 54 65 72 73 77 84 69 47 66 60 67 79 78 86 94 96 95 94 92 83 74 77 76 73 81 77 86 89 79 67 57 54 64 71 71 66
29 28 27 22 24 32 35 39 54 67 71 63 72 72 84 66 49 63 63 51 61 73 89 89 96 95 93 90 74 64 59 62 59 72 77 78 81 83 75 62 63 63 64 70 67
30 28 27 23 27 31 34 43 50 58 68 65 69 78 80 60 57 65 53 57 59 75 73 82 89 87 93 89 90 87 71 70 66 74 76 77 75 76 69 65 62 65 62 65 68
29 28 25 25 29 32 38 43 46 53 66 67 67 79 84 61 57 57 56 59 55 79 72 79 75 80 84 86 92 91 73 65 83 71 74 82 74 70 67 65 60 61 60 61 67
29 28 24 28 35 37 40 41 45 54 72 67 66 75 85 71 64 50 55 55 51 76 82 96 82 73 75 83 88 83 66 62 69 82 80 71 66 60 55 51 49 52 60 60 64
30 28 24 30 35 39 41 41 47 58 76 65 67 66 77 78 74 79 73 66 58 73 81 77 80 80 81 81 85 78 71 76 74 72 74 75 70 53 52 52 49 47 52 57 61
31 26 27 32 37 37 40 42 50 68 72 66 63 65 73 83 87 86 93 85 79 78 83 83 83 85 83 84 84 80 78 82 81 79 84 66 67 49 50 44 42 40 44 56 58
30 26 30 35 39 37 40 46 61 67 65 67 61 58 62 73 81 98 89 93 91 99 89 86 94 93 92 83 79 77 88 89 90 87 77 56 57 46 44 42 39 37 37 47 54
30 29 32 37 37 37 40 49 58 55 66 68 63 60 67 76 80 88 96 85 80 74 75 84 91 94 90 83 78 73 69 78 70 72 65 55 58 47 39 38 36 31 33 35 40
31 33 36 37 39 39 43 51 58 56 59 67 69 66 67 72 76 81 79 76 72 71 78 79 91 92 86 81 80 78 77 68 70 58 63 56 46 40 36 33 31 29 28 31 34
35 37 40 40 40 40 44 50 48 50 52 59 81 71 68 67 74 82 80 71 68 72 68 67 84 84 83 83 81 82 75 77 75 75 59 61 47 43 33 30 30 32 32 31 30
39 43 42 41 41 44 43 46 46 46 51 58 62 65 64 69 75 76 81 75 72 75 73 74 77 86 87 86 80 81 90 77 72 74 80 68 53 39 35 34 36 38 38 38 37
43 48 43 41 46 44 44 41 44 46 49 52 55 63 64 65 69 72 76 71 74 78 78 79 88 91 89 86 85 84 79 79 85 75 67 73 66 49 44 40 41 42 42 40 39
45 47 43 41 46 44 39 39 44 46 48 52 53 58 63 69 70 67 70 74 65 75 81 79 87 95 93 87 84 84 78 72 69 71 73 71 53 44 43 41 41 43 44 42 41
44 45 45 46 43 45 40 40 43 43 45 48 50 52 61 67 69 72 68 75 74 75 79 78 82 84 89 79 78 79 71 72 81 86 69 64 56 52 49 47 45 46 46 46 42
39 42 36 41 39 37 38 40 43 42 45 47 50 52 59 65 67 70 74 74 81 81 79 79 87 81 73 76 78 72 70 72 76 69 76 60 55 52 53 51 51 50 48 47 44
35 35 37 37 33 34 36 39 41 45 44 45 49 50 54 61 62 73 66 72 75 80 81 84 91 81 78 74 74 73 70 67 65 64 64 59 58 53 53 52 49 50 48 46 44
35 32 28 33 31 35 36 37 41 44 46 50 47 48 52 59 64 65 70 74 75 75 76 79 85 88 85 72 70 71 60 61 59 57 58 62 54 57 53 52 52 50 47 47 46

GFSSW_prec_cthk_081.txt.gz
RH
28 29 28 30 28 32 32 31 29 31 33 35 32 28 28 32 33 33 38 40 38 52 60 63 59 65 55 77 89 77 94 83 73 66 70 58 55 53 51 56 56 57 55 57 70
26 29 29 30 31 28 32 34 32 27 36 43 33 30 34 40 38 34 51 70 64 53 62 75 55 73 60 70 94 86 96 75 69 71 63 57 58 58 54 53 62 60 59 58 56
27 28 32 30 32 29 26 36 35 33 42 48 36 36 42 47 42 47 76 94 92 79 69 90 67 76 61 69 91 89 94 80 81 83 72 68 68 63 57 50 49 57 62 60 61
29 29 34 30 31 30 24 37 40 38 43 45 42 44 46 51 50 42 70 83 87 95 71 88 74 79 75 69 83 89 84 92 85 82 82 71 69 67 58 53 49 47 55 64 60
30 30 33 31 31 29 26 33 40 43 40 50 48 51 51 55 48 52 77 92 81 83 75 94 80 77 84 58 80 87 81 91 88 83 85 73 71 70 64 58 52 50 52 60 66
32 32 32 32 33 27 29 36 39 42 44 53 54 53 55 59 40 56 79 95 92 77 85 93 82 78 76 65 79 75 79 81 93 93 85 83 76 76 73 62 55 53 51 56 64
34 33 31 32 32 27 30 39 39 43 47 56 54 55 64 58 40 59 81 95 98 85 89 90 80 86 87 69 71 82 82 79 92 87 95 89 83 73 71 66 57 54 53 55 58
34 33 30 31 28 22 30 39 34 42 50 59 52 60 70 62 46 65 81 95 90 90 96 87 76 84 89 74 68 80 81 92 87 95 91 92 92 86 80 67 60 57 54 53 53
34 34 31 30 26 22 31 34 35 42 55 55 59 64 70 70 44 59 80 84 86 93 94 83 83 90 91 84 75 84 95 95 93 92 93 94 92 86 82 70 63 57 54 54 54
35 34 31 29 25 25 31 33 36 46 60 55 64 67 70 64 43 66 68 75 76 80 84 94 80 91 92 84 90 89 88 88 89 91 93 91 86 84 73 73 67 62 56 53 52
37 35 30 28 25 29 32 36 46 57 60 54 64 66 63 47 47 68 63 65 69 72 82 93 96 81 84 87 95 85 81 79 80 83 81 81 79 71 77 76 68 60 56 53 53
42 35 30 28 27 30 32 39 42 51 57 59 66 66 62 43 50 60 58 54 60 75 85 93 98 86 85 88 89 86 79 80 78 85 82 79 72 71 76 74 68 60 55 53 57
48 35 32 27 29 32 35 40 40 46 57 62 64 64 55 51 48 53 55 48 52 66 77 86 96 94 91 90 88 82 72 71 71 84 92 88 85 76 68 64 66 62 57 52 53
52 36 33 28 32 35 38 40 39 49 66 61 63 67 63 58 51 45 52 53 52 65 75 84 88 89 90 92 86 88 75 74 76 78 91 80 91 73 67 65 65 61 53 52 55
57 37 32 29 33 36 39 41 40 54 71 60 60 69 73 68 69 58 56 52 51 69 72 76 86 85 87 85 83 88 73 73 78 86 84 83 80 62 59 60 57 49 48 49 53
59 37 31 32 35 37 39 39 47 63 66 67 61 64 78 85 94 91 93 67 63 77 85 92 80 77 81 84 85 82 77 78 82 87 91 78 73 62 53 54 52 48 46 44 48
56 36 33 34 36 37 39 44 55 65 61 68 60 61 75 84 87 87 82 73 77 87 88 92 93 91 87 89 85 88 85 97 98 96 82 67 72 62 48 47 46 43 42 43 44
51 35 35 36 38 36 40 48 55 48 60 68 61 63 69 77 86 86 86 83 84 87 90 96 94 89 87 88 85 83 86 84 88 90 73 62 65 51 47 43 40 38 36 36 36
47 38 39 38 38 38 45 49 49 52 54 66 68 69 69 72 76 84 81 79 80 82 87 89 97 91 87 81 78 86 86 65 71 64 71 64 55 47 45 43 41 39 34 32 31
43 42 42 42 40 40 46 45 47 49 52 58 78 69 70 71 76 81 88 76 74 72 80 76 94 91 83 80 78 78 75 78 80 75 67 66 54 49 44 42 38 36 33 29 29
43 45 46 44 40 44 44 45 45 47 53 56 68 71 61 67 76 77 75 66 62 67 68 69 76 88 87 81 80 79 82 75 74 83 83 67 56 43 39 38 36 35 33 33 32
45 50 50 46 42 43 41 43 44 47 51 52 54 64 63 67 75 78 72 68 68 62 66 70 76 87 85 84 80 79 80 81 87 76 77 75 62 49 44 37 36 37 36 36 36
48 51 52 45 45 43 41 42 45 48 49 50 51 58 66 66 74 75 74 71 67 68 71 69 79 88 89 82 79 81 78 78 77 76 74 74 63 54 51 45 40 38 38 38 38
45 53 52 48 43 45 43 42 46 46 47 46 48 54 61 69 69 71 70 70 67 69 72 72 78 80 82 74 77 81 76 77 79 86 73 71 60 55 52 47 45 45 44 44 42
43 44 38 42 39 42 44 40 43 45 44 45 48 54 60 63 67 72 73 74 71 71 72 78 86 82 78 81 82 80 75 75 79 72 76 59 58 61 62 59 56 53 51 50 49
40 42 41 37 36 41 46 42 41 42 41 44 49 53 55 61 64 68 68 73 78 80 82 83 92 84 78 73 73 76 73 70 71 74 73 71 67 62 61 58 58 56 54 53 52
40 37 35 36 36 37 38 40 42 42 43 44 47 53 57 62 64 66 67 70 74 78 81 84 89 91 90 80 75 73 66 65 63 61 62 68 57 59 58 55 56 56 56 50 44

GFSSW_prec_cthk_084.txt.gz
RH
30 30 33 35 33 33 32 38 30 29 24 29 36 31 28 29 31 36 35 31 34 32 53 59 67 68 74 56 64 97 81 84 72 68 61 61 57 52 51 54 59 62 62 61 74
41 32 32 37 36 34 33 33 35 34 29 35 42 33 34 36 38 40 40 39 55 58 43 74 76 79 70 58 63 97 83 85 71 70 69 65 64 57 53 55 60 62 57 61 66
47 35 32 37 38 34 32 28 35 38 34 37 40 38 41 40 43 46 36 44 80 88 57 72 81 78 73 69 63 96 78 71 80 78 76 68 68 60 54 56 56 56 60 63 63
45 35 32 33 38 34 32 28 34 39 38 35 44 44 41 45 48 44 37 65 76 96 90 64 91 85 74 79 64 95 86 74 88 81 80 77 75 69 59 53 60 61 62 68 65
58 34 32 33 38 36 34 30 34 39 40 39 46 44 42 46 48 38 50 77 86 87 93 79 98 85 72 72 66 80 90 79 93 89 88 78 74 68 64 57 57 60 63 65 63
70 43 32 34 36 35 33 33 36 38 39 42 48 42 47 53 47 42 69 91 95 84 86 85 95 87 70 74 62 73 85 76 89 94 89 88 78 70 67 60 58 55 55 62 60
82 59 33 35 35 31 29 33 38 34 40 46 44 47 52 55 51 45 79 96 92 76 77 84 94 93 73 76 56 80 95 88 87 93 96 93 85 77 72 64 62 58 55 57 63
89 68 40 35 35 30 27 33 32 35 42 46 46 52 55 60 46 50 82 94 92 73 78 90 91 86 84 83 61 82 94 97 97 96 93 88 88 84 76 66 62 61 57 55 59
85 78 56 33 34 30 30 31 32 35 48 45 53 54 54 52 41 57 79 89 94 90 97 88 95 89 86 90 76 83 98 93 94 89 95 94 89 84 78 70 65 61 57 52 50
86 86 61 35 33 30 32 31 33 39 51 51 55 58 51 44 43 59 69 76 88 94 93 88 88 88 93 92 89 77 92 91 90 89 90 97 96 86 81 72 69 65 59 55 53
87 77 71 43 33 33 32 34 41 50 51 52 53 50 46 40 51 57 62 65 74 89 92 88 92 92 92 91 82 74 74 83 85 87 94 95 94 91 87 74 66 60 60 60 58
86 79 79 57 33 34 31 36 38 45 49 52 55 51 45 49 52 53 61 56 65 76 83 94 88 94 91 88 86 80 73 85 85 85 90 89 89 89 90 78 70 64 60 58 55
81 78 82 63 35 33 34 37 37 41 50 55 55 56 48 52 53 48 57 51 58 68 78 96 90 90 90 94 92 87 88 79 88 94 91 92 90 79 74 73 70 65 58 53 54
81 81 77 69 36 37 38 37 37 41 59 55 57 65 62 57 55 45 51 50 53 70 83 90 95 89 84 90 89 87 87 85 85 92 96 94 93 78 71 70 68 62 56 53 52
78 80 77 64 38 36 38 38 38 48 59 58 57 68 79 76 63 49 50 50 50 61 81 93 93 93 87 85 85 91 85 80 85 91 84 93 92 66 63 66 59 56 51 47 48
78 77 76 59 39 37 40 38 42 58 60 64 58 64 80 84 92 80 72 55 53 66 89 89 84 90 85 86 87 93 83 83 88 97 94 82 80 65 59 61 52 48 48 51 46
80 77 77 58 39 38 39 39 51 61 53 62 58 61 76 83 85 75 68 64 70 81 91 93 90 92 90 85 89 94 85 97 98 98 86 76 78 65 53 51 49 47 42 41 44
78 79 76 48 41 39 40 47 55 47 54 56 57 61 72 77 80 74 75 82 79 80 94 92 95 91 93 95 96 91 83 85 90 91 78 75 75 56 47 45 43 42 41 43 42
81 79 82 44 42 41 44 48 46 47 49 58 63 69 70 68 76 80 77 83 78 80 89 88 92 88 91 89 85 91 82 74 75 75 82 72 59 50 47 47 45 42 40 38 35
81 77 82 47 44 46 46 42 45 46 48 53 66 65 71 75 75 76 76 77 78 86 86 83 91 86 83 79 77 76 78 80 82 77 70 70 62 52 50 48 46 42 40 38 34
84 73 79 50 46 49 46 42 43 45 48 51 70 70 63 72 78 76 75 72 76 81 77 82 83 85 80 81 79 79 79 75 71 76 72 69 60 48 48 47 45 41 35 34 32
79 83 80 50 51 46 42 39 41 45 49 50 58 64 58 67 73 74 69 67 67 70 73 73 74 85 80 75 76 75 75 72 79 73 78 74 59 49 50 49 43 41 40 38 38
78 89 67 54 52 45 41 44 42 46 48 50 49 61 63 68 76 76 71 65 60 63 67 70 74 81 79 76 73 75 73 73 72 74 76 73 62 56 56 52 47 44 42 40 38
80 92 59 56 49 42 46 44 45 46 45 46 46 53 62 68 71 74 75 72 71 72 72 71 78 77 81 75 76 79 74 74 78 87 77 75 68 63 60 56 49 44 42 41 42
89 62 46 52 47 44 46 42 46 47 44 46 47 52 58 69 69 72 71 73 71 71 69 73 81 82 77 79 78 77 74 76 76 72 79 71 71 65 65 63 58 53 50 50 48
84 44 44 41 40 43 47 43 43 42 42 44 46 51 59 60 64 69 70 72 69 69 68 73 84 79 77 74 76 76 74 74 74 72 74 73 71 68 66 61 59 57 54 51 50
64 38 33 42 41 43 44 41 40 39 44 43 45 51 58 61 62 64 64 67 71 74 77 80 82 83 85 77 73 72 68 67 64 65 66 73 68 72 73 69 63 61 57 52 51

GFSSW_prec_cthk_087.txt.gz
RH
73 57 34 29 36 39 40 38 36 34 33 28 31 39 32 30 32 33 32 33 37 41 42 39 38 42 60 61 59 67 83 94 72 62 57 60 58 58 61 66 70 71 67 66 73
80 79 51 32 34 39 42 40 34 36 38 34 33 36 35 36 35 31 35 37 40 42 54 54 49 51 74 68 68 75 78 83 84 58 54 66 61 62 64 65 69 67 68 71 67
80 82 75 43 32 34 41 40 34 32 42 39 33 42 37 36 34 37 37 36 36 41 74 74 55 71 87 78 69 67 69 71 92 76 60 70 67 61 62 63 60 60 64 69 68
78 81 78 64 37 33 39 38 35 34 43 42 39 44 39 37 40 40 35 35 45 60 83 84 57 82 97 86 75 66 67 71 93 87 72 66 70 65 59 52 54 58 61 67 72
79 79 77 73 57 36 34 35 33 37 43 41 41 45 40 42 43 42 39 48 67 80 84 90 59 84 92 78 76 71 60 73 94 90 76 64 70 69 63 61 63 62 66 65 70
73 85 76 72 68 45 31 32 35 41 40 41 41 44 43 49 48 42 46 68 92 91 91 88 62 82 93 80 70 67 64 92 90 92 85 70 75 71 67 64 68 69 63 68 68
72 79 80 71 65 60 31 32 38 43 38 43 42 45 50 49 48 35 60 87 87 88 84 84 77 86 93 76 72 77 70 92 95 92 94 81 80 78 73 73 67 71 73 77 75
65 78 81 75 66 63 44 33 38 37 38 42 42 47 47 46 41 41 70 87 89 77 81 83 93 96 91 75 74 79 86 98 94 92 95 88 90 82 77 75 70 66 63 66 71
71 77 81 78 73 61 54 35 38 37 41 45 46 48 44 42 36 48 69 76 90 75 75 88 95 98 88 75 79 78 79 93 97 86 95 94 92 86 79 74 70 67 62 62 68
70 75 84 78 76 60 64 37 38 37 47 48 50 51 43 39 38 46 62 70 90 91 85 91 98 95 84 82 85 82 76 95 98 95 96 96 90 91 85 76 71 69 62 57 57
78 68 88 77 79 68 64 46 41 45 51 45 47 47 44 40 42 46 58 66 80 93 98 89 94 98 84 80 77 68 77 93 95 96 96 95 95 94 92 80 73 69 67 61 56
70 75 85 78 81 69 62 53 39 40 46 47 49 47 46 46 43 44 55 58 72 83 81 84 89 93 93 85 84 83 75 85 91 92 91 93 94 89 92 83 74 73 68 63 60
74 86 87 76 82 67 67 50 40 39 47 50 52 52 50 51 46 44 52 57 64 77 81 88 88 89 97 87 87 88 81 74 75 89 89 93 93 87 91 81 77 66 64 64 59
74 86 89 82 77 73 66 49 39 39 55 52 56 58 59 55 50 41 51 53 56 69 87 81 85 89 90 93 91 90 83 77 85 86 96 90 94 79 79 86 73 69 61 60 57
74 85 85 90 84 74 66 50 37 44 60 55 55 60 66 70 58 46 47 50 55 66 82 89 94 93 91 93 93 91 85 89 82 86 93 95 97 71 69 79 74 66 60 56 53
72 82 83 78 86 76 72 48 40 53 62 59 57 58 71 80 89 69 56 52 56 70 88 92 88 86 86 92 87 91 93 91 93 96 96 86 88 69 65 62 65 60 55 53 51
75 77 79 83 89 76 70 46 48 60 49 57 58 61 69 78 76 74 66 53 66 85 92 89 91 84 87 85 87 95 88 98 98 98 88 80 86 68 60 57 60 55 50 48 48
80 76 84 91 90 75 65 46 55 44 52 49 55 63 69 76 70 63 59 68 79 86 93 91 92 95 85 87 93 91 79 87 94 93 84 83 80 65 55 56 58 53 49 46 45
87 84 77 89 90 73 64 49 42 45 46 56 58 66 71 69 70 72 77 76 79 86 92 95 96 89 91 87 90 92 82 71 73 77 81 78 62 53 54 55 56 53 48 45 42
87 85 82 91 90 77 60 40 40 46 48 54 60 64 71 74 72 76 80 72 79 91 88 89 96 90 93 87 89 81 74 75 77 81 72 70 64 53 53 52 50 50 45 43 40
87 87 76 93 91 83 56 38 37 46 48 53 62 66 66 70 74 71 69 69 81 86 87 83 81 90 88 89 85 80 75 76 77 80 74 73 62 55 51 49 48 47 43 39 38
87 79 85 95 92 79 52 33 40 48 51 51 62 65 63 69 65 68 69 73 75 76 82 79 83 88 83 78 78 79 79 79 80 77 78 72 60 55 54 51 48 48 47 44 41
88 89 92 97 88 72 42 35 44 49 53 54 59 62 60 67 73 65 65 69 66 66 67 64 68 77 74 70 73 77 75 74 72 74 77 72 62 55 54 51 48 48 47 45 42
89 89 94 95 83 52 39 41 44 48 53 53 50 60 63 69 73 68 67 63 58 60 60 60 65 63 66 59 65 74 72 73 72 77 70 70 65 62 59 56 51 46 45 45 43
87 89 93 85 75 48 36 45 45 51 51 51 48 52 61 71 74 77 72 71 69 68 68 67 71 70 68 71 68 69 68 71 72 71 77 70 69 65 68 65 62 58 52 49 47
92 93 89 79 50 40 40 47 44 48 48 48 47 50 55 62 65 71 73 76 73 70 68 69 76 70 71 70 72 69 67 68 71 72 71 69 69 66 62 63 64 62 60 54 48
94 88 77 59 46 42 41 45 45 47 48 47 47 52 54 57 61 64 66 68 68 68 71 72 75 76 78 74 71 70 65 66 66 64 62 66 60 63 64 62 61 61 61 58 56

GFSSW_prec_cthk_090.txt.gz
RH
70 79 69 68 65 62 45 37 34 36 39 45 38 36 37 33 30 29 28 28 29 35 42 39 37 38 43 55 57 60 72 63 72 77 65 73 70 65 62 58 62 61 62 75 89
68 69 74 73 62 62 62 45 38 36 36 47 42 35 41 38 31 29 28 30 36 36 33 34 36 42 50 50 63 78 70 58 52 68 74 82 77 65 66 67 64 65 68 81 82
72 73 75 77 71 61 57 61 41 38 38 48 46 43 41 37 32 31 32 36 36 32 33 38 53 66 63 63 67 85 73 54 55 71 80 82 81 73 65 70 61 61 68 72 77
58 70 70 78 70 69 62 60 55 39 39 50 46 46 41 38 36 33 36 43 41 43 54 64 80 80 69 75 78 90 71 62 55 72 78 86 80 76 70 63 61 61 72 75 78
59 63 72 80 78 70 66 59 60 49 42 48 45 45 42 38 36 39 39 34 51 69 79 81 84 77 69 86 88 95 70 58 59 75 91 89 76 79 64 66 69 67 72 79 74
54 57 69 72 83 79 68 64 59 62 48 45 48 46 43 43 39 39 32 55 74 79 87 88 92 73 73 87 98 82 68 58 59 69 83 96 74 74 67 70 75 72 73 69 75
49 58 63 74 76 85 71 67 58 65 55 44 48 45 42 39 38 35 49 69 76 73 83 93 94 70 73 91 88 76 77 63 63 74 91 97 78 78 73 71 75 72 73 78 77
55 55 55 74 75 92 73 64 65 65 59 47 48 46 41 35 38 44 55 70 76 64 78 88 88 72 90 95 85 80 85 84 74 71 96 95 87 82 76 76 74 77 73 75 77
54 55 60 66 72 93 84 68 70 64 59 53 50 48 41 35 39 42 54 66 77 65 73 84 82 80 93 95 94 83 85 89 79 82 97 94 91 86 82 78 72 78 80 79 79
38 61 56 65 71 87 87 76 68 61 58 56 52 48 39 36 41 41 51 61 75 71 70 88 95 96 98 91 93 82 83 83 79 90 96 96 91 86 84 81 79 77 77 80 86
23 54 55 66 69 78 84 84 73 65 61 52 44 44 40 41 43 45 48 54 68 75 90 94 98 99 93 82 79 77 74 83 94 93 96 96 96 89 85 82 82 81 77 71 72
16 34 63 60 77 85 87 86 73 63 61 51 47 48 42 44 47 44 44 51 62 76 82 90 98 94 89 86 79 75 78 85 91 96 96 94 94 90 87 83 82 82 78 71 66
13 21 52 63 78 82 87 83 75 65 62 52 51 50 51 48 47 48 45 52 60 75 79 85 87 91 93 90 86 81 71 72 83 90 90 95 94 86 87 89 89 78 79 72 68
15 15 46 62 79 85 91 85 79 67 70 57 56 57 59 54 52 49 45 46 53 74 80 82 82 92 97 88 93 84 77 72 77 80 88 88 93 85 87 87 87 87 74 75 70
19 15 41 58 78 89 96 88 77 76 67 56 56 60 66 69 60 48 45 48 53 66 83 90 82 90 97 92 92 91 81 81 75 85 85 94 91 80 80 83 87 78 74 71 71
30 19 28 55 77 95 96 91 79 80 61 59 55 61 71 78 83 70 49 50 56 73 89 92 85 89 94 93 92 90 86 87 82 84 92 90 84 76 80 74 75 75 72 69 66
41 27 28 51 83 89 93 88 89 78 55 58 58 62 73 73 69 72 58 52 68 91 96 88 90 87 90 93 96 89 98 97 97 98 91 84 85 76 67 64 67 77 70 60 59
46 32 28 55 86 82 98 94 87 60 59 48 55 65 74 67 56 60 57 58 80 95 87 89 86 93 87 87 86 96 91 96 94 92 89 88 85 71 62 59 64 68 63 58 57
53 38 46 67 85 96 97 97 71 61 47 51 58 64 72 68 63 61 69 78 83 90 92 92 93 88 88 85 89 87 88 76 81 78 87 86 72 60 63 66 67 65 59 58 57
64 65 64 87 94 98 97 90 70 47 48 48 56 63 74 63 66 70 77 77 83 91 89 86 92 98 88 92 87 81 72 78 80 84 72 75 71 63 62 64 67 65 59 54 52
72 63 81 89 90 93 95 92 68 49 46 49 59 67 70 63 65 69 73 80 88 88 86 82 85 92 83 93 86 80 77 76 74 78 72 74 64 58 59 58 58 60 58 52 48
74 72 85 86 86 91 97 88 55 48 47 49 59 67 69 63 66 74 73 80 85 85 84 77 78 88 85 82 82 81 74 69 72 72 77 72 61 59 55 53 53 52 49 49 48
68 84 88 93 89 93 95 80 56 49 49 50 61 67 65 62 65 65 68 75 75 77 79 71 76 82 76 69 67 70 71 72 68 69 75 70 63 55 56 58 55 53 52 50 47
81 88 88 89 90 95 95 68 54 49 49 50 59 64 68 66 64 66 69 73 71 69 68 62 64 61 68 58 65 71 70 68 67 75 69 67 59 57 55 55 55 55 54 54 54
82 86 82 82 94 96 81 58 49 49 46 51 55 63 67 74 66 66 67 67 63 60 60 63 71 72 73 71 67 62 64 70 71 65 70 63 62 57 59 58 57 55 54 52 51
82 83 91 97 93 92 69 56 45 46 45 50 49 58 66 72 72 68 66 65 59 62 65 68 76 69 70 69 68 65 64 65 66 66 65 61 60 57 56 59 60 59 58 56 54
92 96 90 96 92 71 55 52 45 45 48 48 48 52 64 68 70 70 69 69 68 66 67 67 70 71 72 69 66 66 63 63 62 61 59 63 58 56 58 60 60 60 60 59 59

GFSSW_prec_cthk_093.txt.gz
RH
53 54 57 66 65 69 64 54 55 53 48 48 49 47 41 41 38 33 30 27 25 28 36 36 34 36 41 40 46 55 72 63 52 49 39 45 62 72 73 70 69 66 61 58 70
56 55 53 60 65 67 67 70 56 53 52 50 57 51 51 42 40 33 28 27 32 33 29 29 27 34 39 40 47 64 77 65 49 46 44 47 62 67 81 73 73 66 62 64 73
51 53 57 57 57 64 71 68 74 59 52 54 67 63 55 47 41 30 29 32 35 35 32 33 33 38 45 43 42 54 71 69 58 49 54 51 67 71 86 73 67 66 59 60 65
46 48 55 55 60 61 64 71 76 65 59 55 70 65 57 49 41 32 33 35 36 32 37 49 53 57 57 62 62 65 58 67 66 57 62 55 78 79 87 71 67 67 60 66 71
47 45 49 56 58 63 65 70 72 71 61 59 68 67 60 52 39 36 35 32 37 55 61 67 74 82 78 70 68 71 60 63 69 68 66 65 78 86 88 81 72 75 72 71 76
38 47 47 51 60 64 70 69 70 72 68 72 64 71 65 52 41 34 34 38 55 62 64 67 74 88 87 71 69 78 77 75 83 68 63 69 76 80 80 87 74 74 78 76 77
29 40 50 58 55 61 66 60 67 82 76 67 60 73 63 48 37 35 38 45 59 62 61 69 84 99 90 71 79 84 92 89 86 69 66 72 78 80 88 88 75 74 84 81 86
19 26 45 56 50 67 60 65 68 75 78 68 67 74 60 46 35 37 36 48 63 60 62 72 86 95 84 79 93 96 98 96 79 66 73 70 71 79 89 85 82 79 81 82 74
24 22 29 46 68 67 66 68 62 73 82 70 76 76 59 41 33 36 37 49 64 65 68 79 84 86 81 89 98 95 95 89 90 66 72 75 80 86 84 80 79 79 87 86 83
26 22 23 43 60 69 67 69 70 75 81 75 76 78 54 40 35 37 41 53 62 72 73 85 88 86 89 97 96 87 86 88 85 75 75 84 88 95 89 82 78 76 84 87 84
25 20 15 34 56 70 68 71 72 81 83 73 76 72 57 43 38 40 43 50 60 74 83 86 96 90 93 91 95 84 78 83 89 84 81 89 98 94 92 85 79 77 78 82 85
26 22 15 32 43 64 67 71 79 86 85 77 74 72 56 43 40 41 44 50 59 73 80 84 88 91 93 88 90 85 77 90 94 89 81 91 96 95 88 86 82 81 78 84 88
31 24 16 36 45 53 66 69 79 85 88 79 73 68 58 51 43 47 46 49 60 72 84 80 80 93 93 86 87 86 78 83 92 85 81 90 98 96 86 87 82 84 82 81 83
44 32 27 31 55 51 64 70 81 89 91 79 76 70 60 56 50 49 49 48 51 75 79 84 77 93 94 91 95 88 79 75 78 79 86 84 94 95 91 88 87 83 83 79 75
69 49 37 35 49 55 56 74 88 90 95 80 73 63 63 61 62 51 50 52 55 75 82 84 81 93 90 97 92 88 81 77 76 77 78 88 95 92 85 90 89 84 80 77 77
61 56 47 41 46 53 53 78 86 97 90 82 69 65 67 71 73 68 49 51 58 79 92 83 81 93 87 95 94 94 89 83 78 73 84 91 92 80 81 73 74 84 79 81 76
67 57 53 47 41 47 58 82 96 96 77 79 67 64 66 54 65 66 50 54 75 93 94 80 83 92 94 98 92 93 92 89 85 80 87 87 86 80 68 65 69 82 86 78 84
77 63 53 40 37 47 60 89 97 81 79 67 60 66 67 52 54 56 51 73 87 92 86 82 83 92 94 94 96 98 89 80 81 81 88 87 91 75 68 66 67 77 79 78 76
80 66 50 36 45 49 67 93 89 83 68 64 60 66 60 60 53 57 69 84 89 92 87 90 89 90 91 91 93 84 86 72 71 73 79 87 77 68 72 72 80 80 71 70 67
85 68 50 53 55 60 79 87 95 78 66 57 56 63 62 64 59 73 80 82 87 84 89 85 92 95 92 90 87 83 76 78 81 81 79 75 74 74 75 76 73 70 69 65 62
82 69 75 73 68 75 83 97 93 76 65 54 62 66 58 63 62 76 84 85 90 89 91 87 84 93 84 89 86 79 76 73 72 74 69 74 68 67 69 71 74 71 62 57 57
84 79 77 78 72 79 96 97 91 75 63 57 66 64 60 58 66 81 85 89 89 83 85 80 84 87 91 80 79 79 73 64 69 70 69 65 65 63 62 64 64 64 64 57 53
82 71 68 74 77 89 96 96 90 74 58 59 67 62 59 60 68 75 80 83 84 83 80 74 82 85 77 72 71 70 67 64 64 65 70 64 62 60 60 58 56 56 54 53 52
74 68 75 78 85 91 98 97 83 62 60 63 67 64 58 63 63 70 76 78 77 79 74 66 68 61 63 61 67 70 68 64 64 69 69 62 60 59 57 57 57 55 52 51 51
66 66 78 80 91 97 96 94 63 59 62 62 64 65 61 63 66 70 74 70 70 68 63 62 70 74 73 70 66 65 65 67 65 58 60 59 60 59 60 59 57 59 58 56 53
64 71 83 96 95 97 98 81 53 57 62 59 60 65 65 62 58 67 68 66 64 59 64 64 72 64 65 66 66 62 63 64 62 63 61 62 61 59 59 62 63 61 60 59 58
67 77 84 94 98 98 87 71 50 54 60 59 54 62 68 67 61 60 61 62 60 60 65 62 66 67 70 65 61 61 61 63 65 65 62 63 59 57 57 58 59 60 62 63 64

GFSSW_prec_cthk_096.txt.gz
RH
48 51 51 50 50 50 56 51 52 53 58 48 42 49 56 61 52 46 45 40 36 33 38 33 29 28 33 34 33 44 57 50 45 40 39 33 43 39 43 61 63 64 65 68 55
44 49 51 53 50 50 55 53 51 51 59 53 49 53 55 58 59 49 44 38 37 38 37 32 30 30 31 32 40 42 46 46 43 45 48 42 49 36 49 59 69 66 73 70 59
35 43 45 51 53 57 52 55 54 52 54 55 48 56 61 58 55 47 40 41 44 36 31 31 34 39 35 37 38 40 45 40 44 51 59 53 54 46 56 60 67 70 69 68 68
28 33 43 44 54 54 67 58 58 53 59 54 51 68 63 52 55 48 43 42 38 31 37 45 45 49 45 43 43 48 39 44 39 52 70 65 54 61 58 59 66 75 74 78 71
32 31 36 42 48 55 53 62 57 61 53 53 63 77 60 57 57 52 42 37 34 46 53 57 59 63 62 58 60 56 56 56 50 48 67 70 61 60 55 59 65 81 78 85 79
34 32 34 42 50 54 59 59 65 56 56 54 73 63 67 69 56 50 43 39 40 52 56 56 60 66 70 77 81 71 67 60 60 55 62 75 57 71 59 68 66 76 78 78 91
38 33 25 32 42 57 65 69 70 60 62 58 59 65 69 66 57 48 44 37 47 59 57 59 67 80 80 91 84 71 67 78 70 61 72 73 70 66 65 73 71 76 79 74 95
40 35 28 26 39 55 63 69 71 71 59 61 56 59 70 68 56 47 41 39 51 58 58 59 69 77 85 78 71 75 91 85 70 67 74 81 62 60 72 73 78 80 84 80 94
44 37 30 27 41 59 63 81 74 68 69 67 62 76 79 67 53 43 37 46 56 62 67 67 68 71 76 73 72 82 97 97 90 78 81 77 67 68 65 69 78 87 81 79 88
50 40 32 25 37 53 68 72 70 74 75 67 67 80 79 69 47 40 43 47 58 67 70 75 79 80 77 81 82 93 83 79 83 82 80 73 71 64 65 76 81 81 79 80 86
61 46 36 28 36 46 54 68 72 79 70 73 72 75 76 63 50 41 49 49 58 67 74 76 80 84 85 80 84 95 90 84 94 84 74 62 61 62 79 82 86 88 81 77 89
50 41 30 26 34 43 44 66 74 75 74 68 76 83 76 64 45 43 52 54 55 65 72 77 77 80 94 85 85 92 85 87 93 93 72 66 69 71 74 74 90 89 86 85 90
72 65 43 40 53 70 59 68 76 68 74 71 81 79 78 66 51 50 57 51 51 68 72 71 70 90 86 83 90 84 76 85 92 91 79 79 85 83 75 80 87 88 83 87 90
91 88 70 55 52 61 64 61 63 68 73 76 84 78 74 64 55 54 55 46 49 71 72 72 77 86 85 85 90 78 71 79 92 86 81 75 96 98 96 95 85 82 84 88 96
88 86 78 69 55 49 70 56 56 70 83 82 85 75 66 58 54 54 50 50 56 74 78 71 81 91 86 93 96 80 72 76 79 79 74 79 93 96 94 90 82 83 82 88 88
92 81 63 59 62 59 56 66 58 79 88 94 81 72 67 66 74 63 48 51 59 78 82 78 84 93 93 93 97 86 74 80 81 73 80 91 98 96 87 81 85 87 91 88 87
94 85 68 58 72 68 54 66 71 76 79 90 74 68 62 65 69 55 45 59 77 93 85 76 91 90 93 98 97 90 77 82 77 77 89 96 95 84 77 74 80 84 89 86 88
89 83 73 63 61 68 56 71 76 79 87 80 71 70 58 58 59 53 55 69 82 87 76 78 87 96 88 97 96 94 82 74 66 69 83 89 91 84 77 68 72 90 82 82 80
95 94 78 66 59 60 61 66 80 92 80 77 69 70 66 53 56 62 70 82 80 87 84 87 98 94 96 96 97 90 78 61 63 64 71 80 75 81 84 78 81 82 82 79 79
92 84 73 66 50 60 64 61 93 87 80 66 67 64 56 53 62 70 75 76 86 84 88 88 97 94 94 89 89 84 69 67 62 66 72 72 73 80 80 77 85 80 75 76 75
88 76 65 68 59 67 68 77 97 85 74 66 66 64 58 63 69 74 75 81 90 90 90 89 89 95 91 93 91 80 73 66 59 58 54 62 71 72 75 76 74 75 77 76 72
88 88 80 78 73 69 74 92 97 78 70 72 72 62 56 63 71 76 75 88 92 88 85 84 86 91 87 86 83 78 71 60 60 60 61 56 65 69 70 71 70 71 68 64 61
87 81 79 79 77 73 94 97 93 70 69 75 77 63 53 66 77 81 82 82 79 78 76 73 78 81 77 73 72 71 70 62 57 58 66 56 62 62 62 62 65 64 62 64 61
70 74 77 78 80 88 98 97 86 63 69 76 73 62 57 65 71 77 81 80 78 77 74 63 61 60 63 66 68 67 66 62 59 63 53 54 59 61 60 59 57 56 56 56 56
65 70 72 76 90 96 97 97 60 64 68 73 71 62 57 62 68 73 72 74 70 65 63 61 70 65 60 61 62 59 59 57 61 57 58 55 54 57 58 55 54 53 51 52 52
53 65 89 81 96 97 98 75 52 60 65 70 71 63 59 57 60 65 63 62 58 56 60 59 69 66 64 56 54 59 59 58 56 55 56 55 57 56 58 58 56 54 53 54 53
56 75 88 97 98 97 87 65 50 60 61 65 68 64 59 59 58 60 59 55 56 52 57 55 56 57 60 56 52 48 51 54 55 55 54 52 54 56 55 53 55 55 55 56 55

GFSSW_prec_cthk_099.txt.gz
RH
36 44 49 52 54 57 55 55 52 46 44 44 41 42 51 46 48 45 44 50 49 44 41 46 40 38 38 39 35 35 40 34 34 34 32 34 32 29 38 44 46 46 54 53 71
31 31 41 46 50 54 56 54 58 50 49 45 41 42 45 43 43 42 44 38 42 50 50 44 41 43 40 39 41 39 37 31 29 32 38 38 36 34 35 45 48 49 52 64 68
35 34 33 40 47 50 57 60 61 58 62 51 45 46 47 49 46 45 43 40 50 46 48 41 40 45 41 35 41 45 39 33 33 33 34 37 44 48 41 45 53 43 53 57 70
39 38 36 35 44 48 56 69 62 59 64 57 46 49 54 58 48 47 48 54 49 45 47 56 53 52 55 47 38 40 41 35 32 32 41 46 47 61 50 55 57 50 56 67 61
44 38 37 37 39 52 53 63 63 59 63 55 48 53 60 54 52 53 48 48 44 42 53 55 53 55 56 53 50 50 42 44 39 39 43 42 49 70 53 63 67 67 65 75 65
47 43 40 32 32 50 56 68 69 73 62 63 56 64 61 53 50 45 48 46 46 49 53 56 52 54 61 60 62 60 63 55 52 47 50 51 42 50 60 56 74 68 73 81 84
60 51 40 34 30 34 52 76 83 83 79 75 73 66 63 56 53 54 50 49 46 48 54 56 56 64 68 66 66 71 63 58 51 54 56 55 54 52 59 63 59 65 56 68 79
76 63 47 40 33 37 45 68 78 76 78 72 80 73 64 59 56 58 57 49 43 47 53 60 58 67 73 66 66 67 63 66 64 62 65 73 59 53 63 71 61 74 60 61 74
86 77 61 48 37 49 70 64 86 70 87 88 81 76 70 61 61 61 46 48 50 51 59 66 67 70 75 76 72 64 70 74 86 75 69 65 69 72 74 67 75 59 58 57 68
87 81 69 48 39 44 62 89 93 82 83 86 77 74 79 74 66 49 46 48 47 59 64 73 80 80 74 80 73 73 78 74 95 80 69 78 78 71 86 64 66 59 55 57 70
90 84 81 58 45 50 60 65 95 85 87 75 77 77 71 68 60 56 49 49 49 60 66 77 81 78 76 75 73 73 70 78 95 95 72 80 78 73 73 59 64 64 64 60 74
67 76 75 57 37 38 59 73 73 65 73 75 78 79 80 74 64 53 48 52 52 60 72 81 78 70 81 88 73 70 71 78 84 87 77 76 70 65 63 55 66 74 72 74 84
88 95 96 79 66 84 84 78 60 72 77 73 74 81 78 74 65 54 49 53 49 57 72 79 71 78 83 77 76 74 78 84 93 90 83 75 73 67 71 71 78 76 76 83 87
97 98 95 80 69 75 92 96 83 76 73 71 76 81 77 76 64 50 49 49 45 60 73 68 71 79 81 83 81 84 75 85 93 98 95 73 88 87 86 78 72 72 82 86 92
94 96 86 83 82 67 70 83 62 66 78 84 82 84 80 64 50 48 51 49 60 72 73 73 74 84 87 97 92 82 73 89 82 83 95 85 81 98 92 87 79 87 89 94 95
89 93 79 70 71 65 68 67 60 80 86 88 87 78 62 57 57 53 45 48 58 73 78 75 79 84 90 92 94 90 81 82 84 86 97 96 98 99 94 90 90 79 87 95 98
85 94 75 65 70 68 59 73 75 83 82 88 80 66 60 61 71 57 48 63 73 93 79 76 84 85 90 96 94 94 81 95 95 91 96 98 98 98 93 93 91 85 86 90 94
85 86 83 72 67 70 68 82 87 67 87 87 70 57 59 62 66 57 63 77 76 79 74 83 91 89 93 93 94 94 95 97 77 88 94 92 97 98 89 90 93 89 88 95 93
87 84 79 64 53 64 66 81 92 93 85 80 62 58 57 60 65 64 73 77 75 75 86 80 94 89 97 95 92 81 81 70 71 69 71 91 98 92 92 91 94 87 86 89 91
90 89 79 63 54 60 65 88 96 92 84 69 69 63 58 62 67 78 75 72 77 78 84 95 97 94 96 96 87 86 69 75 69 73 76 87 93 96 95 89 91 89 87 81 82
81 70 64 66 51 60 72 99 98 89 76 71 65 59 56 62 76 72 71 74 81 88 91 93 98 95 94 88 87 80 68 58 56 60 61 72 94 76 81 86 78 83 84 83 79
75 70 58 57 57 66 91 96 97 79 72 68 68 66 70 76 74 73 77 80 83 89 95 91 87 97 85 78 75 73 66 57 56 54 56 60 78 70 73 73 78 77 75 70 66
76 74 67 64 68 85 97 97 84 75 79 75 71 67 72 76 77 77 82 82 81 83 83 79 80 90 78 72 72 66 60 53 53 58 62 55 67 64 63 63 60 59 60 57 56
64 69 71 82 86 89 96 88 71 72 80 76 66 63 70 73 72 75 74 78 77 75 68 64 69 76 79 79 75 69 57 50 55 59 48 53 58 60 56 56 56 58 58 54 54
55 70 80 88 88 91 83 79 61 71 78 72 62 63 69 70 71 73 71 72 68 60 58 57 66 66 58 58 61 64 61 53 53 49 55 52 53 53 54 54 52 52 52 50 49
75 76 83 86 90 91 76 64 59 68 74 70 64 59 60 66 71 67 63 57 56 55 55 57 65 60 54 50 50 53 55 54 52 48 48 50 53 51 51 51 53 53 55 53 52
78 86 87 87 81 81 64 53 58 62 68 63 63 57 58 61 61 60 56 53 51 53 47 47 53 60 57 49 49 50 49 48 48 49 47 52 50 49 50 50 50 52 53 54 51

GFSSW_prec_cthk_102.txt.gz
RH
41 39 41 42 49 55 59 62 68 59 55 50 47 40 38 42 38 39 43 40 35 34 34 44 43 46 45 42 38 40 47 44 39 35 30 29 31 26 27 28 29 34 37 49 47
46 42 40 39 39 48 55 60 62 58 58 54 55 50 43 42 44 44 42 36 32 34 42 47 45 46 46 45 46 42 42 40 32 32 33 33 32 30 28 28 29 34 37 45 52
51 50 44 41 41 40 50 57 67 65 71 65 59 58 48 48 49 44 37 32 35 37 43 44 43 46 45 44 41 46 43 39 36 35 35 36 33 32 33 30 30 33 40 37 47
65 58 53 48 44 41 42 63 67 68 77 80 64 59 57 52 50 42 33 38 44 40 45 49 53 52 49 48 44 39 38 41 39 38 37 35 35 34 35 35 36 37 41 49 46
78 74 67 56 50 41 45 63 57 83 71 76 62 60 61 61 53 46 41 43 38 36 47 56 56 52 53 47 48 46 40 39 40 38 35 34 31 34 35 39 40 40 47 60 55
87 81 79 65 54 42 39 59 67 80 79 79 69 63 69 68 59 53 45 44 41 44 50 57 54 52 48 47 47 44 44 45 45 45 39 40 35 33 31 28 43 42 49 57 74
92 86 83 75 55 42 37 45 68 90 86 77 80 98 88 77 64 57 48 42 43 50 55 57 54 53 51 49 52 53 49 51 49 47 45 49 43 40 34 29 31 40 49 54 58
93 91 85 82 69 47 40 41 70 85 86 97 84 90 91 80 67 58 52 50 48 54 53 55 54 53 54 55 53 54 58 63 51 51 61 63 45 41 40 39 34 40 51 57 81
95 96 90 81 70 55 71 76 72 84 82 87 81 91 86 84 70 66 57 53 53 52 57 60 58 56 59 65 64 66 71 68 62 65 73 70 48 46 45 48 38 38 62 75 76
94 98 95 82 75 53 63 95 98 92 94 88 95 98 91 78 73 66 52 49 53 61 65 63 60 64 70 73 74 79 78 67 63 69 92 71 57 53 60 70 45 54 59 66 60
94 97 92 83 78 54 55 74 93 98 98 94 90 80 78 76 70 62 52 53 56 57 62 64 64 69 63 63 66 69 73 71 60 75 86 64 59 56 77 84 61 74 83 59 57
90 87 86 82 81 60 45 82 75 86 96 97 97 89 80 76 76 63 51 55 59 60 60 69 66 66 65 72 80 81 75 71 69 84 78 68 64 64 73 79 78 61 63 56 54
89 92 94 94 83 81 65 62 92 83 83 82 85 84 80 80 73 60 51 57 57 54 51 70 67 62 77 83 82 72 76 77 90 91 84 87 75 69 75 77 61 54 57 54 62
86 95 98 91 76 80 98 96 84 73 95 80 76 76 83 83 75 62 52 58 48 45 54 66 62 71 79 85 80 81 78 81 96 98 98 85 94 82 83 75 61 58 64 59 70
83 95 94 82 88 82 90 98 96 90 88 76 80 91 84 78 64 53 51 52 48 62 66 67 74 83 84 86 85 80 83 87 90 96 98 98 94 96 94 87 75 79 66 77 81
78 83 77 80 72 80 87 85 79 75 96 96 89 86 70 63 50 53 47 43 54 68 66 69 73 82 86 86 83 83 84 80 83 94 98 99 97 98 99 95 89 84 81 89 88
79 82 65 73 81 66 64 66 80 97 94 90 84 69 69 60 66 52 42 55 69 85 78 72 78 83 83 88 89 89 96 97 98 98 98 99 97 98 98 95 94 95 98 97 95
76 71 58 63 69 60 61 87 98 95 98 85 72 62 74 61 64 56 58 66 74 78 92 90 94 85 88 93 93 96 95 98 97 97 98 90 98 98 98 87 91 98 99 97 94
67 65 61 54 63 71 93 96 94 98 94 76 62 57 62 64 60 61 69 82 81 82 97 90 96 90 92 88 90 93 92 82 98 89 97 98 99 98 97 97 91 90 95 97 96
65 67 63 51 55 71 91 94 98 93 87 77 68 56 59 59 64 70 71 79 85 80 85 94 95 94 92 87 83 83 74 84 89 96 97 95 90 98 98 98 94 95 94 95 93
55 52 57 49 51 74 90 94 96 88 77 75 73 64 56 60 75 90 77 81 86 91 94 95 99 98 88 84 80 74 68 71 73 74 80 89 96 93 95 94 93 94 92 87 86
45 49 52 50 68 84 93 92 91 76 68 66 72 67 65 70 74 77 83 86 89 94 97 94 96 96 82 74 73 70 61 60 78 71 72 84 95 88 87 87 87 88 86 87 82
48 51 57 70 84 90 93 86 79 70 74 77 72 72 74 81 81 80 84 86 85 85 84 82 82 92 83 74 69 65 58 54 63 68 66 76 88 77 80 79 76 72 72 69 63
76 78 79 84 85 76 73 70 73 69 74 76 66 66 75 75 75 79 80 82 77 73 74 77 77 86 85 77 71 67 57 55 59 66 61 68 68 70 69 66 66 62 58 58 55
74 74 78 81 74 68 65 63 63 65 69 68 63 70 71 71 73 76 71 68 61 61 59 62 73 74 65 62 62 60 56 53 55 54 64 63 63 63 62 60 61 60 58 56 54
56 61 65 71 65 60 59 56 58 61 65 63 67 63 68 71 73 66 61 61 58 53 54 56 63 59 56 56 58 59 59 56 55 53 53 56 60 58 56 55 53 53 57 54 54
53 51 53 58 63 53 49 50 53 57 59 59 59 62 63 63 59 55 52 51 50 49 48 53 58 60 56 47 48 55 51 52 53 54 52 54 53 53 53 53 52 51 49 52 52

GFSSW_prec_cthk_105.txt.gz
RH
55 56 57 52 46 48 54 63 68 70 65 74 60 50 50 45 41 37 36 38 36 33 28 31 32 29 32 35 37 38 50 53 46 40 36 29 30 29 30 29 24 32 33 34 37
73 67 62 60 54 49 47 57 62 71 66 77 67 59 50 55 53 45 41 45 39 34 30 33 32 33 34 39 39 41 48 45 39 38 37 33 33 31 30 31 29 24 32 38 46
91 87 79 70 67 55 51 47 61 64 68 74 74 74 63 55 58 49 40 41 31 31 37 37 33 34 36 40 40 41 44 39 38 37 38 37 35 34 32 27 32 33 27 35 39
93 94 92 92 77 65 57 52 61 68 70 71 87 74 73 67 58 49 43 36 36 37 38 34 36 40 44 47 43 42 38 38 39 37 38 38 36 33 33 31 26 33 33 33 38
89 92 94 92 92 76 63 52 57 76 86 84 86 85 82 65 60 55 48 48 44 37 39 41 42 46 46 46 45 44 38 38 38 37 36 35 34 32 30 29 32 28 33 35 40
88 90 88 91 89 84 62 52 57 82 80 87 97 74 75 67 59 62 58 52 45 39 42 44 46 51 48 46 46 40 41 38 37 39 40 40 35 37 31 26 23 33 29 36 39
77 84 77 83 86 82 69 52 51 69 88 75 96 83 82 85 74 74 67 57 49 42 49 52 53 52 49 49 47 47 46 40 39 38 40 42 40 29 28 31 27 24 31 39 42
85 82 81 80 81 75 67 52 49 77 85 91 98 96 85 93 89 82 70 60 48 49 53 54 51 51 51 49 49 48 47 49 40 45 46 46 42 38 40 37 33 27 24 32 37
84 96 93 90 90 76 60 91 62 86 91 97 98 97 92 92 87 81 72 63 60 56 59 58 56 56 55 54 54 53 58 56 49 48 51 56 56 53 44 40 38 33 28 26 34
90 98 98 97 96 78 60 92 91 85 99 95 90 94 91 93 86 83 72 69 66 65 67 61 62 59 59 60 59 57 60 55 57 53 63 65 66 63 53 47 47 42 38 34 39
98 98 97 96 87 77 70 86 99 97 95 96 94 86 92 92 78 72 66 66 63 66 62 65 65 61 58 60 58 59 60 61 56 61 76 72 65 60 51 60 64 57 42 40 41
88 90 91 88 80 72 71 70 91 97 98 97 98 91 89 87 79 70 61 57 58 59 60 69 66 59 61 65 68 66 71 68 61 71 84 81 70 59 56 58 63 53 62 53 50
80 84 85 85 78 80 73 68 98 92 94 99 98 98 93 84 80 72 59 63 68 67 60 61 55 58 65 74 77 72 70 70 77 75 82 85 76 64 55 57 63 68 68 68 67
75 79 80 78 75 83 70 74 90 87 96 94 90 93 86 81 82 68 56 66 62 53 50 53 60 63 70 75 76 76 71 78 85 90 92 93 89 82 73 74 67 63 64 64 66
69 78 78 76 79 91 89 79 84 77 95 94 87 83 84 88 80 74 60 60 52 51 59 61 72 73 77 74 78 74 77 80 86 94 98 92 97 92 92 79 67 61 62 64 65
62 68 71 65 73 81 91 89 80 97 93 90 86 94 90 75 63 53 51 46 49 64 65 63 63 69 74 74 78 79 83 86 88 94 98 98 99 98 94 84 80 71 69 71 85
60 63 69 71 75 75 84 86 94 97 97 95 92 75 67 63 62 46 45 59 69 78 71 68 69 72 75 81 85 90 95 96 98 98 97 98 96 98 96 90 82 81 76 92 94
52 52 56 63 55 58 75 94 93 96 94 84 72 75 73 69 64 48 58 69 75 78 87 84 81 80 84 86 92 92 98 98 97 97 98 98 97 98 97 99 98 97 98 98 96
50 48 44 46 70 83 85 92 97 98 88 69 70 68 66 61 57 66 71 77 80 80 91 87 89 81 84 86 89 95 99 97 98 98 97 98 99 94 93 98 98 99 97 98 99
44 45 46 56 75 77 82 89 95 89 76 76 72 60 65 68 68 76 74 79 86 86 88 90 94 89 86 87 85 92 93 97 96 97 96 97 97 98 98 96 97 98 97 98 97
43 46 45 53 67 75 85 93 94 84 73 75 69 63 64 76 84 88 88 89 90 96 95 96 93 89 87 84 78 86 85 84 79 84 90 93 97 98 98 96 95 91 92 96 96
50 55 51 67 72 81 88 89 75 68 68 69 66 67 71 73 83 91 94 93 93 92 97 92 90 89 77 68 71 73 78 73 84 76 82 87 97 96 96 95 93 93 86 85 87
50 59 64 67 78 79 77 66 66 65 67 69 68 68 70 78 84 86 88 84 86 89 84 82 83 84 73 64 63 69 65 66 70 77 79 81 97 87 84 84 82 82 87 77 71
58 60 62 63 63 61 63 65 67 68 64 65 66 68 69 73 75 77 75 73 74 74 77 79 77 75 79 73 69 66 62 60 64 76 78 86 89 83 78 76 70 66 63 61 58
59 55 55 59 54 53 58 61 63 64 59 61 64 65 66 73 68 64 63 66 66 64 62 64 73 72 62 62 60 59 58 57 57 64 70 73 72 68 66 65 61 60 58 56 55
50 53 51 48 48 49 51 54 56 56 54 59 61 60 61 63 61 60 57 55 55 56 55 58 65 60 58 56 54 58 57 56 56 56 59 60 62 59 59 57 58 59 56 54 52
46 48 50 46 45 44 43 46 50 50 53 55 57 54 52 52 48 47 46 45 44 44 48 49 55 59 58 51 53 58 58 56 55 55 54 58 55 55 55 53 52 52 51 51 49

GFSSW_prec_cthk_108.txt.gz
RH
86 83 79 69 62 55 50 62 62 73 82 68 77 72 60 46 48 42 34 32 31 32 31 28 28 27 26 26 28 30 37 43 36 37 40 36 31 26 29 28 26 32 31 35 42
96 97 96 93 86 72 63 53 57 73 72 82 75 80 73 56 49 48 44 42 41 35 32 32 31 29 27 27 29 33 41 39 33 31 32 34 36 31 29 30 28 29 34 31 35
96 93 93 94 95 96 75 60 56 65 83 79 77 81 74 67 59 50 50 47 43 36 33 34 34 35 33 32 31 35 39 33 31 30 32 33 34 35 32 28 29 28 34 34 33
92 92 92 92 93 95 94 79 54 52 74 78 91 77 76 68 69 56 47 46 41 34 37 39 38 36 35 33 33 36 34 34 33 30 30 30 31 32 33 30 27 28 30 36 36
88 92 90 90 93 90 90 85 74 59 66 74 85 83 85 82 72 72 61 53 47 42 40 39 40 42 42 40 40 40 38 40 37 34 32 32 32 34 31 30 29 25 27 30 34
76 89 92 87 90 93 81 75 69 69 79 73 87 90 91 96 86 80 57 58 51 47 44 45 46 47 45 46 45 41 40 37 37 34 34 33 32 37 29 29 28 27 25 28 31
62 68 72 93 94 90 78 62 59 62 81 98 99 97 97 95 83 75 65 64 55 49 50 49 52 51 49 50 47 45 45 44 39 39 38 39 39 36 36 40 37 30 26 23 29
66 67 65 96 94 91 73 54 49 53 74 98 94 89 98 91 83 87 82 72 60 56 55 56 56 56 54 51 46 48 50 54 39 41 41 45 42 39 42 45 43 38 29 25 24
84 81 77 86 95 88 72 68 59 53 78 98 97 91 98 92 92 91 87 68 59 59 62 61 58 56 53 54 52 52 55 57 51 43 46 47 43 39 45 49 43 37 32 28 25
95 98 98 95 95 84 71 89 94 84 97 96 94 98 98 94 92 91 81 76 69 70 67 63 60 57 55 58 57 54 58 53 51 42 44 46 43 43 45 46 42 36 32 29 27
85 96 97 98 90 88 89 91 98 97 98 98 97 96 95 96 95 91 82 77 72 71 68 65 61 58 56 57 59 62 63 59 51 47 49 50 54 48 42 42 40 43 47 43 31
71 81 88 83 83 77 80 89 94 98 98 98 95 93 94 91 85 74 70 69 69 65 60 64 62 55 59 63 65 66 64 56 52 52 62 62 57 56 50 49 44 46 49 42 36
72 75 81 72 73 68 69 85 91 95 98 98 98 96 94 91 84 79 68 67 60 59 58 62 53 58 59 61 67 67 67 63 65 59 67 72 71 61 52 51 49 52 56 56 42
74 72 76 78 75 65 71 80 95 94 97 97 98 99 94 86 83 72 63 65 63 60 60 60 55 55 58 63 67 72 65 66 69 77 79 84 82 75 77 72 61 59 63 58 62
70 71 71 82 82 76 75 77 80 92 94 96 93 93 88 85 75 69 60 62 63 58 58 55 59 71 74 73 73 73 71 73 76 84 90 91 96 78 86 86 72 58 55 57 66
66 61 65 80 79 72 66 74 77 85 94 97 92 87 83 75 74 68 63 60 47 55 58 61 62 66 68 74 77 72 81 82 89 93 92 93 98 91 93 88 71 63 60 58 65
59 65 67 67 72 74 76 74 87 87 92 92 90 89 74 65 54 44 46 49 62 75 70 69 71 70 74 78 77 89 93 93 94 97 96 99 98 93 92 83 73 71 73 75 80
48 51 55 64 71 78 84 82 83 92 93 86 71 65 66 64 53 48 55 71 75 78 83 85 79 78 83 84 89 89 94 98 95 97 97 95 96 94 94 87 83 93 94 98 98
40 51 64 65 68 72 72 81 91 88 76 69 74 68 66 59 60 69 76 78 85 83 90 86 81 79 85 86 88 91 98 98 98 98 98 97 98 98 97 98 96 98 98 99 98
36 46 54 60 63 65 72 81 78 69 68 65 63 59 67 68 72 79 81 88 94 93 92 90 90 88 90 89 90 93 96 98 98 97 95 92 97 97 98 98 98 98 98 99 98
43 51 57 64 66 68 73 76 71 69 67 67 65 66 73 80 86 90 94 93 94 96 94 93 93 89 91 88 86 95 98 95 89 89 97 96 98 98 98 97 97 98 99 98 98
35 53 61 61 66 68 70 69 68 63 63 63 65 67 74 83 94 96 94 91 90 90 91 90 89 89 79 75 79 85 86 82 83 91 89 94 98 98 98 97 92 93 95 92 96
44 51 52 54 61 59 58 60 62 62 60 63 68 73 75 78 82 82 85 83 86 86 84 85 81 82 71 68 74 80 78 75 78 80 87 86 98 94 94 95 93 87 83 75 71
45 48 47 50 54 57 57 55 55 59 65 67 69 68 67 68 66 71 72 73 74 76 74 71 72 74 77 75 74 73 70 67 70 81 86 89 90 81 80 77 75 73 69 65 62
47 50 51 53 51 54 57 56 55 59 60 61 62 64 60 64 60 63 61 60 61 59 61 60 66 66 60 63 62 60 63 62 67 70 75 77 77 71 69 69 66 64 64 63 62
45 49 48 44 48 52 52 53 53 53 52 54 56 55 54 56 56 55 53 50 51 51 52 54 59 56 52 50 53 54 54 54 55 55 61 62 63 59 59 58 58 57 57 56 56
43 46 44 44 45 48 47 48 50 51 50 50 49 44 46 46 46 46 44 44 42 44 46 46 49 52 47 47 47 47 48 48 48 49 51 56 50 50 51 50 50 51 51 48 48

GFSSW_prec_cthk_111.txt.gz
RH
96 97 98 98 96 90 76 58 58 71 78 78 83 76 70 62 55 49 38 32 29 30 28 27 27 25 24 23 23 25 31 36 32 33 29 26 27 28 29 28 26 25 28 31 31
94 95 96 95 95 95 96 84 60 56 74 84 78 89 83 73 63 56 44 41 39 38 35 31 29 27 27 28 28 28 34 31 29 29 27 26 26 27 29 31 28 27 26 29 32
89 95 94 93 92 93 92 93 83 55 54 75 79 98 88 81 75 63 47 49 49 41 35 34 31 29 29 29 30 34 36 31 28 27 27 27 25 25 27 27 32 28 26 27 31
89 87 89 91 91 92 89 88 91 78 51 76 85 97 90 81 79 67 59 52 51 42 36 36 36 35 35 32 33 33 31 30 30 27 27 27 26 25 24 24 28 30 27 27 29
96 91 81 71 85 87 89 84 86 90 64 76 98 97 96 86 79 72 69 64 46 41 40 40 38 38 38 39 36 37 35 33 32 32 30 29 29 28 24 23 22 26 28 27 28
88 84 72 62 71 84 85 82 80 79 85 75 83 90 95 93 83 87 78 69 61 53 47 44 44 43 43 44 42 42 40 37 34 32 33 32 29 31 23 23 24 22 25 27 27
71 70 60 56 59 78 87 85 75 72 79 80 89 99 92 93 92 94 84 77 62 54 52 50 48 46 47 48 47 44 43 39 34 34 36 35 36 31 26 30 28 28 27 29 30
63 71 79 70 59 81 93 85 66 65 60 90 96 94 98 94 96 94 91 77 64 58 54 54 53 54 53 52 51 49 46 49 36 39 40 42 41 31 30 32 34 32 31 29 27
75 93 98 90 66 94 95 77 71 55 53 98 98 98 98 98 98 95 85 77 70 65 62 55 56 56 56 55 52 51 53 50 44 39 42 45 41 32 31 36 39 36 34 35 30
78 94 98 98 90 96 83 73 86 63 92 98 98 97 98 97 95 94 89 81 73 68 64 61 60 59 54 55 56 54 57 52 51 43 46 49 40 31 32 42 41 38 35 33 31
69 88 96 90 92 85 80 95 94 87 95 98 98 97 98 96 96 96 86 80 77 72 71 70 65 60 58 57 58 58 60 57 51 49 56 50 49 36 37 47 45 40 34 31 31
69 74 75 89 89 88 83 93 97 98 98 98 98 96 97 96 95 93 84 78 77 76 70 66 62 55 58 61 59 58 60 56 53 53 59 52 46 44 48 52 48 41 36 35 36
66 72 64 68 70 84 96 95 99 97 97 98 98 98 95 90 83 82 79 74 70 63 61 61 55 58 59 58 61 58 63 59 61 56 55 61 57 55 55 57 52 46 42 40 39
62 67 59 54 57 69 91 98 96 96 96 99 98 98 94 89 85 77 74 69 61 62 61 59 56 57 58 57 59 63 57 59 58 73 73 72 71 62 72 68 69 61 51 51 46
61 64 59 59 68 75 83 88 86 85 85 96 95 94 91 87 80 72 64 64 64 60 61 59 57 60 64 62 64 65 66 72 77 84 87 83 90 71 81 83 80 73 53 48 50
54 56 58 57 62 67 73 74 80 75 93 97 96 95 88 77 71 62 60 60 57 57 57 55 50 54 56 59 67 70 78 87 89 92 92 92 96 84 87 84 77 70 58 54 57
49 52 53 59 59 64 68 78 75 86 95 95 91 83 73 69 63 56 54 52 62 68 63 59 61 61 65 71 73 85 93 91 87 94 93 98 97 92 91 78 72 66 67 71 77
54 56 60 62 62 62 67 66 77 89 87 83 72 66 62 53 45 44 55 61 64 68 72 74 68 73 77 80 86 91 93 96 93 95 95 97 97 97 94 87 87 82 83 88 98
52 54 56 57 60 62 64 75 82 76 65 65 69 61 57 54 57 65 70 72 75 73 82 82 75 77 83 84 88 90 98 95 96 97 97 97 98 97 96 93 94 95 95 98 97
50 60 61 60 59 51 46 61 67 64 61 59 58 54 62 65 68 75 79 86 90 88 88 88 87 80 87 88 90 94 94 95 96 96 96 97 98 97 98 98 98 98 98 99 97
42 52 56 51 47 41 53 62 63 63 66 71 70 70 75 84 86 92 95 92 92 91 89 88 90 82 86 89 91 96 97 97 95 92 96 96 98 98 98 98 98 98 98 99 98
39 46 49 49 49 52 58 61 60 62 68 73 77 75 79 89 97 98 97 90 87 86 86 86 85 85 77 78 84 90 91 90 94 89 91 96 98 98 98 98 97 97 93 90 89
35 39 42 41 52 55 56 57 63 68 70 73 75 78 78 82 87 91 86 80 81 83 81 77 77 82 69 69 76 81 80 81 85 82 88 88 98 96 96 95 85 82 82 81 79
31 39 38 41 49 55 60 61 64 67 69 68 70 67 67 70 72 75 74 74 76 74 70 68 69 70 75 74 75 74 71 74 80 84 84 89 91 85 83 80 77 73 69 72 71
32 37 40 46 49 52 58 63 64 65 62 62 60 63 61 62 63 66 64 61 61 61 61 58 60 62 57 58 62 67 70 67 73 75 74 78 77 72 71 71 70 67 65 63 62
31 35 37 40 44 48 48 53 59 61 59 58 57 57 55 55 54 54 53 51 51 51 52 52 55 52 46 49 52 52 55 58 62 62 67 67 65 59 59 60 60 61 60 58 57
27 30 31 37 39 42 47 48 49 53 53 55 51 49 48 47 47 46 45 44 44 44 46 47 49 51 45 45 44 41 44 46 46 46 50 54 47 49 50 51 52 52 51 49 48

GFSSW_prec_cthk_114.txt.gz
RH
77 83 84 93 96 97 98 96 71 59 69 85 83 80 74 65 55 51 46 39 34 33 31 29 27 26 25 24 24 25 29 33 29 31 24 23 23 23 24 24 25 26 24 25 27
97 94 96 92 95 96 96 96 96 75 67 78 83 81 88 79 65 56 56 44 39 36 31 30 30 29 27 27 26 26 29 27 26 26 24 24 23 22 21 21 24 25 25 25 23
97 99 97 99 98 97 97 94 94 93 71 62 92 96 90 83 79 68 60 52 51 44 40 36 33 30 30 28 29 32 31 29 27 27 26 25 23 22 22 22 21 21 24 24 24
98 98 97 95 95 95 95 97 92 89 88 60 74 98 98 96 91 82 68 67 55 49 42 38 34 32 33 31 32 31 31 31 29 28 28 27 25 23 20 19 18 18 19 22 24
94 94 91 89 87 81 90 92 94 88 87 73 79 85 87 96 96 86 77 78 61 46 42 38 36 34 34 36 36 36 34 33 31 30 30 29 27 26 23 17 17 17 18 18 20
82 80 77 75 66 64 76 85 87 83 82 77 90 93 96 95 97 93 87 76 59 50 45 41 38 37 40 43 42 43 41 37 34 31 32 31 28 28 21 19 19 19 17 18 18
68 64 62 62 53 54 61 83 82 74 72 78 86 98 99 98 98 97 83 75 73 62 55 52 49 45 46 47 47 45 42 38 35 35 34 34 32 29 21 23 22 21 22 22 22
67 76 78 79 77 53 68 86 88 69 62 75 89 98 98 94 96 91 83 84 76 68 63 58 53 50 49 49 48 48 45 44 38 40 38 38 36 26 25 26 24 22 22 23 24
69 77 79 70 83 65 74 91 85 63 73 80 93 97 98 98 95 97 94 87 81 70 63 58 55 55 54 52 50 51 55 50 42 36 38 39 36 30 28 30 28 26 27 26 26
69 83 91 82 72 79 88 94 80 72 84 91 98 97 98 98 96 93 90 82 78 73 67 63 60 59 56 55 55 54 53 49 50 42 43 47 38 34 32 33 31 28 31 29 29
60 76 90 91 93 86 84 86 82 88 98 98 98 99 98 98 95 93 90 86 84 80 77 72 66 63 58 54 53 53 51 50 43 47 49 47 43 36 33 35 35 33 35 33 30
56 61 74 81 83 82 82 84 90 96 98 99 98 98 98 98 97 92 89 86 86 83 74 66 63 55 54 55 56 56 54 51 45 49 54 52 44 36 34 38 40 41 41 38 33
58 60 65 74 89 93 88 96 98 98 97 99 98 98 98 96 97 94 87 77 75 70 65 59 56 53 53 56 59 58 58 54 56 53 55 57 50 42 44 52 59 56 51 45 36
50 57 68 69 81 92 95 97 96 92 93 99 98 98 96 86 90 85 80 74 68 62 58 54 50 52 55 56 57 62 55 58 57 64 70 65 70 56 67 74 75 69 62 57 53
44 53 61 72 76 83 86 86 82 79 83 96 97 96 90 86 79 76 71 64 62 55 52 52 52 55 58 58 59 61 60 64 73 82 83 84 89 69 79 85 85 77 72 66 57
46 48 55 63 67 70 70 71 70 66 88 95 96 93 83 77 73 65 60 56 53 53 53 52 49 49 51 54 58 59 69 79 84 85 89 86 97 83 91 87 77 69 71 71 57
52 51 50 53 60 65 65 64 65 78 89 86 82 74 68 64 58 57 55 51 58 61 62 56 56 56 59 63 65 79 89 84 79 90 89 94 97 94 93 91 84 70 70 66 64
50 54 55 55 54 58 58 59 68 80 77 67 64 58 54 50 43 49 55 59 59 63 67 67 61 63 70 74 79 86 90 92 91 91 90 92 96 95 96 89 88 89 86 79 78
46 49 45 46 48 49 55 60 70 64 59 60 58 51 52 52 57 62 63 65 63 67 70 69 69 71 77 80 83 88 93 93 94 93 97 95 97 96 94 97 93 95 96 89 95
35 38 38 39 38 36 40 58 65 63 62 62 60 58 66 68 68 72 71 74 77 76 78 79 85 78 83 85 90 91 91 95 98 96 96 96 97 97 97 97 98 97 97 98 98
31 33 37 37 38 38 56 70 74 75 77 81 77 74 78 86 86 85 85 81 83 86 88 88 90 82 88 91 96 97 98 98 98 96 96 95 97 97 98 98 97 98 98 98 98
30 37 35 34 40 52 63 70 76 82 83 85 88 84 84 95 95 92 91 88 85 87 86 84 88 90 83 80 83 89 93 94 95 97 91 93 97 97 97 97 96 95 94 91 88
26 30 33 34 46 53 56 63 70 77 82 82 84 85 83 83 84 88 87 82 84 85 85 81 82 85 68 70 75 77 79 81 87 87 91 89 97 95 95 93 90 89 86 84 83
24 30 32 36 46 47 53 58 62 65 68 69 71 70 73 76 76 78 77 73 73 75 74 72 71 72 77 76 75 77 74 77 86 88 90 90 96 88 81 80 79 81 77 77 75
23 30 31 40 42 46 48 52 55 58 58 59 60 63 64 64 63 65 64 63 62 60 61 59 59 61 59 60 65 64 69 72 78 76 77 78 78 73 71 70 72 71 71 69 66
24 27 29 34 37 39 44 46 49 51 52 53 53 53 53 55 56 56 54 52 51 49 48 50 51 49 45 45 48 48 53 57 61 66 68 67 64 62 62 64 64 64 63 62 58
24 24 25 30 32 35 38 40 41 42 43 44 44 45 45 45 45 45 46 46 47 47 45 46 48 48 41 39 39 39 39 44 46 47 52 55 48 50 51 53 54 54 54 52 49

GFSSW_prec_cthk_117.txt.gz
RH
90 98 97 94 86 85 89 97 95 77 71 92 91 92 89 78 62 54 46 41 38 37 34 32 29 26 23 23 23 23 25 26 24 27 22 24 23 23 23 23 24 24 23 22 23
79 98 98 98 99 94 92 95 95 90 77 75 93 91 93 82 72 62 53 44 40 37 35 33 31 30 27 27 26 26 24 23 24 25 23 23 22 21 19 19 18 18 20 22 22
80 95 97 99 98 98 98 98 93 92 86 70 87 97 97 97 85 74 58 52 50 40 35 33 32 31 31 31 31 30 27 26 25 26 25 24 23 22 21 19 17 15 13 14 15
90 97 96 98 97 98 98 96 93 89 88 83 69 94 94 93 96 86 70 64 62 48 44 40 37 34 35 33 33 29 30 30 28 27 27 25 24 23 21 18 16 16 16 15 14
85 85 88 96 97 92 89 96 95 95 85 82 72 93 96 97 94 86 88 82 66 53 48 43 39 36 36 35 33 32 32 32 30 28 27 26 26 25 23 16 17 16 16 15 14
60 66 69 77 84 82 81 85 94 96 88 84 71 91 94 97 96 93 99 93 74 58 47 44 41 36 36 38 35 38 38 36 33 31 31 29 26 28 21 19 19 18 18 18 17
62 63 64 64 67 66 64 80 89 87 79 82 81 98 96 96 96 94 96 74 70 61 51 45 42 39 39 42 42 42 40 37 35 34 33 34 33 30 22 24 22 20 19 19 17
66 69 61 58 72 58 64 69 85 79 69 70 92 98 98 95 95 98 82 78 79 73 63 57 50 47 47 47 46 46 42 39 38 39 37 37 33 27 26 26 24 22 21 19 18
81 85 71 75 77 67 61 70 81 70 61 70 81 96 98 99 98 95 84 80 76 74 68 63 56 53 52 51 48 49 50 51 44 40 40 41 36 30 26 25 23 24 24 21 19
68 83 91 91 79 75 74 78 84 71 70 85 85 96 99 99 97 91 87 83 82 75 73 68 62 59 55 52 45 56 56 52 48 40 38 39 34 32 29 27 26 26 26 24 22
59 64 76 80 83 85 83 80 81 77 78 86 91 98 98 98 97 95 87 80 79 76 76 69 63 60 56 55 53 55 52 49 42 37 40 41 37 32 32 32 28 28 28 28 26
58 64 70 73 81 82 82 82 91 98 97 98 98 98 98 97 95 93 87 82 81 82 74 65 63 57 56 55 54 53 53 49 41 42 47 45 36 33 35 36 36 36 36 34 32
59 62 70 74 67 82 86 96 97 96 96 98 98 98 98 96 95 92 86 83 80 75 67 60 59 54 52 51 52 51 51 49 51 47 47 50 43 41 45 49 51 51 49 47 44
58 63 68 73 84 88 93 96 95 91 91 99 98 97 97 94 92 85 78 73 71 62 58 53 49 47 50 50 52 53 48 52 56 63 66 64 68 60 64 68 70 68 61 57 56
60 61 67 71 77 80 80 77 74 72 85 96 97 93 89 86 80 78 72 67 61 57 53 49 50 51 54 51 52 52 53 59 65 74 79 76 85 68 75 78 84 76 69 71 70
51 53 55 57 63 64 63 63 61 67 90 97 92 86 81 78 73 63 59 55 51 49 49 49 46 47 47 49 55 55 63 69 74 74 81 76 90 83 92 92 91 85 74 70 71
54 52 51 52 55 58 58 56 61 77 87 81 80 73 65 61 59 56 53 51 55 57 59 55 55 53 55 61 61 71 77 78 73 83 81 83 92 91 94 92 88 86 86 80 73
42 43 45 49 50 51 53 53 64 72 69 66 66 61 58 54 50 53 55 58 56 60 63 63 57 59 64 68 72 77 81 87 87 85 83 89 93 93 90 94 95 96 95 95 96
36 36 34 36 36 37 37 51 65 61 59 56 52 48 51 52 54 56 57 58 56 64 66 64 69 68 76 79 80 88 90 88 93 90 94 92 95 95 91 95 96 98 97 97 98
30 35 33 34 35 36 38 56 64 63 64 65 60 60 64 63 61 63 64 68 72 74 73 80 84 76 82 88 89 93 93 97 96 95 91 89 96 97 95 96 95 96 98 98 98
24 27 33 34 42 47 57 72 76 75 74 75 74 72 76 82 81 82 81 79 81 85 88 89 89 82 91 93 96 97 98 97 98 98 95 93 94 98 96 94 96 97 97 97 96
20 29 28 33 42 54 66 71 74 78 78 77 77 72 76 84 83 87 90 86 85 86 87 89 94 94 84 83 87 92 95 95 96 96 95 95 97 96 96 96 96 94 90 88 88
20 24 26 27 44 51 56 63 68 70 70 72 72 71 71 76 80 84 84 80 82 83 83 80 81 84 69 73 78 82 82 86 86 90 90 88 96 94 93 93 89 87 84 82 81
19 26 25 28 36 41 48 55 58 61 62 63 66 68 70 73 72 71 72 69 67 69 69 69 67 71 80 73 75 77 76 77 81 89 83 85 91 95 84 84 79 81 80 79 77
19 24 27 33 35 36 40 45 50 54 54 56 54 57 58 59 57 59 57 55 55 53 57 58 57 57 55 54 55 61 63 69 74 72 70 72 75 67 68 67 68 68 69 70 66
20 22 24 30 34 33 35 39 42 44 46 45 47 48 45 45 44 47 47 47 45 45 46 49 50 46 42 39 43 44 44 52 56 57 56 58 58 52 53 53 55 56 57 55 52
21 21 21 27 28 32 32 34 35 37 38 40 40 40 38 39 39 38 39 39 40 41 41 42 45 46 42 36 34 34 33 42 43 42 45 49 41 42 44 45 45 46 47 46 45